[[{"header":{"parameterUnit":"m.s-1","parameterCategory":1,"la1":30.6,"la2":28.766,"lo1":-90.7593,"lo2":-88.6598,"dy":0.0162,"dx":0.0183,"nx":116,"ny":114,"refTime":"2024-05-07T00:00:00:Z","depth":0,"parameterNumber":2,"parameterNumberName":"U-component_of_WINDS"},"data":[0.0,0.0,0.0,0.0,0.0,0.0,0.0,0.0,0.0,0.0,0.0,0.0,0.0,0.0,0.0,0.0,0.0,0.0,0.0,0.0,0.0,0.0,0.0,0.0,0.0,0.0,0.0,0.0,0.0,0.0,0.0,0.0,0.0,0.0,0.0,0.0,0.0,0.0,0.0,0.0,0.0,0.0,0.0,0.0,0.0,0.0,0.0,0.0,0.0,0.0,0.0,0.0,0.0,0.0,0.0,0.0,0.0,0.0,0.0,0.0,0.0,0.0,0.0,0.0,0.0,0.0,0.0,0.0,0.0,0.0,0.0,0.0,0.0,0.0,0.0,0.0,0.0,0.0,0.0,0.0,0.0,0.0,0.0,0.0,0.0,0.0,0.0,0.0,0.0,0.0,0.0,0.0,0.0,0.0,0.0,0.0,0.0,0.0,0.0,0.0,0.0,0.0,0.0,0.0,0.0,0.0,0.0,0.0,0.0,0.0,0.0,0.0,0.0,0.0,0.0,0.0,0.0,0.0,0.0,0.0,0.0,0.0,0.0,0.0,0.0,0.0,0.0,0.0,0.0,0.0,0.0,0.0,0.0,0.0,0.0,0.0,0.0,0.0,0.0,0.0,0.0,0.0,0.0,0.0,0.0,0.0,0.0,0.0,0.0,0.0,0.0,0.0,0.0,0.0,0.0,0.0,0.0,0.0,0.0,0.0,0.0,0.0,0.0,0.0,0.0,0.0,0.0,0.0,0.0,0.0,0.0,0.0,0.0,0.0,0.0,0.0,0.0,0.0,0.0,0.0,0.0,0.0,0.0,0.0,0.0,0.0,0.0,0.0,0.0,0.0,0.0,0.0,0.0,0.0,0.0,0.0,0.0,0.0,0.0,0.0,0.0,0.0,0.0,0.0,0.0,0.0,0.0,0.0,0.0,0.0,0.0,0.0,0.0,0.0,0.0,0.0,0.0,0.0,0.0,0.0,0.0,0.0,0.0,0.0,0.0,0.0,0.0,0.0,0.0,0.0,0.0,0.0,0.0,0.0,0.0,0.0,0.0,0.0,0.0,0.0,0.0,0.0,0.0,0.0,0.0,0.0,0.0,0.0,0.0,0.0,0.0,0.0,0.0,0.0,0.0,0.0,0.0,0.0,0.0,0.0,0.0,0.0,0.0,0.0,0.0,0.0,0.0,0.0,0.0,0.0,0.0,0.0,0.0,0.0,0.0,0.0,0.0,0.0,0.0,0.0,0.0,0.0,0.0,0.0,0.0,0.0,0.0,0.0,0.0,0.0,0.0,0.0,0.0,0.0,0.0,0.0,0.0,0.0,0.0,0.0,0.0,0.0,0.0,0.0,0.0,0.0,0.0,0.0,0.0,0.0,0.0,0.0,0.0,0.0,0.0,0.0,0.0,0.0,0.0,0.0,0.0,0.0,0.0,0.0,0.0,0.0,0.0,0.0,0.0,0.0,0.0,0.0,0.0,0.0,0.0,0.0,0.0,0.0,0.0,0.0,0.0,0.0,0.0,0.0,0.0,0.0,0.0,0.0,0.0,0.0,0.0,0.0,0.0,0.0,0.0,0.0,0.0,0.0,0.0,0.0,0.0,0.0,0.0,0.0,0.0,0.0,0.0,0.0,0.0,0.0,0.0,0.0,0.0,0.0,0.0,0.0,0.0,0.0,0.0,0.0,0.0,0.0,0.0,0.0,0.0,0.0,0.0,0.0,0.0,0.0,0.0,0.0,0.0,0.0,0.0,0.0,0.0,0.0,0.0,0.0,0.0,0.0,0.0,0.0,0.0,0.0,0.0,0.0,0.0,0.0,0.0,0.0,0.0,0.0,0.0,0.0,0.0,0.0,0.0,0.0,0.0,0.0,0.0,0.0,0.0,0.0,0.0,0.0,0.0,0.0,0.0,0.0,0.0,0.0,0.0,0.0,0.0,0.0,0.0,0.0,0.0,0.0,0.0,0.0,0.0,0.0,0.0,0.0,0.0,0.0,0.0,0.0,0.0,0.0,0.0,0.0,0.0,0.0,0.0,0.0,0.0,0.0,0.0,0.0,0.0,0.0,0.0,0.0,0.0,0.0,0.0,0.0,0.0,0.0,0.0,0.0,0.0,0.0,0.0,0.0,0.0,0.0,0.0,0.0,0.0,0.0,0.0,0.0,0.0,0.0,0.0,0.0,0.0,0.0,0.0,0.0,0.0,0.0,0.0,0.0,0.0,0.0,0.0,0.0,0.0,0.0,0.0,0.0,0.0,0.0,0.0,0.0,0.0,0.0,0.0,0.0,0.0,0.0,0.0,0.0,0.0,0.0,0.0,0.0,0.0,0.0,0.0,0.0,0.0,0.0,0.0,0.0,0.0,0.0,0.0,0.0,0.0,0.0,0.0,0.0,0.0,0.0,0.0,0.0,0.0,0.0,0.0,0.0,0.0,0.0,0.0,0.0,0.0,0.0,0.0,0.0,0.0,0.0,0.0,0.0,0.0,0.0,0.0,0.0,0.0,0.0,0.0,0.0,0.0,0.0,0.0,0.0,0.0,0.0,0.0,0.0,0.0,0.0,0.0,0.0,0.0,0.0,0.0,0.0,0.0,0.0,0.0,0.0,0.0,0.0,0.0,0.0,0.0,0.0,0.0,0.0,0.0,0.0,0.0,0.0,0.0,0.0,0.0,0.0,0.0,0.0,0.0,0.0,0.0,0.0,0.0,0.0,0.0,0.0,0.0,0.0,0.0,0.0,0.0,0.0,0.0,0.0,0.0,0.0,0.0,0.0,0.0,0.0,0.0,0.0,0.0,0.0,0.0,0.0,0.0,0.0,0.0,0.0,0.0,0.0,0.0,0.0,0.0,0.0,0.0,0.0,0.0,0.0,0.0,0.0,0.0,0.0,0.0,0.0,0.0,0.0,0.0,0.0,0.0,0.0,0.0,0.0,0.0,0.0,0.0,0.0,0.0,0.0,0.0,0.0,0.0,0.0,0.0,0.0,0.0,0.0,0.0,0.0,0.0,0.0,0.0,0.0,0.0,0.0,0.0,0.0,0.0,0.0,0.0,0.0,0.0,0.0,0.0,0.0,0.0,0.0,0.0,0.0,0.0,0.0,0.0,0.0,0.0,0.0,0.0,0.0,0.0,0.0,0.0,0.0,0.0,0.0,0.0,0.0,0.0,0.0,0.0,0.0,0.0,0.0,0.0,0.0,0.0,0.0,0.0,0.0,0.0,0.0,0.0,0.0,0.0,0.0,0.0,0.0,0.0,0.0,0.0,0.0,0.0,0.0,0.0,0.0,0.0,0.0,0.0,0.0,0.0,0.0,0.0,0.0,0.0,0.0,0.0,0.0,0.0,0.0,0.0,0.0,0.0,0.0,0.0,0.0,0.0,0.0,0.0,0.0,0.0,0.0,0.0,0.0,0.0,0.0,0.0,0.0,0.0,0.0,0.0,0.0,0.0,0.0,0.0,0.0,0.0,0.0,0.0,0.0,0.0,0.0,0.0,0.0,0.0,0.0,0.0,0.0,0.0,0.0,0.0,0.0,0.0,0.0,0.0,0.0,0.0,0.0,0.0,0.0,0.0,0.0,0.0,0.0,0.0,0.0,0.0,0.0,0.0,0.0,0.0,0.0,0.0,0.0,0.0,0.0,0.0,0.0,0.0,0.0,0.0,0.0,0.0,0.0,0.0,0.0,0.0,0.0,0.0,0.0,0.0,0.0,0.0,0.0,0.0,0.0,0.0,0.0,0.0,0.0,0.0,0.0,0.0,0.0,0.0,0.0,0.0,0.0,0.0,0.0,0.0,0.0,0.0,0.0,0.0,0.0,0.0,0.0,0.0,0.0,0.0,0.0,0.0,0.0,0.0,0.0,0.0,0.0,0.0,0.0,0.0,0.0,0.0,0.0,0.0,0.0,0.0,0.0,0.0,0.0,0.0,0.0,0.0,0.0,0.0,0.0,0.0,0.0,0.0,0.0,0.0,0.0,0.0,0.0,0.0,0.0,0.0,0.0,0.0,0.0,0.0,0.0,0.0,0.0,0.0,0.0,0.0,0.0,0.0,0.0,0.0,0.0,0.0,0.0,0.0,0.0,0.0,0.0,0.0,0.0,0.0,0.0,0.0,0.0,0.0,0.0,0.0,0.0,0.0,0.0,0.0,0.0,0.0,0.0,0.0,0.0,0.0,0.0,0.0,0.0,0.0,0.0,0.0,0.0,0.0,0.0,0.0,0.0,0.0,0.0,0.0,0.0,0.0,0.0,0.0,0.0,0.0,0.0,0.0,0.0,0.0,0.0,0.0,0.0,0.0,0.0,0.0,0.0,0.0,0.0,0.0,0.0,0.0,0.0,0.0,0.0,0.0,0.0,0.0,0.0,0.0,0.0,0.0,0.0,0.0,0.0,0.0,0.0,0.0,0.0,0.0,0.0,0.0,0.0,0.0,0.0,0.0,0.0,0.0,0.0,0.0,0.0,0.0,0.0,0.0,0.0,0.0,0.0,0.0,0.0,0.0,0.0,0.0,0.0,0.0,0.0,0.0,0.0,0.0,0.0,0.0,0.0,0.0,0.0,0.0,0.0,0.0,0.0,0.0,0.0,0.0,0.0,0.0,0.0,0.0,0.0,0.0,0.0,0.0,0.0,0.0,0.0,0.0,0.0,0.0,0.0,0.0,0.0,0.0,0.0,0.0,0.0,0.0,0.0,0.0,0.0,0.0,0.0,0.0,0.0,0.0,0.0,0.0,0.0,0.0,0.0,0.0,0.0,0.0,0.0,0.0,0.0,0.0,0.0,0.0,0.0,0.0,0.0,0.0,0.0,0.0,0.0,0.0,0.0,0.0,0.0,0.0,0.0,0.0,0.0,0.0,0.0,0.0,0.0,0.0,0.0,0.0,0.0,0.0,0.0,0.0,0.0,0.0,0.0,0.0,0.0,0.0,0.0,0.0,0.0,0.0,0.0,0.0,0.0,0.0,0.0,0.0,0.0,0.0,0.0,0.0,0.0,0.0,0.0,0.0,0.0,0.0,0.0,0.0,0.0,0.0,0.0,0.0,0.0,0.0,0.0,0.0,0.0,0.0,0.0,0.0,0.0,0.0,0.0,0.0,0.0,0.0,0.0,0.0,0.0,0.0,0.0,0.0,0.0,0.0,0.0,0.0,0.0,0.0,0.0,0.0,0.0,0.0,0.0,0.0,0.0,0.0,0.0,0.0,0.0,0.0,0.0,0.0,0.0,0.0,0.0,0.0,0.0,0.0,0.0,0.0,0.0,0.0,0.0,0.0,0.0,0.0,0.0,0.0,0.0,0.0,0.0,0.0,0.0,0.0,0.0,0.0,0.0,0.0,0.0,0.0,0.0,0.0,0.0,0.0,0.0,0.0,0.0,0.0,0.0,0.0,0.0,0.0,0.0,0.0,0.0,0.0,0.0,0.0,0.0,0.0,0.0,0.0,0.0,0.0,0.0,0.0,0.0,0.0,0.0,0.0,0.0,0.0,0.0,0.0,0.0,0.0,0.0,0.0,0.0,0.0,0.0,0.0,0.0,0.0,0.0,0.0,0.0,0.0,0.0,0.0,0.0,0.0,0.0,0.0,0.0,0.0,0.0,0.0,0.0,0.0,0.0,0.0,0.0,0.0,0.0,0.0,0.0,0.0,0.0,0.0,0.0,0.0,0.0,0.0,0.0,0.0,0.0,0.0,0.0,0.0,0.0,0.0,0.0,0.0,0.0,0.0,0.0,0.0,0.0,0.0,0.0,0.0,0.0,0.0,0.0,0.0,0.0,0.0,0.0,0.0,0.0,0.0,0.0,0.0,0.0,0.0,0.0,0.0,0.0,0.0,0.0,0.0,0.0,0.0,0.0,0.0,0.0,0.0,0.0,0.0,0.0,0.0,0.0,0.0,0.0,0.0,0.0,0.0,0.0,0.0,0.0,0.0,0.0,0.0,0.0,0.0,0.0,0.0,0.0,0.0,0.0,0.0,0.0,0.0,0.0,0.0,0.0,0.0,0.0,0.0,0.0,0.0,0.0,0.0,0.0,0.0,0.0,0.0,0.0,0.0,0.0,0.0,0.0,0.0,0.0,0.0,0.0,0.0,0.0,0.0,0.0,0.0,0.0,3.0626,0.0,0.0,0.0,0.0,0.0,0.0,0.0,0.0,0.0,0.0,0.0,0.0,0.0,0.0,0.0,0.0,0.0,0.0,0.0,0.0,0.0,0.0,0.0,0.0,2.0991,2.1197,2.1415,2.1735,2.2015,2.2271,0.0,0.0,0.0,0.0,0.0,2.3219,2.3626,2.4005,2.4384,2.4328,2.4534,2.493,2.399,2.3642,2.3788,0.0,0.0,0.0,0.0,0.0,0.0,0.0,0.0,0.0,0.0,0.0,0.0,0.0,0.0,0.0,0.0,0.0,0.0,0.0,0.0,0.0,0.0,0.0,0.0,0.0,0.0,0.0,0.0,0.0,0.0,0.0,0.0,0.0,0.0,0.0,0.0,0.0,0.0,0.0,0.0,0.0,0.0,0.0,0.0,0.0,0.0,0.0,0.0,0.0,0.0,0.0,0.0,0.0,0.0,0.0,0.0,0.0,0.0,0.0,0.0,0.0,0.0,0.0,0.0,0.0,0.0,0.0,0.0,0.0,0.0,0.0,3.1797,0.0,0.0,0.0,0.0,0.0,0.0,0.0,0.0,0.0,0.0,0.0,0.0,0.0,0.0,0.0,0.0,0.0,0.0,0.0,0.0,0.0,2.1355,2.1417,2.1645,2.1836,2.1998,2.213,2.2287,2.2515,2.2562,2.263,2.2713,2.3431,2.3807,2.379,2.4528,2.4952,2.506,2.5137,2.5206,2.5206,2.5206,2.5189,2.5172,2.4717,0.0,0.0,0.0,0.0,0.0,0.0,0.0,0.0,0.0,0.0,0.0,0.0,0.0,0.0,0.0,0.0,0.0,0.0,0.0,0.0,0.0,0.0,0.0,0.0,0.0,0.0,0.0,0.0,0.0,0.0,0.0,0.0,0.0,0.0,0.0,0.0,0.0,0.0,0.0,0.0,0.0,0.0,0.0,0.0,0.0,0.0,0.0,0.0,0.0,0.0,0.0,0.0,0.0,0.0,0.0,0.0,0.0,0.0,0.0,0.0,0.0,0.0,0.0,3.3479,3.3557,3.3557,3.3701,3.3759,3.3759,3.3759,3.3497,3.307,0.0,0.0,0.0,0.0,0.0,0.0,0.0,0.0,0.0,0.0,0.0,0.0,0.0,0.0,0.0,0.0,0.0,0.0,0.0,0.0,2.1087,2.1462,2.115,2.1245,2.194,2.1401,2.1462,2.2525,2.2863,2.3072,2.3194,2.3917,2.4135,2.3833,2.4236,2.4763,2.5341,2.6049,2.642,2.647,2.61,2.5946,2.593,2.5238,2.4959,2.5005,0.0,0.0,0.0,0.0,0.0,0.0,0.0,0.0,0.0,0.0,0.0,0.0,0.0,0.0,0.0,0.0,0.0,0.0,0.0,0.0,0.0,0.0,0.0,0.0,0.0,0.0,0.0,0.0,0.0,0.0,0.0,0.0,0.0,0.0,0.0,0.0,0.0,0.0,0.0,0.0,0.0,2.8144,2.9033,0.0,0.0,0.0,0.0,0.0,0.0,0.0,0.0,0.0,0.0,0.0,0.0,0.0,0.0,3.3102,3.3847,3.4234,3.4234,3.5007,3.5356,3.5375,3.6091,3.64,3.64,3.64,0.0,3.2923,3.2923,0.0,0.0,0.0,0.0,0.0,0.0,0.0,0.0,0.0,0.0,0.0,0.0,0.0,0.0,0.0,0.0,0.0,0.0,0.0,0.0,0.0,2.1354,2.1401,2.1688,2.1743,2.2003,2.2618,2.3133,2.3564,2.3907,2.463,2.4923,2.4745,2.5505,2.5927,2.595,2.6421,2.6538,2.6279,2.6139,2.621,2.6402,2.6112,2.5968,2.5968,2.6189,0.0,0.0,0.0,0.0,0.0,0.0,0.0,0.0,0.0,0.0,0.0,0.0,0.0,0.0,0.0,0.0,0.0,0.0,0.0,0.0,0.0,0.0,0.0,0.0,0.0,0.0,0.0,0.0,0.0,0.0,0.0,0.0,0.0,0.0,0.0,0.0,0.0,0.0,0.0,2.912,2.9728,3.0598,3.0704,3.1188,0.0,0.0,0.0,0.0,0.0,0.0,0.0,0.0,0.0,3.4543,3.4563,3.4775,3.524,3.5607,3.6052,3.6535,3.6922,3.7049,3.6954,3.7301,3.7401,3.7294,3.7294,3.6549,3.5331,3.4732,3.436,3.418,0.0,0.0,0.0,0.0,0.0,3.4554,0.0,0.0,0.0,0.0,0.0,0.0,0.0,0.0,0.0,0.0,0.0,0.0,2.1538,2.1446,2.1481,2.1738,2.2021,2.241,2.2866,2.3489,2.3999,2.4314,2.508,2.5497,2.5497,2.6387,2.6657,2.6332,2.6453,2.6349,2.603,2.6191,2.635,2.6556,2.6775,2.6842,2.6875,2.7169,2.7299,2.7247,0.0,0.0,0.0,0.0,0.0,0.0,0.0,0.0,0.0,0.0,0.0,0.0,0.0,0.0,0.0,0.0,0.0,0.0,0.0,0.0,0.0,0.0,0.0,0.0,0.0,0.0,0.0,0.0,0.0,0.0,0.0,0.0,0.0,0.0,0.0,0.0,0.0,3.0645,3.1407,3.2046,3.2134,3.2473,0.0,0.0,0.0,0.0,0.0,0.0,3.4698,3.493,3.5336,3.5994,3.6226,3.6632,3.7232,3.7232,3.7518,3.8119,3.8119,3.802,3.782,3.8051,3.8082,3.7925,3.7925,3.7852,3.7642,3.6554,3.6003,3.5828,3.5828,3.5863,3.5914,3.5863,3.5989,3.6177,0.0,0.0,0.0,0.0,0.0,0.0,0.0,0.0,0.0,0.0,0.0,2.1538,2.1582,2.115,2.1262,2.2377,2.1758,2.1969,2.3388,2.3926,2.4184,2.4225,2.5028,2.5475,2.5475,2.5852,2.6066,2.6139,2.6066,2.6066,2.6104,2.6505,2.647,2.6158,2.6925,2.7267,2.725,2.7282,2.7299,2.7299,2.7247,0.0,0.0,0.0,0.0,0.0,0.0,0.0,0.0,0.0,0.0,0.0,0.0,0.0,0.0,0.0,0.0,0.0,0.0,0.0,0.0,0.0,0.0,0.0,0.0,0.0,0.0,0.0,0.0,0.0,0.0,0.0,0.0,0.0,0.0,0.0,0.0,0.0,0.0,3.3042,3.3033,0.0,0.0,0.0,0.0,3.551,3.5568,3.5588,3.5626,3.6361,3.6787,3.6845,3.7638,3.8102,3.8141,3.8141,3.8048,3.7916,3.7916,3.782,3.7639,3.8477,3.884,3.8822,3.8822,3.8822,3.8746,3.7661,3.7135,3.7017,3.7017,3.7128,3.7296,3.7084,3.7218,3.7486,0.0,0.0,0.0,2.0646,2.0828,2.1039,2.1229,2.146,2.1582,2.1538,2.1401,2.1276,2.1166,2.1158,2.133,2.1705,2.2242,2.2863,2.3459,2.4099,2.4748,2.5314,2.541,2.5519,2.5705,2.5647,2.5758,2.603,2.5795,2.5815,2.6104,2.598,2.6139,2.6505,2.6808,2.7072,2.7299,2.7299,2.725,2.7184,2.7282,2.7299,0.0,0.0,0.0,0.0,0.0,0.0,0.0,0.0,0.0,0.0,0.0,0.0,0.0,0.0,0.0,0.0,0.0,0.0,0.0,0.0,0.0,0.0,0.0,0.0,0.0,0.0,0.0,0.0,0.0,0.0,0.0,0.0,0.0,0.0,0.0,0.0,0.0,3.3875,3.3944,0.0,0.0,3.524,3.5568,3.6419,3.6477,3.6729,3.729,3.758,3.7735,3.7735,3.7919,3.829,3.8849,3.8727,3.8901,3.9367,3.9367,3.9279,3.9086,3.939,3.948,3.9346,3.9346,3.9346,3.9328,3.8935,3.8181,3.7284,3.7284,3.7308,3.7332,3.7268,3.7393,3.76,0.0,2.0339,0.0,2.0695,2.0991,2.1229,2.1337,2.1612,2.1702,2.1432,2.1245,2.1023,2.0745,2.1101,2.1435,2.163,2.2655,2.3434,2.3761,2.442,2.4997,2.546,2.5556,2.5572,2.5535,2.5594,2.5647,2.5642,2.5556,2.5652,2.5908,2.5908,2.6327,2.7097,2.7216,2.7536,2.7942,2.8008,2.7698,2.7184,2.725,2.7299,2.7299,0.0,0.0,0.0,0.0,0.0,0.0,0.0,0.0,0.0,0.0,0.0,0.0,0.0,0.0,0.0,0.0,0.0,0.0,0.0,0.0,0.0,0.0,0.0,0.0,0.0,0.0,0.0,0.0,0.0,0.0,0.0,0.0,0.0,0.0,0.0,3.4195,3.4775,3.4833,3.5162,3.6013,3.6091,3.6458,3.729,3.7348,3.7556,3.8067,3.8376,3.855,3.855,3.8627,3.9004,3.9627,3.9444,3.9585,4.01,4.01,3.9979,3.98,3.98,3.9727,3.9602,3.9602,3.9602,3.9602,3.9602,3.9016,3.8134,3.8134,3.8115,3.8077,3.8077,3.8163,3.8307,2.0304,2.0304,2.0339,2.0423,2.0991,2.1415,2.1134,2.1715,2.1936,2.1293,2.1087,2.0828,2.0472,2.0987,2.1615,2.2255,2.2948,2.3609,2.4256,2.4839,2.4974,2.4539,2.546,2.5684,2.5005,2.5705,2.5721,2.5005,2.5346,2.5519,2.5572,2.6365,2.7114,2.7859,2.8253,2.8716,2.9211,2.9403,2.8678,2.7368,2.7333,2.7316,2.7299,0.0,0.0,0.0,0.0,0.0,0.0,0.0,0.0,0.0,0.0,0.0,0.0,0.0,0.0,0.0,0.0,0.0,0.0,0.0,0.0,0.0,0.0,0.0,0.0,0.0,0.0,0.0,0.0,0.0,0.0,0.0,0.0,0.0,3.4263,3.5044,3.5704,3.5742,3.5742,3.6052,3.6864,3.6942,3.7309,3.8168,3.8226,3.8164,3.7993,3.8766,3.9242,3.9242,3.9865,4.0286,4.0473,4.0286,4.0099,3.993,3.993,3.9857,3.9677,3.9677,3.9677,3.9677,3.9677,3.9677,3.9677,3.9677,3.9677,3.9677,3.9639,3.9602,3.9602,3.9602,3.9602,3.9674,2.0354,2.0388,2.0475,2.0795,2.1023,2.1213,2.1245,2.1417,2.1339,2.0778,2.0646,2.0733,2.1018,2.1734,2.2452,2.3095,2.384,2.4306,2.4441,2.4726,2.4846,2.4742,2.5269,2.5346,2.4862,2.5068,2.5246,2.5368,2.5208,2.5832,2.7171,2.71,2.7752,2.9042,2.9076,2.9214,2.9368,2.9403,2.9197,2.8784,2.8283,2.7782,2.7299,0.0,0.0,0.0,0.0,0.0,0.0,0.0,0.0,0.0,0.0,0.0,0.0,0.0,0.0,0.0,0.0,0.0,0.0,0.0,0.0,0.0,0.0,0.0,0.0,0.0,0.0,0.0,0.0,0.0,0.0,0.0,0.0,3.5147,3.5051,3.5297,3.5727,3.6344,3.6421,3.6807,3.7742,3.7851,3.8131,3.8873,3.8917,3.9108,3.954,3.979,3.9924,3.9924,3.9947,4.0,4.006,3.987,4.0033,4.054,4.054,4.0835,4.1342,4.1342,4.1342,4.1342,4.1342,4.1342,4.1342,4.1342,4.1342,4.1229,4.0046,3.9602,3.9602,3.9602,3.9679,3.9826,2.0441,2.0441,2.0527,2.0811,2.1007,2.1134,2.1119,2.1214,2.1119,2.0561,2.0494,2.069,2.1245,2.2013,2.2747,2.3374,2.412,2.4564,2.4498,2.4661,2.4846,2.5091,2.5307,2.523,2.4902,2.5029,2.5169,2.5307,2.537,2.6083,2.7344,2.757,2.8417,2.9761,2.9831,3.0019,3.0292,3.0292,3.0103,2.9795,2.9437,2.8852,2.8213,2.8213,2.8246,2.8278,2.8375,2.8453,2.8561,2.8871,0.0,0.0,0.0,0.0,0.0,0.0,0.0,0.0,0.0,0.0,0.0,0.0,0.0,0.0,0.0,0.0,0.0,0.0,0.0,0.0,0.0,0.0,0.0,0.0,3.5457,3.5678,3.6124,3.6036,3.6257,3.7103,3.7275,3.7675,3.8524,3.8633,3.8893,3.9586,3.9627,3.9752,4.0061,4.008,4.008,4.008,4.0211,4.0333,4.0404,4.0527,4.0835,4.1304,4.1304,4.1567,4.1991,4.1991,4.1991,0.0,4.1991,4.1991,4.1991,4.1991,4.1991,0.0,0.0,0.0,0.0,0.0,3.9679,3.9777,2.0527,2.0527,2.0527,2.0693,2.0941,2.1087,2.0827,2.1055,2.1055,2.0595,2.0527,2.0755,2.1337,2.2081,2.2762,2.3388,2.4166,2.4589,2.4539,2.4605,2.4855,2.5427,2.5384,2.523,2.5005,2.5307,2.5307,2.5005,2.5661,2.631,2.6889,2.7921,2.9075,3.0272,3.0529,3.0959,3.1517,3.1517,3.1141,3.0543,3.0619,3.0212,2.9506,2.9506,2.954,2.9608,2.9659,2.9793,2.9986,3.0545,0.0,0.0,0.0,0.0,0.0,0.0,0.0,0.0,0.0,0.0,0.0,0.0,0.0,0.0,0.0,0.0,0.0,0.0,0.0,0.0,0.0,0.0,0.0,0.0,3.6312,3.6496,3.7291,3.7122,3.7179,3.7894,3.8141,3.8529,3.9246,3.9307,3.955,4.012,4.0177,4.008,3.987,0.0,0.0,0.0,0.0,4.1011,4.1211,4.1726,4.2029,4.2168,4.2168,4.2179,4.2273,4.2273,4.2273,4.2273,4.2273,4.2273,4.2273,4.2273,4.2216,4.2074,4.1248,4.0947,4.0854,4.0121,3.9858,3.9908,2.0677,2.0577,2.0527,2.0693,2.0744,2.081,2.0794,2.086,2.0827,2.0677,2.0644,2.1045,2.2096,2.2419,2.3063,2.4147,2.4486,2.4645,2.4742,2.4742,2.4846,2.5068,2.5068,2.5045,2.5005,2.5068,2.5068,2.5005,2.5661,2.6712,2.8092,2.882,2.9962,3.1319,3.1316,3.138,3.1517,3.1517,3.1452,3.1373,3.1502,3.0748,2.9506,2.9506,2.9506,2.954,2.9726,2.981,2.9859,3.0117,3.0523,3.0939,3.1046,3.1397,0.0,0.0,0.0,0.0,0.0,0.0,0.0,0.0,0.0,0.0,0.0,0.0,0.0,0.0,0.0,0.0,0.0,0.0,0.0,3.6839,3.6927,3.7186,3.7995,3.8182,3.8289,3.8441,3.8499,3.8918,3.9925,4.0002,3.9986,3.9958,3.9977,3.987,3.9656,4.0252,0.0,4.0628,4.1367,4.1773,4.1825,4.1924,4.2355,4.305,0.0,0.0,4.4026,4.4026,4.4026,4.4026,4.4026,4.4026,4.4026,4.4026,4.3632,4.2956,4.2111,4.1773,4.1755,4.1605,4.1548,4.1548,2.0744,2.0695,2.0662,2.0744,2.0744,2.0777,2.0794,2.0794,2.0777,2.0726,2.0693,2.1017,2.189,2.2436,2.3045,2.3878,2.4346,2.4686,2.4782,2.4862,2.4942,2.5005,2.5005,2.5005,2.5005,2.5005,2.5005,2.5005,2.604,2.7064,2.8073,2.936,3.0436,3.1295,3.1483,3.1538,3.1517,3.1517,3.1538,3.1617,3.1671,3.1298,3.0644,3.0644,3.068,3.0698,3.0907,3.0976,3.1044,3.1359,3.1762,3.2136,3.2293,3.2636,3.3032,0.0,0.0,0.0,0.0,0.0,0.0,0.0,0.0,0.0,0.0,0.0,0.0,0.0,0.0,3.5503,3.6348,0.0,3.6761,3.7568,3.7699,3.7981,3.8826,3.9039,3.9135,3.9248,3.9333,3.9584,4.0022,4.004,3.9977,3.9754,3.9754,3.9873,4.0184,4.0572,4.0985,4.1398,4.2224,4.2656,4.2656,4.305,4.3482,4.3895,4.3895,4.412,4.4515,4.4515,4.4515,4.4515,4.4515,4.4515,4.4515,4.4515,4.4271,4.3857,4.3426,4.2723,4.1991,4.1991,4.1991,4.1991,2.0794,2.0794,2.0794,2.0794,2.0794,2.0794,2.0794,2.0794,2.0761,2.0726,2.0726,2.096,2.1561,2.2196,2.2801,2.3406,2.4144,2.4686,2.4782,2.4902,2.4966,2.5005,2.5005,2.5005,2.5005,2.5005,2.5005,2.5005,2.6404,2.728,2.7688,2.9493,3.0559,3.0925,3.1295,3.1483,3.1517,3.15,3.1576,3.1617,3.1617,3.1709,3.18,3.18,3.1856,3.193,3.2073,3.2144,3.2249,3.2603,3.2939,3.3243,3.3597,3.3895,3.4173,3.434,3.4386,0.0,0.0,0.0,0.0,0.0,0.0,0.0,0.0,0.0,3.509,3.5953,3.6122,3.6385,3.7174,3.7324,3.7587,3.8413,3.8544,3.8788,3.9483,3.9602,3.9674,3.9804,3.9979,4.002,3.9848,3.9826,3.9853,3.9827,3.9821,4.0178,4.0985,4.1191,4.1586,4.2243,4.3088,4.3538,4.3538,4.4177,4.4515,4.4515,4.4515,4.4515,4.4515,4.4515,4.4515,4.4515,4.4515,4.4515,4.4515,4.4515,4.4515,4.4515,4.4515,4.3688,4.2479,4.2479,4.2479,4.2479,2.0794,2.0794,2.0794,2.0794,2.0794,2.0794,2.0794,2.0794,2.0794,2.0794,2.0794,2.1012,2.1616,2.1757,2.2285,2.3452,2.4184,2.4686,2.4782,2.4822,2.4862,2.5005,2.5005,2.5005,2.5005,2.5005,2.5005,2.5005,2.6404,2.7264,2.7574,2.9027,3.0038,3.0666,3.0845,3.1117,3.1517,3.1559,3.1671,3.18,3.18,3.18,3.18,3.18,3.1856,3.193,3.2073,3.2144,3.2232,3.2371,3.2639,3.2921,3.3243,3.3578,3.3921,3.4293,3.4386,3.4427,3.4561,3.4602,3.4602,3.4602,3.4602,3.4789,0.0,0.0,3.5972,3.6798,3.6967,3.7211,3.8019,3.8169,3.845,3.9295,3.9445,3.9508,3.9602,3.9602,3.9602,3.9626,3.9631,3.9674,3.965,3.9626,3.9927,4.0609,4.0666,4.1022,4.183,4.26,4.305,4.3144,4.3951,4.4383,4.4383,4.4477,4.4515,4.4515,4.4515,4.4515,4.4515,4.4515,4.4515,4.4515,4.4515,4.4515,4.4515,4.4515,4.4515,4.4515,4.4515,4.4402,4.4233,4.4233,4.4233,4.4233,2.0794,2.0794,2.0794,2.0794,2.0794,2.0794,2.0794,2.0794,2.0794,2.0794,2.0794,2.0905,2.1138,2.1859,2.265,2.3615,2.4335,2.4726,2.4782,2.4862,2.4902,2.4886,2.4966,2.4966,2.4902,2.4966,2.5005,2.5005,2.5977,2.6757,2.7306,2.8555,2.9603,3.0418,3.0788,3.1179,3.1559,3.1671,3.1746,3.18,3.18,3.18,3.18,3.18,3.1893,3.202,3.2073,3.2144,0.0,3.2354,3.2705,3.3124,3.3262,3.3643,3.4124,3.434,3.4427,3.4473,3.4561,3.4602,3.4714,0.0,3.5353,3.5559,3.6404,3.6592,3.6817,3.7624,3.7793,3.8056,3.8901,3.9051,3.9164,0.0,3.9602,3.9602,3.9602,3.9602,3.9602,3.9602,3.9602,3.9602,3.9602,4.0009,4.044,4.0778,4.1229,4.1867,4.2712,4.3106,4.3501,4.3989,4.4327,4.4515,4.4515,4.4515,4.4515,4.4515,4.4515,4.4515,4.4515,4.4515,4.4515,4.4515,4.4515,4.4515,4.4515,4.4515,4.4515,4.4515,4.4515,4.4515,4.4515,4.4515,4.4515,4.4515,2.0794,2.0794,2.0794,2.0794,2.0794,2.0794,2.0794,2.0794,2.0794,2.0794,2.0794,2.0794,2.0794,2.1783,2.2755,2.3478,2.4147,2.4618,2.4846,2.4886,2.4942,2.4862,2.4942,2.4926,2.4862,2.4926,2.5005,2.5005,2.5661,2.6235,2.6788,2.8126,2.9085,2.9802,3.0647,3.1201,3.1449,3.1709,3.18,3.18,3.18,3.18,3.18,3.18,3.1893,3.2037,3.2073,3.2197,3.2404,3.2489,3.2862,3.3332,3.3437,3.3805,3.4245,3.4404,3.4641,3.4952,3.5221,3.5277,0.0,3.6066,3.6235,3.6441,3.7249,3.7418,3.7662,3.8488,3.8657,3.8845,3.9489,3.9602,3.9602,3.9602,3.9602,3.9602,3.9602,3.9602,3.9602,3.9602,3.9602,3.9695,3.9896,4.0459,4.0891,4.1116,4.1905,4.2731,4.3595,4.3632,4.3895,4.4496,4.4515,4.4515,4.4515,4.4515,4.4515,4.4515,4.4515,4.4515,4.4515,4.4515,4.4515,4.4515,4.4515,4.4515,4.4515,4.4515,4.4515,4.4515,4.4515,4.4515,4.4515,4.4515,4.4515,4.4515,2.0794,2.0794,2.0794,2.0794,2.0794,2.0794,2.0794,2.0794,2.0794,2.0794,2.0794,2.0794,2.0794,2.1392,2.2102,2.2848,2.3484,2.4139,2.4918,2.4862,2.4862,2.4966,2.5005,2.5005,2.5005,2.5005,2.5005,2.5005,2.5661,2.5942,2.5879,2.7716,2.8544,2.8549,3.0177,3.0971,3.1044,3.1596,3.18,3.18,3.18,3.18,3.18,3.18,3.1856,3.193,3.2073,3.2369,3.2763,3.2813,3.3045,3.3447,3.377,3.3947,3.4074,3.4386,3.5139,3.6028,0.0,0.0,3.7024,3.7042,3.7042,3.7268,3.8075,3.8263,3.8507,3.937,3.9564,3.9583,3.9602,3.9602,3.9602,3.9602,3.9602,3.9602,3.9602,3.9602,3.9602,3.9602,3.9602,3.9896,0.0,4.0797,4.1116,4.1897,4.2769,4.3613,4.4421,4.4477,4.4477,4.4515,4.4515,4.4515,4.4515,4.4515,4.4515,4.4515,4.4515,4.4515,4.4515,4.4515,4.4515,4.4515,4.4515,4.4515,4.4515,4.4515,4.4515,4.4515,4.4515,4.4515,4.4515,4.4515,4.4515,4.4515,2.0827,2.0893,2.0958,2.0827,2.0794,2.0794,2.0794,2.0794,2.0794,2.0794,2.0794,0.0,0.0,0.0,0.0,0.0,2.3238,2.3995,2.4255,2.4674,2.4886,2.4862,2.4926,2.4966,2.4862,2.4926,2.5005,2.5005,2.5243,2.555,2.5942,2.6608,2.7518,2.8715,2.9534,3.0319,3.1083,3.1579,3.18,3.18,3.18,3.18,3.18,3.1839,3.2073,3.2386,0.0,3.2603,3.2749,3.2858,3.3255,3.3743,3.3921,3.4124,3.4493,3.5211,3.6025,3.6761,3.7024,0.0,3.7211,3.7756,3.7906,3.8112,3.8957,3.9145,3.9239,3.9545,3.9602,3.9602,3.9602,3.9602,3.9602,3.9602,3.9602,3.9602,3.9602,3.9602,3.9602,3.9602,3.9602,0.0,0.0,0.0,0.0,4.2806,4.3632,4.4214,4.4496,4.4515,4.4515,4.4515,4.4515,4.4515,4.4515,4.4515,4.4515,4.4515,4.4515,4.4515,4.4515,4.4515,4.4515,4.4515,4.4515,4.4515,4.4515,4.4515,4.4515,4.4515,4.4515,4.4515,4.4515,4.4515,4.4515,4.4515,0.0,2.1087,2.1119,2.099,2.099,0.0,0.0,0.0,0.0,0.0,0.0,0.0,0.0,0.0,0.0,0.0,0.0,2.3654,2.3853,2.4571,2.4966,2.4862,2.4926,2.4966,2.4862,2.4982,2.5005,2.5005,2.5005,2.5243,2.5645,2.607,2.7033,2.8452,2.9291,3.018,3.1123,3.1579,3.18,3.18,3.18,3.1819,3.1856,3.1858,3.2214,0.0,3.2669,3.2876,3.3124,3.3225,3.3625,3.4099,3.4148,3.4563,3.5233,3.64,3.7117,3.7587,3.7906,3.7981,3.8112,3.8638,3.8751,3.8901,3.9489,3.9626,3.9631,3.9631,3.9679,3.9722,3.9722,3.9679,3.9631,3.9631,3.9626,3.9602,3.9602,3.9602,3.9602,3.9602,3.984,0.0,0.0,0.0,0.0,4.3257,4.4064,4.4515,4.4515,4.4515,4.4515,4.4515,4.4515,4.4515,4.4515,4.4515,4.4515,4.4515,4.4515,4.4515,4.4515,4.4515,4.4515,4.4515,4.4515,4.4515,4.4515,4.4515,4.4515,4.4515,4.4515,4.4515,4.4515,4.4515,4.4542,4.4578,0.0,0.0,2.134,0.0,0.0,0.0,0.0,0.0,0.0,0.0,0.0,0.0,0.0,0.0,0.0,0.0,0.0,0.0,2.385,2.4562,2.4974,2.5045,2.5005,2.5005,2.5045,2.5045,2.5045,2.5045,2.5045,2.5045,2.51,2.6154,2.7046,2.7761,2.9302,3.0383,3.1055,3.1528,3.1765,3.18,3.18,3.1856,3.1894,3.1894,3.2266,3.2734,3.2734,3.3184,3.3815,3.3868,3.4124,3.4427,3.4529,0.0,0.0,0.0,0.0,3.8544,3.937,3.9602,3.9602,3.9602,3.9602,3.9602,3.9602,3.9661,3.9717,3.9717,3.9804,3.9889,0.0,0.0,3.9717,3.9717,3.9661,3.9602,3.9602,3.9602,3.962,0.0,0.0,0.0,0.0,0.0,0.0,4.3351,0.0,4.4515,4.4515,4.4515,4.4515,4.4515,4.4515,4.4515,4.4515,4.4515,4.4515,4.4515,4.4515,4.4515,4.4515,4.4515,4.4515,4.4515,4.4515,4.4515,4.4515,4.4515,4.4515,4.4515,4.4515,4.4515,4.4515,4.4515,4.4578,4.4712,0.0,0.0,0.0,0.0,0.0,0.0,0.0,0.0,0.0,0.0,0.0,0.0,0.0,0.0,0.0,0.0,0.0,0.0,2.378,2.4188,2.4756,2.5497,2.5201,2.5107,2.5368,2.5368,2.5519,2.5815,2.5815,2.5815,2.5815,2.6122,2.6636,2.7361,2.8048,2.9076,3.0311,3.0773,3.13,3.18,3.18,3.1856,3.1894,3.202,3.247,3.3093,3.3124,3.356,3.4074,3.3947,0.0,0.0,0.0,3.6077,3.6986,0.0,0.0,3.9314,3.9545,3.9602,3.9602,3.9602,3.9602,3.9626,3.9642,3.9689,3.9717,3.9826,3.9889,3.9889,0.0,0.0,0.0,3.9848,3.9845,0.0,3.9823,3.9823,0.0,0.0,0.0,4.1481,4.2825,4.3163,0.0,0.0,4.4383,4.4515,4.4515,4.4515,4.4515,4.4515,4.4515,4.4515,4.4515,4.4515,4.4515,4.4515,4.4515,4.4515,4.4515,4.4515,4.4515,4.4515,4.4515,4.4515,4.4515,4.4515,4.4515,4.4515,4.4515,4.4515,4.4515,4.4515,4.4616,4.4794,0.0,0.0,0.0,0.0,0.0,0.0,0.0,0.0,0.0,0.0,0.0,0.0,0.0,0.0,0.0,0.0,0.0,0.0,0.0,2.4323,2.5007,2.5892,2.5705,2.5705,2.5892,2.5819,2.5944,2.6158,2.6123,2.6104,2.6104,2.6104,2.6609,2.747,2.7703,2.8727,3.0319,3.0571,3.1127,0.0,0.0,3.1856,3.1984,3.2073,3.257,3.3243,3.3291,3.3698,3.4173,0.0,0.0,3.4701,3.5937,3.6677,3.7324,3.8507,0.0,3.9602,3.9602,3.9602,3.9602,3.9602,3.9602,3.9626,3.967,3.9739,3.9826,3.9954,4.0036,0.0,0.0,0.0,0.0,0.0,0.0,0.0,3.9889,4.0233,4.0628,0.0,4.1732,0.0,4.3391,4.3747,4.4089,0.0,4.4524,4.4515,4.4515,4.4515,4.4515,4.4515,4.4515,4.4515,4.4515,4.4515,4.4515,4.4515,4.4515,4.4515,4.4515,4.4515,4.4515,4.4515,0.0,4.4496,4.4496,4.4486,4.4505,4.4505,4.4505,4.4505,4.4505,4.4505,4.457,4.4688,0.0,0.0,0.0,0.0,0.0,0.0,0.0,0.0,0.0,0.0,2.2248,2.2192,0.0,0.0,0.0,0.0,0.0,0.0,0.0,0.0,2.5363,2.6115,2.6318,2.6419,2.6437,2.6368,2.6317,2.6333,2.6315,2.628,2.6245,2.6245,2.6806,2.7742,2.7742,2.8733,3.0386,3.0489,3.0955,3.1662,3.1765,3.1946,3.2108,0.0,3.2603,3.3321,3.339,3.3752,3.4197,0.0,3.4391,3.4944,3.648,3.7108,3.7568,3.9151,3.9602,3.9602,3.9602,3.9602,3.9602,3.9602,3.9602,3.9607,3.9712,3.9826,3.9933,4.0096,0.0,4.031,4.031,0.0,4.0137,4.0137,0.0,3.9992,4.0106,4.0751,4.1323,4.1529,4.2838,4.3725,4.3815,4.4354,4.4685,4.4685,4.457,4.4515,4.4515,4.4515,4.4515,4.4515,4.4515,4.4515,4.4515,4.4515,4.4515,4.4515,4.4515,4.4515,4.4515,4.4515,4.4515,4.4487,0.0,0.0,4.5171,4.5169,4.5159,4.5159,4.5159,4.4886,4.4539,4.498,4.5199,4.5199,0.0,0.0,0.0,0.0,0.0,0.0,0.0,0.0,0.0,0.0,2.251,2.2192,0.0,0.0,0.0,0.0,0.0,0.0,0.0,0.0,0.0,2.5917,2.6252,2.6505,2.6741,2.674,2.6889,2.7105,2.7169,2.7169,2.7105,2.7105,2.7206,2.7375,2.7375,2.7889,2.8834,2.9455,3.0162,3.0938,3.1541,3.1946,3.2108,3.2108,0.0,0.0,3.3858,3.4105,3.4197,3.4197,3.4777,3.5661,3.6614,3.7478,3.8281,3.9295,3.9602,3.9602,3.9602,3.9602,3.9602,3.9602,3.9602,3.965,3.9823,3.9889,0.0,0.0,4.0272,4.031,4.031,4.0291,0.0,4.0273,0.0,0.0,0.0,0.0,4.1931,0.0,0.0,0.0,0.0,0.0,0.0,0.0,0.0,0.0,4.4515,4.4515,4.4515,4.4515,4.4515,4.4515,4.4515,4.4515,4.4515,4.4515,4.4515,4.4515,4.4515,4.4515,4.4505,4.4486,0.0,0.0,4.8614,4.8633,4.8633,4.8633,4.8633,4.6955,4.4849,4.7604,4.8777,4.877,0.0,0.0,0.0,0.0,0.0,0.0,0.0,2.3168,2.3193,2.3289,2.306,2.2824,2.2669,2.2756,2.2816,0.0,0.0,0.0,0.0,0.0,0.0,2.6177,2.6782,2.7147,2.7258,2.7258,0.0,0.0,0.0,2.7421,2.739,0.0,0.0,0.0,2.739,2.7806,2.8533,2.888,2.9729,3.0837,3.1376,3.1915,3.242,0.0,0.0,0.0,0.0,0.0,3.4245,3.4293,3.5198,3.6384,3.6782,3.7529,3.8469,3.9333,3.9602,3.9602,3.9602,3.9602,3.9602,3.9602,3.9602,3.965,3.9845,0.0,0.0,0.0,4.031,4.031,4.031,0.0,0.0,0.0,0.0,0.0,0.0,0.0,0.0,0.0,0.0,0.0,0.0,0.0,0.0,0.0,0.0,0.0,4.4515,4.4515,4.4515,4.4515,4.4515,4.4515,4.4515,4.4515,4.4515,4.4515,4.4515,4.4515,4.4533,4.5097,4.5303,4.5133,4.5592,0.0,4.8649,4.9262,4.9506,4.9506,4.9506,4.8514,4.7297,4.8901,4.975,4.9986,0.0,0.0,0.0,0.0,0.0,0.0,2.3494,2.3494,2.3494,2.3494,2.3494,2.3407,2.3217,2.3193,2.3168,0.0,0.0,0.0,0.0,0.0,0.0,0.0,0.0,0.0,0.0,0.0,0.0,0.0,0.0,0.0,0.0,0.0,0.0,0.0,0.0,0.0,0.0,2.854,2.9443,0.0,0.0,0.0,0.0,0.0,0.0,0.0,0.0,0.0,0.0,3.4381,3.5506,3.6932,3.6937,3.766,3.8689,3.9389,3.9602,3.9602,3.9602,3.9602,3.9602,3.9602,3.9602,3.965,3.9845,3.9911,0.0,0.0,4.031,4.031,4.031,0.0,0.0,0.0,0.0,0.0,0.0,0.0,0.0,0.0,0.0,0.0,0.0,0.0,0.0,0.0,0.0,0.0,4.4515,4.4515,4.4515,4.4515,4.4515,4.4515,4.4515,4.4515,4.4515,4.4515,4.4515,4.4515,4.4552,4.5613,4.612,4.6186,4.6859,0.0,0.0,4.9133,4.9509,4.9509,4.9509,4.9509,4.9509,4.9509,4.9824,5.0218,0.0,0.0,0.0,0.0,0.0,0.0,2.3494,2.3494,2.3494,2.3494,2.3494,2.3494,2.3471,2.3453,2.3471,0.0,0.0,0.0,0.0,0.0,0.0,0.0,0.0,0.0,0.0,0.0,0.0,0.0,0.0,0.0,0.0,0.0,0.0,0.0,0.0,0.0,0.0,0.0,0.0,0.0,0.0,0.0,0.0,0.0,0.0,0.0,0.0,0.0,0.0,0.0,0.0,3.6986,3.6986,3.8072,3.9427,3.9558,0.0,0.0,3.9602,3.9602,3.9602,3.9602,3.9602,3.965,3.9845,0.0,0.0,4.0234,4.031,4.031,4.031,4.031,4.054,4.1266,0.0,4.1895,0.0,0.0,0.0,0.0,0.0,0.0,0.0,0.0,0.0,0.0,0.0,0.0,0.0,4.4515,4.4515,4.4515,4.4515,4.4515,4.4515,4.4515,4.4515,4.4515,4.4515,4.4515,4.4533,4.5378,4.644,4.7615,0.0,0.0,0.0,4.9471,4.9509,4.9509,4.9509,4.9509,4.9509,4.9509,4.972,5.002,0.0,0.0,0.0,0.0,0.0,0.0,2.3664,2.3707,2.3747,2.3747,2.3894,2.3935,2.381,2.3855,2.381,2.3522,2.3494,0.0,0.0,0.0,0.0,0.0,0.0,0.0,0.0,0.0,0.0,0.0,0.0,0.0,0.0,0.0,0.0,0.0,0.0,0.0,0.0,0.0,0.0,0.0,0.0,0.0,0.0,0.0,0.0,0.0,0.0,0.0,0.0,0.0,0.0,0.0,3.7033,3.8196,0.0,0.0,3.9602,3.9602,3.9602,3.9602,3.9602,3.9602,3.9631,3.9689,3.9867,0.0,4.0057,4.0253,4.031,4.031,4.031,4.031,4.0559,4.1361,4.1437,0.0,0.0,0.0,0.0,0.0,0.0,0.0,0.0,0.0,0.0,0.0,0.0,0.0,0.0,4.4515,4.4515,4.4515,4.4515,4.4515,4.4515,4.4515,4.4515,4.4515,4.4515,4.4515,4.4533,4.5341,4.6279,4.7379,0.0,0.0,0.0,4.9509,4.9509,4.9509,4.9509,4.9509,4.9509,4.9687,4.9844,5.0001,0.0,0.0,0.0,0.0,0.0,2.3771,2.3899,2.3978,2.3999,2.4059,2.4248,2.4321,2.4154,2.4192,2.4096,2.3768,2.3656,0.0,0.0,0.0,0.0,0.0,0.0,0.0,0.0,0.0,2.7979,2.7847,2.7847,0.0,0.0,0.0,0.0,0.0,0.0,0.0,0.0,0.0,0.0,0.0,0.0,0.0,0.0,0.0,0.0,0.0,0.0,0.0,0.0,0.0,0.0,0.0,0.0,3.822,3.9546,0.0,3.9602,3.9602,3.9602,3.9602,3.9602,3.9602,3.9684,3.9788,0.0,0.0,4.0215,4.0362,4.0363,4.0327,4.0327,4.031,4.0654,4.1705,4.1818,4.2349,4.4088,0.0,0.0,0.0,0.0,0.0,0.0,0.0,0.0,0.0,0.0,0.0,0.0,4.4515,4.4515,4.4515,4.4515,4.4515,4.4515,4.4515,4.4515,4.4515,4.4515,4.4515,4.4533,4.5341,4.6035,4.6692,0.0,0.0,0.0,4.9408,4.9521,4.9509,4.9509,4.9509,4.9509,4.9717,4.9834,4.9928,0.0,0.0,0.0,0.0,0.0,2.3899,2.4154,2.4192,2.4266,2.4472,2.4505,2.4505,2.4505,2.4373,2.4303,2.4284,2.3998,0.0,0.0,0.0,0.0,0.0,0.0,0.0,2.8201,2.8219,2.8219,2.8201,2.8201,2.8246,2.8394,0.0,0.0,0.0,0.0,0.0,0.0,0.0,0.0,0.0,0.0,0.0,0.0,0.0,0.0,0.0,0.0,0.0,0.0,0.0,0.0,0.0,0.0,3.8268,3.9602,3.9602,3.9602,3.9602,3.9602,3.9602,3.9602,3.9602,3.9739,3.9922,0.0,0.0,4.0442,4.0574,4.0485,4.0406,4.0406,4.0344,4.0864,4.2526,4.2794,4.3326,4.4878,0.0,0.0,0.0,0.0,0.0,0.0,0.0,0.0,0.0,0.0,0.0,0.0,4.4515,4.4515,4.4515,4.4515,4.4515,4.4515,4.4515,4.4515,4.4515,4.4515,4.4515,4.4533,4.5341,4.5697,0.0,0.0,0.0,0.0,4.9149,4.9495,4.9509,4.9509,4.9509,4.9509,4.949,4.9612,4.9721,0.0,0.0,0.0,0.0,0.0,0.0,2.4173,2.4248,2.4336,2.454,2.4697,2.4741,2.4657,2.4559,2.4512,2.4512,2.4154,0.0,0.0,0.0,0.0,0.0,0.0,0.0,2.8201,2.83,2.83,2.8201,2.8299,2.836,2.8394,2.8496,2.8597,0.0,0.0,0.0,0.0,0.0,0.0,0.0,0.0,0.0,0.0,0.0,0.0,0.0,0.0,0.0,0.0,0.0,0.0,0.0,0.0,0.0,0.0,3.9602,3.9602,3.9626,3.9754,3.9703,3.9602,3.9661,3.9781,3.9958,4.0196,0.0,4.0434,4.0574,4.0559,4.0515,4.0422,4.0392,4.0898,4.2546,4.2794,4.3366,0.0,0.0,0.0,0.0,0.0,0.0,0.0,0.0,0.0,0.0,0.0,0.0,0.0,4.4515,4.4515,4.4515,4.4515,4.4515,4.4515,4.4515,4.4515,4.4515,4.4515,4.4515,4.4515,4.4777,0.0,0.0,0.0,0.0,0.0,4.8085,4.8348,4.83,4.7932,4.7564,4.7264,4.7362,4.7692,4.814,0.0,0.0,0.0,0.0,0.0,0.0,2.4265,2.4372,2.4505,2.479,2.4934,2.4974,2.4898,2.4775,2.47,2.4639,2.4338,0.0,0.0,0.0,0.0,0.0,0.0,0.0,2.8414,2.8576,2.8576,2.8414,2.867,2.8795,2.879,2.8911,2.9027,2.9153,2.9049,2.8983,0.0,0.0,0.0,0.0,0.0,0.0,3.4386,0.0,0.0,0.0,0.0,0.0,0.0,0.0,0.0,0.0,0.0,0.0,0.0,0.0,3.9727,3.965,3.9848,3.987,3.9848,3.9878,4.0022,4.0176,0.0,0.0,4.061,4.0694,4.07,4.0648,4.0579,4.0469,4.0929,4.2565,4.2814,4.3386,0.0,0.0,0.0,0.0,0.0,0.0,0.0,0.0,0.0,0.0,0.0,0.0,0.0,0.0,4.4515,4.4515,4.4515,4.4515,4.4515,4.4515,4.4515,4.4515,4.4515,4.4515,4.4515,4.4515,0.0,0.0,0.0,0.0,0.0,4.6872,4.7191,4.7454,4.7124,4.6794,4.6513,4.661,4.6919,4.7345,0.0,0.0,0.0,0.0,0.0,0.0,0.0,2.4556,2.4746,2.5156,2.5191,2.5191,2.5191,2.5013,2.4847,2.4738,2.4526,0.0,0.0,0.0,0.0,0.0,0.0,2.8834,2.8834,2.9034,2.9016,2.8839,2.9235,2.9416,2.9414,2.9436,2.9589,2.9876,2.9626,2.9514,2.9587,3.0407,3.1166,3.1924,3.2991,3.3818,0.0,0.0,0.0,0.0,0.0,0.0,0.0,0.0,0.0,0.0,0.0,0.0,0.0,0.0,0.0,0.0,0.0,4.004,4.0177,4.0211,4.0342,4.0511,4.0604,0.0,0.0,4.0907,4.0837,4.08,4.08,4.0593,4.0943,4.2633,4.2852,0.0,0.0,0.0,0.0,0.0,0.0,0.0,0.0,0.0,0.0,0.0,0.0,0.0,0.0,0.0,4.4515,4.4515,4.4515,4.4515,4.4515,4.4515,4.4515,4.4515,4.4515,4.4515,4.4515,4.4515,0.0,0.0,0.0,0.0,0.0,4.5604,4.6092,4.6824,4.6824,4.6824,4.6824,4.6824,4.6911,4.7032,0.0,0.0,0.0,0.0,0.0,0.0,0.0,0.0,0.0,0.0,2.5191,2.5191,2.5191,2.5013,2.4888,0.0,0.0,0.0,0.0,0.0,0.0,0.0,2.903,2.9079,2.9016,2.9235,2.9318,2.9256,2.9514,2.9626,2.9645,2.9734,2.982,2.9907,2.9839,2.9822,2.9899,3.1372,3.209,3.2392,3.3923,3.4601,0.0,0.0,0.0,0.0,3.4811,3.4831,0.0,0.0,0.0,0.0,0.0,0.0,0.0,0.0,4.002,4.008,4.012,0.0,4.0042,4.0302,4.038,4.0487,0.0,4.0713,0.0,0.0,0.0,4.08,4.08,4.0662,4.1074,4.265,4.2756,0.0,0.0,0.0,0.0,0.0,0.0,0.0,0.0,0.0,0.0,0.0,0.0,0.0,0.0,0.0,4.4515,4.4515,4.4515,4.4515,4.4515,4.4515,4.4515,4.4515,4.4515,4.4515,4.4515,4.4515,0.0,0.0,0.0,0.0,4.4796,4.4796,4.4909,4.5097,4.5097,4.5097,4.5097,4.5097,4.5161,4.5297,0.0,0.0,0.0,0.0,0.0,0.0,0.0,0.0,0.0,0.0,2.5191,2.5191,2.5191,2.5113,2.4974,0.0,0.0,0.0,0.0,0.0,0.0,2.8897,2.9048,2.9141,2.9191,2.9378,2.9476,2.9476,2.9786,2.9888,2.9805,2.9972,3.0034,3.0034,3.0022,2.9956,2.9983,3.1288,3.2065,3.252,3.3828,0.0,0.0,0.0,0.0,0.0,3.4982,3.4944,0.0,3.473,3.538,3.6387,0.0,0.0,0.0,0.0,4.012,4.01,4.0213,4.0212,4.0247,4.0526,4.061,4.0662,4.0796,4.0784,0.0,0.0,0.0,4.0846,4.08,4.0675,4.1104,4.265,0.0,0.0,0.0,0.0,0.0,0.0,0.0,0.0,0.0,0.0,0.0,0.0,0.0,0.0,0.0,0.0,4.4515,4.4515,4.4515,4.4515,4.4515,4.4515,4.4515,4.4515,4.4515,4.4515,4.4515,4.4515,4.4515,0.0,0.0,0.0,4.4515,4.4515,4.4515,4.4515,4.4515,4.4515,4.4515,4.4515,4.4578,4.4738,0.0,0.0,0.0,0.0,0.0,0.0,0.0,0.0,0.0,0.0,0.0,0.0,0.0,0.0,0.0,0.0,0.0,0.0,0.0,0.0,2.8176,2.9007,2.9089,2.9181,2.9334,2.957,2.9698,2.9698,3.0034,3.0113,2.9956,3.0128,3.0204,3.0204,3.028,3.0243,3.0203,3.1206,3.2022,3.2707,3.358,0.0,0.0,0.0,0.0,0.0,0.0,0.0,0.0,3.485,3.5419,3.6356,3.7383,0.0,0.0,0.0,0.0,0.0,4.0248,4.0367,4.0492,4.073,4.0826,4.0877,4.0878,4.0849,0.0,0.0,0.0,0.0,0.0,4.0675,0.0,0.0,0.0,0.0,0.0,0.0,0.0,0.0,0.0,0.0,0.0,0.0,0.0,0.0,0.0,0.0,0.0,0.0,0.0,4.4515,4.4515,4.4515,4.4515,4.4515,4.4515,4.4515,4.4515,4.4515,4.4515,4.4515,4.4515,0.0,0.0,0.0,4.4515,4.4515,4.4515,4.4515,4.4515,4.4515,4.4515,4.4524,4.4605,4.4719,0.0,0.0,0.0,0.0,0.0,0.0,0.0,0.0,0.0,0.0,0.0,0.0,0.0,0.0,0.0,0.0,0.0,0.0,0.0,2.7346,2.8224,2.9212,2.9415,2.9532,2.9551,2.9921,3.0113,3.0113,3.0171,3.0171,3.0157,3.019,3.0204,3.0223,3.0954,3.1264,3.1359,3.2905,3.363,3.384,3.4642,0.0,0.0,0.0,0.0,0.0,0.0,0.0,0.0,3.4961,3.502,3.5508,3.7175,0.0,0.0,0.0,0.0,0.0,4.03,4.023,4.0248,4.0623,4.0718,4.075,4.0792,4.0629,4.0545,0.0,0.0,0.0,0.0,0.0,0.0,0.0,0.0,0.0,0.0,0.0,0.0,0.0,0.0,0.0,0.0,0.0,0.0,0.0,0.0,0.0,0.0,0.0,0.0,4.4515,4.4515,4.4515,4.4515,4.4515,4.4515,4.4515,4.4515,4.4515,4.4515,4.4515,4.4515,0.0,0.0,4.4515,4.4515,4.4515,4.4515,4.4515,4.4515,4.4515,4.4496,4.4632,4.4685,4.4738,0.0,0.0,0.0,0.0,0.0,0.0,0.0,0.0,0.0,0.0,0.0,0.0,0.0,0.0,0.0,0.0,0.0,0.0,0.0,2.7862,2.8817,2.9275,2.9608,2.9751,2.9751,2.9937,3.0079,3.0204,3.0204,3.0204,3.0204,3.0682,3.0873,3.0892,3.1771,3.2153,3.2229,3.3471,3.3987,3.4063,0.0,0.0,0.0,0.0,0.0,0.0,0.0,0.0,0.0,0.0,3.5114,3.5362,3.6734,0.0,0.0,0.0,0.0,0.0,4.0492,4.0412,4.0345,4.0501,4.0549,4.0549,4.0582,4.054,4.0545,0.0,0.0,0.0,0.0,0.0,0.0,0.0,0.0,0.0,0.0,0.0,0.0,0.0,0.0,0.0,0.0,0.0,0.0,0.0,0.0,0.0,0.0,0.0,0.0,0.0,4.4515,4.4515,4.4515,4.4515,4.4515,4.4515,4.4515,4.4515,4.4515,4.4515,4.4515,4.4515,0.0,4.4515,4.4515,4.4515,4.4515,4.4515,4.4515,4.4524,4.4632,4.4764,4.4846,4.4919,0.0,0.0,0.0,0.0,0.0,0.0,0.0,0.0,0.0,0.0,0.0,0.0,0.0,0.0,0.0,0.0,0.0,0.0,0.0,2.832,2.9334,2.9435,2.9734,2.9888,2.9888,2.9956,3.0049,3.0204,3.0204,3.03,3.051,3.1178,3.156,3.1752,3.263,3.3012,3.307,3.3926,3.4289,3.4346,0.0,0.0,0.0,0.0,0.0,0.0,0.0,0.0,0.0,0.0,0.0,0.0,0.0,0.0,0.0,3.9197,4.0011,4.0574,4.0668,4.0577,4.0438,4.0408,4.0408,4.0412,4.038,4.045,4.0534,0.0,0.0,0.0,0.0,0.0,0.0,0.0,0.0,0.0,0.0,0.0,0.0,0.0,0.0,0.0,0.0,0.0,0.0,0.0,0.0,0.0,0.0,0.0,0.0,0.0,4.4515,4.4515,4.4515,4.4515,4.4515,4.4515,4.4515,4.4515,4.4515,4.4515,4.4515,4.4515,4.4515,4.4515,4.4515,4.4515,4.4515,4.4515,4.4515,4.4605,4.4745,4.4895,4.5014,4.5148,0.0,0.0,0.0,0.0,0.0,0.0,0.0,0.0,0.0,0.0,0.0,0.0,0.0,0.0,0.0,0.0,0.0,0.0,2.6879,2.8383,2.9474,2.9839,2.9888,2.9888,2.9888,3.0079,3.019,3.0204,3.0204,3.0605,3.1408,3.1408,3.1847,3.2634,3.3528,3.391,3.3949,3.4837,3.5216,3.5232,3.5405,0.0,0.0,0.0,0.0,0.0,0.0,0.0,0.0,0.0,0.0,0.0,0.0,0.0,3.8035,3.9247,4.0106,4.0681,4.07,4.0515,4.0321,4.038,4.0442,4.0466,4.0341,4.0308,0.0,4.0389,0.0,0.0,0.0,0.0,0.0,0.0,0.0,0.0,0.0,0.0,0.0,0.0,0.0,0.0,0.0,0.0,0.0,0.0,0.0,0.0,0.0,0.0,0.0,0.0,0.0,4.4515,4.4515,4.4515,4.4515,4.4515,4.4515,4.4515,4.4515,4.4515,4.4515,4.4515,4.4515,4.4515,4.4515,4.4515,4.4515,4.4515,4.4515,4.4659,4.4895,4.5033,4.517,4.5297,0.0,0.0,0.0,0.0,0.0,0.0,0.0,0.0,0.0,0.0,0.0,0.0,0.0,0.0,0.0,0.0,0.0,0.0,2.674,2.8443,2.9533,2.9698,2.9953,3.0098,3.0098,3.0157,3.0204,3.0204,3.0739,3.1178,3.1522,3.2535,3.32,3.354,3.4419,3.4799,3.4829,3.517,3.5304,3.53,3.5355,3.5438,0.0,0.0,0.0,0.0,0.0,0.0,0.0,0.0,3.5412,3.5304,3.5836,3.6485,3.7276,3.8449,3.9372,4.0134,4.0633,4.0629,4.0466,4.0353,4.0356,0.0,0.0,4.0342,4.036,4.0344,4.0326,0.0,0.0,0.0,0.0,0.0,0.0,0.0,0.0,0.0,0.0,0.0,0.0,0.0,0.0,0.0,0.0,0.0,0.0,0.0,0.0,0.0,0.0,0.0,0.0,4.4515,4.4515,4.4515,4.4515,4.4515,4.4515,4.4515,4.4515,4.4515,4.4515,4.4515,4.4515,4.4515,4.4515,4.4515,4.4515,4.4515,4.4685,4.4796,4.4919,4.5148,4.5275,4.5297,0.0,0.0,0.0,0.0,0.0,0.0,0.0,0.0,0.0,0.0,0.0,0.0,0.0,0.0,0.0,0.0,0.0,0.0,2.686,2.8577,2.9662,2.9786,3.0049,3.0204,3.0204,3.0204,3.0204,3.0204,3.1064,3.1771,3.2306,3.3452,3.4152,3.4431,3.5025,3.5289,3.5315,3.5315,3.533,3.533,3.5383,3.5457,0.0,0.0,0.0,0.0,0.0,0.0,0.0,0.0,3.5432,3.5311,3.5546,3.6112,3.6818,3.7616,3.8636,3.9619,4.014,4.0409,4.0481,4.0353,0.0,0.0,4.0323,4.0341,4.0362,4.031,4.031,0.0,0.0,0.0,0.0,0.0,0.0,0.0,0.0,0.0,0.0,0.0,0.0,0.0,0.0,0.0,0.0,0.0,0.0,0.0,0.0,0.0,0.0,0.0,4.4383,4.4515,4.4515,4.4515,4.4515,4.4515,4.4515,4.4515,4.4515,4.4515,4.4515,4.4515,4.4515,4.4515,4.4515,4.4515,4.4524,4.4578,4.4796,4.4938,4.4991,4.5213,4.5297,4.5297,0.0,0.0,0.0,0.0,0.0,0.0,0.0,0.0,2.5191,2.5191,2.5191,0.0,0.0,0.0,0.0,0.0,0.0,0.0,2.7399,2.8793,2.9786,3.0171,3.0204,3.0204,3.0204,3.0204,3.0204,3.0204,3.1083,3.2363,3.3987,3.4006,3.4477,3.5312,3.5312,3.5289,3.5315,3.5364,3.5412,3.5407,3.5538,3.5593,3.5616,0.0,0.0,0.0,0.0,0.0,0.0,0.0,3.5451,3.5422,3.5635,3.6211,3.6794,3.6875,3.804,3.9268,3.9196,3.972,4.0304,4.038,0.0,0.0,4.0406,4.0362,4.031,4.031,0.0,4.031,0.0,0.0,0.0,0.0,0.0,0.0,0.0,0.0,0.0,0.0,0.0,0.0,0.0,0.0,0.0,0.0,0.0,0.0,0.0,0.0,0.0,0.0,4.4064,4.4496,4.4496,4.4496,4.4496,4.4496,4.4515,4.4515,4.4515,4.4515,4.4515,4.4515,4.4515,4.4515,4.4515,4.4515,4.4578,4.4712,4.4846,4.4967,4.5125,4.5235,4.5297,4.5297,0.0,0.0,0.0,0.0,0.0,0.0,0.0,0.0,2.5191,2.5191,2.5191,0.0,0.0,0.0,0.0,0.0,0.0,0.0,2.8075,2.9183,2.9872,2.9988,3.0128,3.0204,3.0204,3.0204,3.0472,3.1045,3.1923,3.2917,3.4006,3.463,3.5044,3.5285,3.5335,3.5398,3.5446,3.546,3.546,3.5474,3.5509,3.5528,3.5528,0.0,0.0,0.0,0.0,0.0,0.0,0.0,0.0,0.0,3.5449,3.5636,3.5949,3.6626,3.716,3.7783,3.8911,3.9212,0.0,4.0154,0.0,0.0,0.0,4.0362,0.0,0.0,0.0,0.0,0.0,0.0,0.0,0.0,0.0,0.0,0.0,0.0,0.0,0.0,0.0,0.0,0.0,0.0,0.0,0.0,0.0,0.0,0.0,0.0,0.0,0.0,4.2637,4.2723,4.2723,4.3351,4.3651,4.3651,4.4233,4.4515,4.4515,4.4515,4.4515,4.4515,4.4515,4.4551,4.4659,4.4745,4.4764,4.4719,4.4943,4.5061,4.5125,4.5235,4.5297,4.5297,0.0,0.0,0.0,0.0,0.0,0.0,0.0,0.0,2.5175,2.521,2.5191,2.5191,0.0,0.0,0.0,0.0,0.0,0.0,2.8547,2.9415,2.994,3.0019,3.0142,3.0204,3.0204,3.0204,3.0758,3.1923,3.2473,3.3349,3.4534,3.5044,3.532,3.533,3.5379,3.5446,3.5493,3.5493,3.5493,3.5493,3.5493,3.5493,3.5493,0.0,0.0,0.0,0.0,0.0,0.0,0.0,0.0,0.0,3.5383,3.5412,3.5489,3.6012,3.6378,3.6799,3.7745,3.8099,0.0,3.9452,3.9584,3.9619,4.0177,0.0,0.0,0.0,0.0,0.0,0.0,0.0,0.0,0.0,0.0,0.0,0.0,0.0,0.0,0.0,0.0,0.0,0.0,0.0,0.0,0.0,0.0,0.0,0.0,0.0,0.0,0.0,4.1849,4.1991,4.1991,4.2524,4.2787,4.2787,4.3632,4.4054,4.4108,4.4392,4.4542,4.4578,4.4632,4.4693,4.4789,4.487,4.487,4.487,4.5057,4.5125,4.5192,4.5275,4.5297,4.5297,0.0,0.0,2.4698,2.4692,0.0,0.0,0.0,0.0,2.5126,2.518,2.5191,2.5191,0.0,0.0,0.0,0.0,0.0,0.0,2.8949,2.9582,3.0003,3.0185,3.0204,3.0204,3.0204,3.0204,3.1026,3.2691,3.2771,3.3647,3.5312,3.5285,3.535,3.5412,3.5412,3.5446,3.5493,3.5493,3.5493,3.5493,3.5493,3.5493,3.5493,3.5493,0.0,0.0,0.0,0.0,0.0,0.0,0.0,0.0,3.5369,3.5398,3.535,3.5251,3.567,3.6213,3.6236,0.0,0.0,3.846,3.8766,0.0,0.0,0.0,0.0,0.0,0.0,0.0,0.0,0.0,0.0,0.0,0.0,0.0,0.0,0.0,0.0,0.0,0.0,0.0,0.0,0.0,0.0,0.0,0.0,0.0,0.0,0.0,0.0,0.0,4.1417,4.1766,4.1766,4.1841,4.1905,0.0,4.2769,4.3243,4.341,4.4183,4.4578,4.4738,4.4846,4.4895,4.4895,4.4919,4.4991,4.5103,4.5125,4.5192,4.5297,4.5297,4.5297,4.5297,0.0,0.0,2.4631,2.4698,0.0,0.0,0.0,0.0,0.0,2.518,0.0,0.0,0.0,0.0,0.0,0.0,0.0,0.0,2.9822,3.0061,3.0157,3.0204,3.0204,3.0204,3.0204,3.0204,3.1026,3.2691,3.2707,3.3616,3.5312,3.5285,3.535,3.5412,3.546,3.5493,3.5493,3.5493,3.5493,3.5493,3.5493,3.5493,3.5493,3.5493,3.5493,0.0,0.0,0.0,0.0,0.0,0.0,0.0,3.5324,3.5293,3.5242,3.5207,3.5274,3.551,3.6231,3.6445,0.0,0.0,3.844,3.9012,0.0,0.0,0.0,0.0,0.0,0.0,0.0,0.0,0.0,0.0,0.0,0.0,0.0,0.0,0.0,0.0,0.0,0.0,0.0,0.0,0.0,0.0,0.0,0.0,0.0,0.0,0.0,3.9858,4.0027,4.0103,4.0103,4.0741,4.106,0.0,4.1989,4.2435,4.2517,4.3981,4.4738,4.487,4.4991,4.501,4.4919,4.5125,4.517,4.5125,4.5213,4.5256,4.5297,4.5297,4.5297,4.5297,0.0,0.0,0.0,0.0,0.0,0.0,0.0,0.0,0.0,0.0,0.0,0.0,0.0,0.0,0.0,0.0,2.7701,2.8408,3.0089,3.0204,3.0204,3.0204,3.0204,3.0204,3.0204,3.0204,3.1026,3.2691,3.2691,3.3582,3.5312,3.5285,3.535,3.5412,3.5446,3.546,3.5493,3.5493,3.5493,3.5493,3.5493,3.5493,3.5493,3.5493,3.5493,3.5493,3.5493,0.0,0.0,0.0,0.0,0.0,0.0,0.0,3.5193,3.516,3.5127,3.5224,3.5697,0.0,0.0,3.6785,0.0,0.0,0.0,0.0,0.0,0.0,0.0,0.0,0.0,0.0,0.0,0.0,0.0,0.0,0.0,0.0,0.0,0.0,0.0,0.0,0.0,0.0,0.0,0.0,0.0,0.0,0.0,3.9637,3.9637,3.9637,3.9703,3.9727,3.9637,4.0118,4.0368,4.0368,4.1269,4.1921,4.2427,4.3696,4.4521,4.4991,4.5148,4.5148,4.5103,4.5235,4.5275,4.5192,4.5275,4.5297,4.5297,4.5297,4.5297,4.5297,0.0,0.0,0.0,0.0,0.0,0.0,0.0,0.0,0.0,0.0,0.0,0.0,0.0,0.0,0.0,0.0,0.0,0.0,3.0089,3.0204,3.0204,3.0204,3.0204,3.0204,3.0204,3.0204,3.1026,3.2691,3.2691,3.3601,3.5277,3.5304,3.535,3.5412,3.5412,3.5446,3.5493,3.5493,3.5493,3.5493,3.5493,3.5493,3.5493,3.5493,3.5493,3.5493,3.5493,3.5493,3.5474,3.5364,0.0,0.0,0.0,0.0,3.5193,3.5145,3.511,3.5092,3.511,0.0,3.5134,3.5911,3.6819,0.0,0.0,0.0,0.0,0.0,0.0,0.0,0.0,0.0,0.0,0.0,0.0,0.0,0.0,0.0,0.0,0.0,0.0,0.0,0.0,0.0,0.0,0.0,0.0,0.0,3.9693,3.9693,3.9717,3.9739,3.9826,3.9867,3.9739,3.9826,3.9889,3.9908,4.0593,4.1459,4.2441,4.3088,4.3945,4.4919,4.5025,4.5163,4.5297,4.5297,4.5297,4.5297,4.5297,4.5297,4.5297,4.5297,4.5297,4.5297,0.0,0.0,0.0,0.0,0.0,0.0,0.0,0.0,0.0,0.0,2.5114,2.5139,0.0,0.0,2.6632,2.7606,2.8338,2.9172,3.0128,0.0,0.0,3.0204,3.0204,3.0204,3.0204,3.0204,3.1026,3.2691,3.2691,3.3566,3.5209,3.5277,3.5339,3.5412,3.5412,3.5446,3.5493,3.5493,3.5493,3.5493,3.5493,3.5493,3.5493,3.5493,3.5493,3.5493,3.5493,3.5493,3.5493,3.5493,3.5398,0.0,0.0,0.0,0.0,3.5193,3.5162,3.511,0.0,0.0,3.5196,0.0,3.6014,3.6661,0.0,0.0,0.0,0.0,0.0,0.0,0.0,0.0,0.0,0.0,0.0,0.0,0.0,0.0,0.0,0.0,0.0,0.0,0.0,0.0,0.0,0.0,0.0,0.0,3.9693,3.9693,3.9739,3.9867,3.9889,3.9889,3.9867,3.9889,3.9889,3.9889,4.0129,4.0727,4.1647,4.1762,4.2659,4.4168,4.4168,4.4609,4.5297,4.5297,4.5297,4.5297,4.5297,4.5297,4.5297,4.5297,4.5297,4.5297,0.0,0.0,0.0,0.0,0.0,0.0,0.0,0.0,0.0,0.0,0.0,2.5285,0.0,2.6168,2.6937,2.8261,2.8701,2.9254,3.0128,3.0204,3.0204,3.0204,3.0204,3.0204,3.0204,3.0204,3.1026,3.2691,3.2691,3.3551,3.5209,3.5226,3.5293,3.5339,3.5339,3.5369,3.5427,3.5427,3.546,3.5493,3.5493,3.5493,3.5427,3.5427,3.5412,3.5398,3.5398,3.5398,3.5398,3.5388,3.5339,3.5289,3.5273,0.0,0.0,0.0,3.5176,3.516,3.5193,3.5209,3.5209,0.0,3.5496,3.5783,0.0,0.0,0.0,0.0,0.0,0.0,0.0,0.0,0.0,0.0,0.0,0.0,0.0,0.0,0.0,0.0,0.0,0.0,0.0,0.0,0.0,0.0,0.0,3.9665,3.9693,3.9781,3.9826,3.9889,4.0036,4.0096,4.0015,4.0096,4.0137,4.0137,4.0176,4.0425,4.0826,4.0826,4.1743,4.3348,4.3806,4.4227,4.4609,4.5105,4.5297,4.5297,4.5297,4.5297,4.5297,4.5297,4.5297,4.5297,0.0,0.0,0.0,0.0,0.0,0.0,0.0,0.0,0.0,0.0,0.0,0.0,0.0,0.0,0.0,0.0,2.9074,2.9489,3.0166,3.0204,3.0204,3.0204,3.0204,3.0204,3.0204,3.0414,3.1236,3.2691,3.2936,3.3777,3.5209,3.5209,3.5226,3.5277,3.5277,3.5324,3.5379,3.5379,3.5412,3.546,3.546,3.5427,3.5364,3.5369,3.532,3.5285,3.5285,3.5285,3.527,3.5289,0.0,0.0,0.0,0.0,0.0,0.0,0.0,0.0,0.0,0.0,3.5209,3.5209,3.5209,3.5209,0.0,0.0,0.0,0.0,0.0,0.0,0.0,0.0,0.0,0.0,0.0,0.0,0.0,0.0,0.0,0.0,0.0,0.0,0.0,0.0,0.0,0.0,0.0,3.9689,3.9693,3.9804,3.9848,3.9889,4.0137,4.0215,4.0117,4.0234,4.031,4.031,4.031,4.031,4.031,4.031,4.0979,4.2221,4.3023,4.3615,4.4055,4.4704,4.5105,4.5297,4.5297,4.5297,4.5297,4.5297,4.5297,4.5297,0.0,0.0,0.0,0.0,0.0,0.0,0.0,0.0,0.0,0.0,0.0,0.0,2.6166,2.745,2.8428,2.8764,2.9569,3.0075,3.0185,3.0204,3.0204,3.0204,3.0204,0.0,3.0204,3.1006,3.1847,3.2691,3.3528,3.4369,3.5209,3.5209,3.5209,3.5209,3.5277,3.5289,3.5315,3.5364,3.5364,3.5315,3.5379,3.5364,3.53,3.5223,3.5209,3.5209,3.5209,0.0,0.0,0.0,0.0,0.0,0.0,0.0,0.0,0.0,0.0,0.0,0.0,3.5209,0.0,3.5209,0.0,0.0,0.0,0.0,0.0,0.0,0.0,0.0,0.0,0.0,0.0,0.0,0.0,0.0,0.0,0.0,0.0,0.0,0.0,0.0,0.0,0.0,0.0,0.0,0.0,3.9631,3.9693,3.9717,3.9781,3.9889,4.0036,4.0117,4.0117,4.0234,4.031,4.031,4.031,4.031,4.031,4.031,4.0348,4.0482,4.1285,4.2526,4.4017,4.4055,4.4551,4.5297,4.5297,4.5297,4.5297,4.5297,4.5297,4.5297,0.0,0.0,0.0,0.0,0.0,0.0,0.0,0.0,0.0,0.0,0.0,0.0,0.0,2.8204,2.8785,2.9447,2.9785,2.9972,3.0003,3.0003,3.0003,3.0003,3.0083,3.0132,3.0132,3.1016,3.1885,3.2691,3.3566,3.4407,3.5209,3.5209,3.5209,3.5209,3.5226,3.5155,3.5049,3.5066,3.5102,3.5102,3.4906,3.4887,3.4978,3.4889,0.0,0.0,0.0,0.0,0.0,0.0,0.0,0.0,0.0,0.0,0.0,0.0,0.0,0.0,0.0,0.0,0.0,3.5209,0.0,0.0,0.0,0.0,0.0,0.0,0.0,0.0,0.0,0.0,0.0,0.0,0.0,0.0,0.0,0.0,0.0,0.0,0.0,0.0,0.0,0.0,0.0,0.0,0.0,0.0,3.8014,3.8105,3.8191,3.8213,3.8401,3.8518,3.8555,3.9165,3.947,3.947,4.0043,4.031,4.031,4.031,4.031,4.0329,4.0597,4.1361,4.245,4.3004,4.373,4.4475,4.4475,4.4819,4.5297,4.5297,4.5297,4.5297,0.0,0.0,0.0,0.0,0.0,2.4351,2.453,2.5239,2.5752,2.5775,0.0,0.0,0.0,0.0,2.8839,2.9605,2.9786,2.9874,2.9874,2.9891,2.9891,2.9874,2.9956,3.0155,3.0424,3.1074,3.1943,3.3032,3.362,3.4306,3.5107,3.5143,3.5107,3.5035,3.5089,3.5035,3.4889,3.4832,3.4813,3.4813,3.4597,3.4637,3.4813,0.0,0.0,0.0,0.0,0.0,0.0,0.0,0.0,0.0,0.0,0.0,0.0,0.0,0.0,0.0,3.5035,0.0,0.0,0.0,0.0,0.0,0.0,0.0,0.0,0.0,0.0,0.0,0.0,0.0,0.0,0.0,0.0,0.0,0.0,0.0,0.0,0.0,0.0,0.0,0.0,0.0,0.0,0.0,0.0,0.0,3.7099,3.7171,3.7257,3.73,3.7469,3.7585,3.7677,3.8248,3.8553,3.8572,3.9451,3.9871,3.9871,4.0177,4.031,4.031,4.031,4.0769,4.1533,4.2125,4.2851,4.3634,4.3902,4.436,4.4895,4.5182,4.5297,4.5297,0.0,0.0,2.5188,2.5188,2.5255,2.5292,2.5292,2.55,2.5683,2.5825,0.0,0.0,0.0,0.0,0.0,2.9159,2.957,2.979,2.979,2.9842,2.9878,2.9828,2.9895,3.029,3.1089,3.1233,3.2046,3.3677,3.3714,3.4131,3.4908,3.502,3.4945,3.4694,3.4831,3.487,3.4851,3.4674,3.4551,3.4486,0.0,3.4632,3.4851,0.0,0.0,0.0,3.4467,3.4269,0.0,0.0,0.0,0.0,0.0,0.0,0.0,0.0,0.0,0.0,0.0,0.0,0.0,0.0,0.0,0.0,0.0,0.0,0.0,0.0,0.0,0.0,0.0,0.0,0.0,0.0,0.0,0.0,0.0,0.0,0.0,0.0,0.0,0.0,0.0,0.0,0.0,0.0,0.0,3.7024,3.7024,3.7024,3.7092,3.7225,3.7293,3.7394,3.7528,3.7602,3.7655,3.7674,3.8553,3.8973,3.903,3.989,4.0291,4.031,4.031,4.075,4.1457,4.1457,4.1972,4.2832,4.3634,4.3978,4.4112,4.4953,4.5277,4.5297,0.0,2.5103,2.5131,2.5188,2.5347,2.542,2.542,2.6187,2.6774,0.0,0.0,0.0,2.839,2.8709,2.9042,2.9395,2.9513,2.9589,2.9589,2.9589,2.9851,3.0431,3.0565,3.0884,3.1446,3.2371,3.2976,3.3189,3.4012,3.4565,3.4831,3.4733,3.4653,3.4632,3.4348,3.4274,3.4321,3.4321,0.0,3.4274,3.4111,3.4043,0.0,0.0,0.0,0.0,0.0,3.3223,3.3367,0.0,3.3226,3.347,0.0,0.0,0.0,0.0,0.0,0.0,3.4379,0.0,0.0,0.0,0.0,0.0,0.0,0.0,0.0,0.0,0.0,0.0,0.0,0.0,0.0,0.0,0.0,0.0,0.0,0.0,0.0,0.0,0.0,0.0,0.0,0.0,0.0,0.0,3.5277,3.5277,3.5277,3.5277,3.5362,3.5486,3.5509,3.555,3.5666,3.6293,3.6653,3.669,3.7584,3.8346,3.9011,3.926,3.9699,4.031,4.031,4.0444,4.0635,4.0635,4.1113,4.1877,4.2106,4.2928,4.4036,4.4284,4.4762,4.5297,2.6014,2.6014,2.6014,2.6073,2.6185,2.6282,2.6282,2.6886,2.7334,0.0,0.0,0.0,2.821,2.8603,2.9012,2.9384,2.9513,2.9724,3.0074,3.0074,3.03,3.0775,3.1017,3.1433,3.2009,3.2577,3.3114,3.3579,3.392,3.4207,3.4461,3.4357,3.4223,3.4056,3.3828,3.376,3.3807,3.3842,0.0,0.0,3.3716,0.0,0.0,3.3449,3.3259,0.0,0.0,0.0,3.2916,3.2548,3.2674,0.0,0.0,0.0,0.0,0.0,0.0,0.0,0.0,0.0,0.0,0.0,0.0,0.0,3.4152,3.4189,0.0,0.0,0.0,0.0,0.0,0.0,0.0,0.0,0.0,0.0,0.0,0.0,0.0,0.0,0.0,0.0,0.0,0.0,0.0,3.434,3.4517,3.4602,3.4602,3.4602,3.4645,3.4708,3.4768,3.4829,3.4869,3.5381,3.5685,3.5742,3.6634,3.7337,3.7907,3.8668,3.9279,3.9775,4.0138,4.031,4.031,4.031,4.0578,4.1036,4.1361,4.2106,4.3042,4.3749,4.4322,4.4819,0.0,2.7267,2.7267,2.7299,2.7313,2.7376,2.7376,2.7452,2.7496,0.0,2.7626,2.777,2.7824,2.8353,2.8909,2.9397,2.9647,3.0089,3.0802,3.0857,3.0921,3.101,3.1349,3.1868,3.2562,3.2279,3.2794,3.4227,3.352,3.3443,3.3928,3.3975,3.3723,3.3273,3.3299,3.3335,3.3316,3.3364,3.3462,3.3569,3.3321,3.3314,0.0,0.0,3.3105,0.0,3.2813,3.2677,3.2568,3.2056,3.2162,0.0,0.0,0.0,0.0,0.0,3.3302,0.0,0.0,0.0,0.0,0.0,0.0,0.0,3.3854,3.3802,3.3715,0.0,0.0,0.0,0.0,0.0,0.0,0.0,0.0,0.0,0.0,0.0,0.0,0.0,0.0,0.0,0.0,3.4173,3.4197,3.4023,3.4316,3.4539,3.4539,3.4539,3.4539,3.458,3.4687,3.4768,3.4768,3.4811,3.4851,3.4889,3.5685,3.6141,3.633,3.7946,3.8784,3.9012,3.9795,4.0215,4.031,4.031,4.031,4.0368,4.1094,4.1418,4.1686,4.3176,4.3787,4.3997,2.704,2.7057,2.7072,2.7152,2.7135,2.7184,2.7282,2.7376,2.7407,2.7407,2.8004,2.8491,2.8729,2.9414,3.0006,3.0324,3.0399,3.0481,3.0661,3.0643,3.0959,3.1606,3.1693,3.2013,3.2581,3.2721,3.2882,3.3045,3.3121,3.3312,3.3504,3.3343,3.3207,3.3039,3.3001,3.2957,3.2908,3.3037,0.0,3.3001,3.3273,0.0,3.2781,3.2648,3.2433,3.2162,3.1932,3.1823,3.1821,0.0,3.1802,3.1984,0.0,0.0,0.0,0.0,0.0,0.0,0.0,0.0,0.0,0.0,0.0,0.0,3.3111,3.3214,3.3273,0.0,0.0,0.0,0.0,0.0,0.0,0.0,0.0,0.0,0.0,0.0,0.0,0.0,0.0,0.0,0.0,3.4049,3.4049,3.3998,3.4074,3.4124,3.4124,3.4124,3.4197,3.434,3.4386,3.4473,3.4645,3.4476,3.4542,3.4829,3.4689,3.5168,3.6236,3.6482,3.7413,3.8842,3.9127,3.9661,4.031,4.031,4.031,4.0329,4.0482,4.0922,4.1533,4.1877,4.2431,4.3157,2.6975,2.7007,2.7007,2.7055,2.707,2.7135,2.7184,2.7282,2.7483,2.7863,2.8603,2.9184,2.9358,2.9709,3.0127,3.072,3.0723,3.0868,3.122,3.1255,3.1414,3.1786,3.1915,3.2125,3.2384,3.2677,3.2836,3.2795,3.2983,3.3014,3.3001,3.2894,3.2684,3.2401,3.2454,3.2454,3.2401,3.257,3.2603,3.2553,3.2795,0.0,3.237,3.2197,3.1985,3.1728,3.1654,3.1596,3.1559,3.1579,3.1709,0.0,0.0,3.1912,3.202,0.0,3.2266,3.2318,0.0,0.0,0.0,3.2506,0.0,0.0,0.0,3.2719,3.2848,0.0,0.0,0.0,0.0,0.0,0.0,0.0,0.0,0.0,0.0,0.0,0.0,0.0,0.0,0.0,0.0,3.3807,3.3895,3.3998,3.3895,3.3895,3.3998,3.3998,3.4049,3.4148,3.4148,3.4197,3.4293,3.4197,3.4293,3.4539,3.4316,3.4656,3.5511,3.5811,3.6535,3.7585,3.8499,3.9204,3.9699,4.0119,4.031,4.031,4.031,4.0559,4.096,4.1342,4.1781,4.2278,2.6943,2.6909,2.6942,2.6975,2.7142,2.7276,2.7276,2.7513,2.7887,2.8474,2.9265,2.9782,2.9885,2.9886,3.0214,3.0923,3.0922,3.1145,3.175,3.1785,3.1765,3.1726,3.1967,3.2057,3.2057,3.2348,3.2515,3.2648,3.2648,3.2568,3.2438,3.2438,3.2197,3.1746,3.1929,3.1966,3.1932,0.0,0.0,3.2144,0.0,3.2197,3.2108,3.1856,3.1671,3.1579,3.1504,3.1445,3.1402,3.1483,0.0,3.1709,3.1617,3.1728,0.0,0.0,0.0,0.0,0.0,0.0,0.0,0.0,0.0,3.2144,0.0,0.0,0.0,0.0,0.0,0.0,0.0,0.0,0.0,0.0,0.0,0.0,0.0,0.0,0.0,0.0,0.0,0.0,0.0,3.3444,3.3625,3.3868,3.3698,3.3652,3.3868,3.3868,3.3895,3.3947,3.3947,3.3947,3.3998,3.3947,3.4049,3.4245,3.4124,3.4245,3.4663,3.524,3.5725,3.6196,3.7753,3.8554,3.888,3.9756,4.0118,4.0118,4.0253,4.031,4.0387,4.1036,4.1266,4.138,2.6741,2.6657,2.6708,2.6893,2.7453,2.7913,2.7981,2.8528,2.9024,2.9109,2.9811,3.027,3.0162,3.0725,0.0,3.1172,0.0,0.0,3.1372,0.0,3.1428,3.1517,3.1576,3.1576,3.1576,3.1634,3.1654,3.1748,3.1748,3.1802,3.1893,3.1893,3.1783,3.1617,3.1654,0.0,0.0,0.0,3.1746,0.0,3.1637,3.1785,0.0,3.1691,3.1559,3.1462,3.1173,3.1032,3.0992,0.0,3.1291,3.1389,0.0,3.1617,0.0,0.0,0.0,0.0,0.0,0.0,0.0,0.0,3.2108,0.0,0.0,0.0,0.0,0.0,0.0,0.0,0.0,0.0,0.0,0.0,0.0,0.0,0.0,0.0,0.0,0.0,0.0,0.0,0.0,0.0,3.3117,3.3452,3.3268,3.3238,3.3452,3.3481,3.3549,3.3726,3.3726,3.3815,3.3998,3.3815,3.386,3.4023,3.3671,3.3698,3.4099,3.406,3.4568,3.5571,3.6563,3.744,3.8177,3.9045,3.9402,3.9476,4.0058,4.031,4.031,4.0406,4.0444,4.0559,2.6862,2.7314,2.7777,2.7885,2.8245,2.852,2.8556,2.9309,2.9911,2.9911,3.0577,3.1018,0.0,0.0,0.0,0.0,0.0,3.0935,0.0,0.0,3.1015,3.1151,3.1151,3.1151,3.1151,3.1151,3.123,3.1368,3.1368,3.1462,3.1614,3.1559,3.1428,3.1235,3.1179,0.0,3.1213,0.0,0.0,0.0,0.0,0.0,0.0,3.1406,3.1291,3.119,3.1032,3.0912,3.0912,0.0,3.1134,0.0,0.0,0.0,0.0,0.0,0.0,0.0,0.0,0.0,0.0,0.0,0.0,0.0,0.0,0.0,3.1984,0.0,0.0,0.0,0.0,0.0,0.0,0.0,0.0,0.0,0.0,0.0,0.0,0.0,0.0,0.0,0.0,0.0,0.0,0.0,0.0,3.3196,3.3393,3.3393,3.3452,3.352,3.352,3.3577,3.3643,3.3577,3.3633,3.3815,3.352,3.3605,3.3998,3.3823,3.4094,3.476,3.5609,3.6485,3.7362,3.8209,3.8826,3.9257,3.959,3.9766,3.9826,3.9826,3.9826,3.9886,2.7195,2.7921,2.8586,2.8624,2.8887,2.9201,2.9458,3.0078,3.0564,3.0602,0.0,0.0,3.1346,3.1151,0.0,0.0,0.0,3.0468,0.0,0.0,3.0651,0.0,0.0,0.0,0.0,3.0871,3.0952,3.1112,3.1112,3.119,3.1308,3.1252,3.1117,3.0975,0.0,3.0797,3.0773,0.0,0.0,3.0855,3.0895,3.0895,3.0838,3.0975,3.0975,3.0895,3.0773,3.0708,3.0708,3.079,3.0855,0.0,3.0871,0.0,0.0,0.0,0.0,0.0,3.1634,0.0,0.0,0.0,0.0,0.0,0.0,0.0,0.0,0.0,0.0,0.0,0.0,0.0,0.0,0.0,0.0,0.0,0.0,0.0,0.0,0.0,0.0,0.0,0.0,0.0,0.0,0.0,0.0,0.0,3.3304,3.3364,3.3393,3.3393,3.3393,3.3393,3.3393,3.3393,3.3481,3.3633,3.3481,3.3549,3.3815,3.3671,3.3753,3.4028,3.4829,3.5565,3.6281,3.7328,3.8108,3.8637,3.8943,3.9109,3.9208,3.9433,3.9502,3.9502,2.7819,2.8208,2.851,2.8569,2.9192,2.9973,3.079,3.0965,0.0,0.0,0.0,0.0,0.0,0.0,0.0,0.0,0.0,2.9897,3.0017,0.0,3.0284,0.0,0.0,3.0773,0.0,0.0,3.0912,3.0912,3.0912,3.0912,3.0912,3.0912,3.0912,3.0912,3.0773,3.0651,3.051,3.051,3.0316,3.006,3.0189,3.0087,2.9881,0.0,3.0609,3.0651,3.0316,0.0,0.0,3.0443,3.0401,0.0,0.0,0.0,0.0,0.0,0.0,0.0,0.0,0.0,0.0,3.1462,0.0,0.0,0.0,0.0,3.1538,0.0,0.0,0.0,0.0,0.0,3.18,3.18,3.18,0.0,0.0,0.0,0.0,0.0,0.0,0.0,0.0,0.0,0.0,0.0,0.0,0.0,3.3086,3.3286,3.3393,3.3393,3.3393,3.3393,3.3393,3.3393,3.3393,3.3393,3.3393,3.3411,3.3422,3.3393,3.3422,3.3477,3.4274,3.4637,3.4782,3.6435,3.7139,3.7262,3.8091,3.8446,3.8523,3.9253,3.9502,3.9502,2.8327,2.8566,2.8893,0.0,0.0,0.0,0.0,3.0935,0.0,0.0,0.0,0.0,0.0,0.0,3.0087,0.0,0.0,2.9605,2.9665,2.9722,0.0,0.0,0.0,3.0215,0.0,0.0,0.0,3.079,3.0593,3.0535,3.0651,3.0401,3.0316,3.0274,3.0044,2.981,0.0,0.0,0.0,0.0,0.0,2.9467,2.9467,0.0,0.0,3.0113,3.0,2.9941,0.0,3.0027,3.0044,3.006,3.0087,3.0215,3.0359,3.0443,3.051,0.0,0.0,0.0,3.0958,3.1274,0.0,0.0,0.0,0.0,0.0,0.0,0.0,0.0,0.0,0.0,3.18,3.18,3.18,3.1819,0.0,0.0,0.0,0.0,0.0,0.0,0.0,0.0,0.0,0.0,0.0,0.0,0.0,3.3042,3.3104,3.3196,3.3196,3.3274,3.3393,3.3393,3.3393,3.3393,3.3393,3.3393,3.3393,3.3393,3.3393,3.3429,3.3701,3.4117,3.4697,3.5797,3.654,3.7116,3.798,3.8322,3.8387,3.8658,3.8807,3.8836,2.824,2.8432,0.0,0.0,0.0,0.0,0.0,0.0,0.0,0.0,3.0401,0.0,3.0189,0.0,2.9782,0.0,2.947,2.935,2.935,2.9425,0.0,2.9544,2.9722,0.0,0.0,0.0,0.0,0.0,0.0,3.0182,3.0258,3.0044,2.9913,2.9913,2.9694,2.9409,2.9058,0.0,2.8701,0.0,0.0,2.8764,0.0,0.0,2.9332,2.9572,0.0,2.9393,2.9287,2.9287,2.9241,2.9303,2.9438,2.9589,2.9782,3.0,3.007,3.0182,3.0435,3.0535,0.0,3.0861,3.1015,0.0,3.119,0.0,0.0,0.0,0.0,0.0,0.0,0.0,3.1688,3.1634,3.1671,3.1746,0.0,3.1929,0.0,0.0,0.0,0.0,0.0,0.0,0.0,0.0,0.0,0.0,0.0,0.0,3.2948,3.3024,3.3024,3.3104,3.3214,3.3274,3.3274,3.3214,3.3334,3.3364,3.3304,3.3364,3.3393,3.3393,3.3393,3.3701,3.4262,3.5367,3.6109,3.6671,3.7824,3.8274,3.8274,3.8368,3.8415,3.8478,2.755,2.7997,0.0,0.0,2.9467,0.0,0.0,0.0,3.0017,0.0,3.0146,3.0146,3.0146,2.981,2.9572,2.9589,2.9289,0.0,2.9075,2.9335,0.0,0.0,2.9499,2.9677,2.947,0.0,0.0,0.0,0.0,2.981,2.9793,2.9766,2.975,2.975,2.975,0.0,2.8811,2.8811,2.8448,2.7799,2.7799,2.7849,2.7849,2.7849,2.8369,2.9042,2.8889,2.8606,2.8288,2.8288,2.8094,2.7997,2.8654,2.8858,2.8997,2.9572,2.9766,2.981,2.993,3.0113,3.0267,3.0215,0.0,0.0,0.0,0.0,3.0821,0.0,0.0,0.0,0.0,0.0,0.0,3.1351,3.1466,3.1617,3.1746,0.0,0.0,0.0,0.0,0.0,0.0,0.0,0.0,0.0,0.0,0.0,0.0,0.0,3.2884,3.2884,3.2884,3.2884,3.2916,3.3024,3.3024,3.2916,3.3214,3.3274,3.3086,3.3286,3.3411,3.3411,3.3411,3.3393,3.352,3.5095,3.5783,3.5965,3.7522,3.8156,3.8225,3.8336,3.8401,3.8415,2.7011,2.7372,2.7675,0.0,2.8919,2.981,0.0,0.0,0.0,0.0,2.9694,2.9605,2.9396,2.9305,2.9198,2.909,2.9106,0.0,0.0,0.0,0.0,2.9075,2.909,2.9182,2.935,2.938,0.0,2.9661,0.0,0.0,2.956,2.938,2.9136,2.8842,2.9152,0.0,2.7449,2.77,2.7312,2.6443,2.6759,2.6849,0.0,0.0,2.7282,2.7297,2.7898,2.811,2.7997,2.7997,2.7947,2.7997,2.8463,2.8606,2.8716,2.9152,2.9289,2.9335,2.956,2.9694,2.981,3.0199,3.0097,2.9984,0.0,0.0,0.0,0.0,0.0,0.0,0.0,0.0,0.0,3.1368,3.15,3.1576,0.0,0.0,0.0,0.0,0.0,0.0,0.0,0.0,0.0,0.0,0.0,0.0,0.0,0.0,0.0,3.2672,3.2672,3.2737,3.2916,3.293,3.293,3.2916,3.2979,3.3011,3.2948,3.3104,3.3196,3.3196,3.3334,3.3393,3.3484,3.4498,3.5276,3.591,3.6906,3.7649,3.8225,3.8289,3.8322,3.8322,2.6539,0.0,0.0,2.781,0.0,0.0,2.8795,0.0,0.0,2.8935,2.8997,0.0,2.8873,2.8826,2.8826,2.8716,2.8967,0.0,0.0,0.0,0.0,2.8951,2.8905,2.8951,2.9091,2.9091,0.0,2.9319,0.0,0.0,2.9044,2.9075,2.8889,2.8462,2.8889,2.8527,0.0,2.7312,2.6864,2.6258,2.6258,0.0,0.0,2.6481,2.6443,2.6297,2.6849,2.7056,2.7056,2.7056,2.7056,2.7108,2.765,2.7815,2.7913,2.8415,2.8574,2.8606,2.8748,2.8889,2.9028,2.9332,2.9271,2.9225,2.9451,2.9329,2.9146,0.0,0.0,0.0,0.0,0.0,0.0,0.0,0.0,0.0,0.0,0.0,0.0,0.0,0.0,0.0,0.0,0.0,0.0,0.0,0.0,0.0,0.0,0.0,0.0,3.2489,3.2523,3.2574,3.2674,3.2755,3.2755,3.2674,3.282,3.2834,3.277,3.293,3.2993,3.3042,3.3135,3.3196,3.3328,3.4153,3.4997,3.5928,3.7069,3.7794,3.8192,3.8241,3.8241,3.8274,2.6244,0.0,0.0,0.0,0.0,0.0,0.0,2.8174,0.0,2.8076,0.0,2.8319,2.8319,2.8319,2.8304,2.8319,0.0,2.8764,2.8654,2.8654,2.8622,2.8573,2.8589,2.8541,2.8541,2.8541,0.0,0.0,0.0,0.0,2.8574,2.8936,2.8842,2.8444,2.8905,0.0,0.0,2.7159,2.664,2.6457,2.5988,2.5784,2.5784,2.5784,2.5784,2.5784,2.5784,2.5839,2.5893,2.5893,2.5948,2.6042,2.6707,2.6901,2.7122,2.7715,2.7898,2.7898,2.7898,2.8046,2.8255,2.8204,2.8352,2.8497,2.8591,2.8607,2.8544,2.824,2.8607,2.8826,0.0,0.0,0.0,0.0,0.0,0.0,0.0,0.0,0.0,0.0,0.0,0.0,0.0,0.0,0.0,0.0,0.0,0.0,0.0,0.0,0.0,3.2354,3.2388,0.0,3.2406,0.0,3.2523,3.2388,3.2707,3.2755,3.2573,3.277,3.2852,3.2852,3.2884,3.2979,3.314,3.3822,3.4776,3.5933,3.7525,3.8192,3.8192,3.8192,3.8192,3.8225,0.0,0.0,0.0,0.0,0.0,2.7063,2.6016,2.6745,2.7434,2.7282,2.7333,2.7333,2.7333,2.7333,2.7282,2.7195,2.7348,0.0,0.0,0.0,0.0,2.7399,2.7312,2.721,2.721,2.721,2.7515,0.0,0.0,2.8479,2.8982,2.9075,2.8873,2.8494,0.0,0.0,2.7282,2.6409,0.0,2.5272,2.5174,2.5174,2.5174,2.5174,2.5174,2.5174,2.5174,2.5508,2.5893,2.5893,2.6042,2.6297,2.6745,2.7086,2.7372,2.7765,2.7898,2.7898,2.7898,2.7947,2.7997,2.8207,2.8027,2.783,2.8012,2.783,2.7625,2.7575,2.771,2.7978,2.8415,0.0,0.0,0.0,0.0,0.0,0.0,0.0,0.0,0.0,0.0,0.0,0.0,0.0,0.0,0.0,0.0,0.0,0.0,0.0,0.0,0.0,3.2354,0.0,0.0,0.0,3.2422,3.2406,3.2457,3.2457,3.2457,3.259,3.2672,3.2672,3.2852,3.2916,3.2965,3.3091,3.4082,3.5717,3.7304,3.8038,3.8192,3.8192,3.8192,3.8192,0.0,0.0,0.0,0.0,0.0,0.0,0.0,2.5892,0.0,2.6491,2.6663,2.6782,2.6782,2.6782,2.6745,2.6707,2.6938,2.7027,2.6901,2.6938,2.699,2.6886,2.6834,0.0,2.6797,2.6797,2.7093,2.783,0.0,0.0,2.8653,2.8826,2.8716,2.836,0.0,2.791,0.0,0.0,0.0,2.5453,2.5118,2.5005,2.5005,2.5005,2.5005,2.5005,2.5005,2.5174,2.5453,2.5633,2.5798,2.5948,2.6443,2.6721,2.6893,2.724,2.7342,2.7342,2.7342,2.7342,2.7393,2.761,2.7423,2.7233,2.7423,2.7269,2.7093,2.7196,2.7248,2.7524,2.8271,2.8888,0.0,0.0,0.0,0.0,0.0,0.0,0.0,0.0,0.0,0.0,0.0,0.0,0.0,0.0,0.0,0.0,0.0,0.0,0.0,0.0,0.0,0.0,0.0,0.0,0.0,3.2406,3.2406,3.2406,3.2388,3.2473,3.2507,3.2507,3.2608,3.269,3.2791,3.3725,3.4592,3.55,3.7112,3.781,3.7881,3.8003,3.8038,3.8056,0.0,2.5988,0.0,0.0,2.619,0.0,2.5823,2.5425,2.5272,2.5714,2.6,2.619,2.619,2.619,2.619,2.619,2.6467,2.6611,2.6481,2.6481,2.6481,2.6361,2.6361,2.6361,2.6361,2.6361,2.6678,0.0,0.0,0.0,2.7959,2.8276,2.8261,2.7981,2.7755,0.0,0.0,0.0,2.5853,2.5674,2.5174,2.5005,2.5005,2.5005,2.5005,2.5005,2.5005,2.5005,2.5061,2.5383,2.5494,2.555,2.5988,2.619,2.6244,2.6553,2.6659,2.6712,2.6712,2.6727,2.6832,2.6951,2.6899,2.6832,2.6951,2.6899,2.6899,2.7003,2.7003,2.7284,2.8061,2.856,0.0,0.0,0.0,0.0,0.0,0.0,0.0,0.0,0.0,0.0,0.0,0.0,0.0,0.0,0.0,3.1875,3.1875,3.202,0.0,0.0,0.0,3.2354,3.2354,0.0,3.2354,0.0,3.2406,3.2406,3.2406,3.2406,3.2406,3.2406,3.2406,3.2527,3.2926,3.4462,3.5207,3.5527,3.6951,3.754,3.7631,3.7793,3.7828,3.7864,0.0,0.0,0.0,0.0,0.0,0.0,0.0,2.5313,2.5369,2.5118,2.5118,2.5174,2.5174,2.5174,2.5174,2.5174,2.516,2.5216,2.516,2.516,2.516,2.516,2.516,2.516,2.516,2.516,2.5467,0.0,0.0,0.0,0.0,2.7225,2.724,2.7179,0.0,0.0,0.0,2.598,2.5589,2.5061,2.5005,2.5005,2.5005,2.5005,2.5005,2.5005,2.5005,2.5005,2.5061,2.5383,2.5494,2.5494,2.555,2.5743,2.5948,2.6002,2.615,2.6351,2.6351,2.6592,2.6779,2.6832,2.6779,2.6779,2.6832,2.6899,2.7003,2.7003,2.7093,2.7321,2.7864,2.7745,2.791,0.0,0.0,0.0,0.0,0.0,0.0,0.0,0.0,0.0,0.0,0.0,0.0,0.0,0.0,3.1691,3.1783,3.1875,3.193,3.193,0.0,3.2144,3.2214,3.2214,3.2267,3.2406,3.2406,3.2406,3.2406,3.2406,3.2406,3.2406,3.2406,3.2774,3.3477,3.4392,3.5258,3.6094,3.6998,3.7447,3.7577,3.7631,3.7631,3.7667,0.0,0.0,0.0,0.0,0.0,0.0,0.0,2.5663,2.5799,2.605,2.5453,2.5005,2.5005,2.5005,2.5005,2.5005,2.5005,2.5005,2.5005,2.5005,2.5005,2.5005,2.5005,2.5005,2.5005,2.5005,2.5328,0.0,0.0,0.0,0.0,2.6872,2.6674,0.0,0.0,2.5978,2.5398,2.5382,2.5227,2.5005,2.5005,2.5005,2.5005,2.5005,2.5005,2.5005,2.5005,2.5005,2.5005,2.5131,2.5313,2.555,2.5702,2.5798,2.5948,2.6096,2.6244,2.6336,2.6539,2.6712,2.6779,2.6779,2.6779,2.6779,2.6779,2.6846,2.6899,2.6899,2.6989,2.7144,2.7321,2.761,2.7944,0.0,0.0,0.0,0.0,0.0,0.0,0.0,0.0,0.0,0.0,0.0,0.0,0.0,0.0,0.0,3.1671,3.1783,3.1839,3.1894,0.0,3.2108,3.2144,3.2144,3.2161,3.2232,3.2232,3.2232,3.2267,3.2267,3.2301,3.2406,3.2406,3.2809,3.3547,3.4354,3.5164,3.5995,3.6788,3.7182,3.7241,3.7372,3.741,3.7447,2.5517,0.0,2.5862,0.0,2.5862,2.5942,2.6163,2.6158,2.6321,2.6769,2.6077,2.5548,2.5548,2.5548,2.5548,2.5548,2.5548,2.5548,2.5548,2.5548,2.5548,2.5548,2.5548,0.0,2.5548,2.5548,2.5764,2.6161,2.6161,0.0,0.0,0.0,0.0,0.0,2.5923,2.5588,2.5005,2.5005,2.5005,2.5005,2.5005,2.5005,2.5005,2.5005,2.5005,2.5005,2.5005,2.5005,2.5005,2.5005,2.5188,2.5369,2.5578,2.5619,2.566,2.5865,2.5974,2.6096,2.634,2.6461,2.6553,2.6659,2.6659,2.6659,2.6779,2.6779,2.6779,2.6779,2.6899,2.6951,2.6951,2.7423,2.7845,2.7963,0.0,0.0,0.0,0.0,0.0,0.0,0.0,3.0651,3.0773,0.0,0.0,0.0,0.0,0.0,0.0,3.1671,0.0,0.0,0.0,0.0,0.0,3.2037,3.2073,3.2108,3.2108,3.2108,3.2179,3.2179,3.2267,3.2354,3.2388,3.295,3.388,3.446,3.5267,3.6215,3.6777,3.6987,3.7027,3.7143,3.722,3.7259,2.5873,2.6375,2.6796,2.6796,2.6796,2.6809,2.6809,2.6809,2.6809,2.6823,2.6809,2.6809,2.6809,2.6809,2.6809,2.6809,2.6809,2.6809,2.6809,2.6809,2.6809,0.0,0.0,2.6809,2.6809,2.6809,2.6796,2.6809,0.0,0.0,2.6782,0.0,2.6469,2.5895,2.5895,2.556,2.5005,2.5005,2.5005,2.5005,2.5005,2.5005,2.5005,2.5005,2.5005,2.5005,2.5005,2.5005,2.5005,2.5005,2.5005,2.5005,2.5005,2.5005,2.5005,2.5005,2.5257,2.5494,2.5494,2.5702,2.5988,2.6244,2.6297,2.6404,2.6712,2.6779,2.6779,2.6779,2.6779,2.6779,2.6779,2.6899,2.7181,2.765,0.0,0.0,0.0,0.0,0.0,0.0,3.0733,3.0773,3.051,0.0,0.0,0.0,0.0,0.0,0.0,0.0,0.0,3.1617,3.1617,0.0,3.1894,3.1894,3.1984,3.2108,3.2108,3.2108,3.2108,3.2179,3.2179,3.2214,3.2354,3.3266,3.467,3.4688,3.5583,3.7009,3.6987,3.6987,3.6987,3.7009,3.7009,3.7027,2.6404,2.6687,2.6823,2.6823,2.6823,2.6959,2.7366,2.742,2.7569,2.7976,2.803,2.803,2.803,2.7311,2.6823,0.0,2.6823,2.6823,0.0,2.6823,2.6823,2.6823,2.6823,2.6823,2.6823,2.6823,2.6823,2.6823,0.0,0.0,0.0,2.6791,2.671,2.6511,2.648,2.6394,2.6253,2.6253,2.6253,2.6253,2.6253,2.6253,2.6199,2.5778,2.5602,2.5561,2.5154,2.5005,2.5005,2.5005,2.5005,2.5005,2.5005,2.5005,2.5061,2.5257,2.5439,2.555,2.5688,2.5988,2.619,2.6297,2.6472,2.6659,2.6779,2.6779,2.6779,2.6779,2.6779,2.6779,2.6779,2.6899,2.7041,2.7218,2.8027,0.0,0.0,0.0,0.0,0.0,0.0,3.0609,0.0,3.0692,0.0,0.0,0.0,0.0,0.0,0.0,0.0,0.0,3.1538,0.0,3.1674,3.1691,3.1765,3.191,3.191,3.1929,3.1984,3.2073,3.2108,3.2179,3.2719,3.3558,3.4594,3.5154,3.6036,3.6987,3.6987,3.6987,3.6987,3.6987,3.6987,3.7027,2.664,2.7015,2.7225,2.7426,2.7488,2.761,2.7976,2.8044,2.8166,2.8546,2.8587,2.8587,2.8587,2.7936,0.0,2.7488,2.7488,2.7488,2.7488,2.7488,2.7426,2.735,2.735,2.735,2.7301,0.0,0.0,2.735,2.7426,2.7482,2.7469,2.7482,2.7339,2.7116,2.7149,2.7023,2.6792,2.6816,2.6769,2.6823,2.6823,2.6823,2.6782,2.6389,2.624,2.6199,2.5819,2.5534,2.5344,2.5344,2.5195,2.5005,2.5005,2.5005,2.5061,2.5257,2.5313,2.5369,2.5508,2.5784,2.6042,2.6136,2.6365,2.6659,2.6779,2.6779,2.6779,2.6779,2.6779,2.6779,2.6779,2.6899,2.6899,2.6899,2.7645,2.8255,2.84,0.0,0.0,0.0,0.0,0.0,0.0,3.0609,0.0,0.0,0.0,0.0,0.0,0.0,0.0,3.1406,3.1406,0.0,3.1559,3.1596,3.1617,3.1709,3.18,3.1819,3.1875,3.1984,3.202,3.2072,3.2854,3.3656,3.4536,3.5283,3.6129,3.693,3.693,3.6948,3.6987,3.6987,3.6987,3.6987,2.6778,2.7341,0.0,0.0,2.8457,0.0,2.8522,2.8522,2.8522,2.8587,2.8587,2.8587,2.8587,2.8587,2.8587,2.8587,0.0,0.0,0.0,2.8587,2.8522,2.8352,2.8287,2.8235,2.8145,2.8079,2.8197,2.8287,2.8509,2.8587,2.8587,2.8587,2.8244,2.7731,2.7731,2.7455,2.6933,2.6943,2.6937,2.6945,2.6945,2.6945,2.6945,2.6904,2.6877,2.6877,2.685,2.6457,2.5955,2.5955,2.5588,2.5127,2.5127,2.51,2.5059,2.5018,2.5005,2.5005,2.5005,2.5244,2.555,2.5798,2.6096,2.6404,2.6712,2.6779,2.6779,2.6779,2.6779,2.6779,2.6779,2.6779,2.6779,2.6779,2.7276,2.7799,2.8192,0.0,0.0,0.0,0.0,0.0,0.0,3.0526,3.0568,0.0,0.0,0.0,0.0,0.0,3.1295,3.1295,3.1295,3.1351,3.1479,3.1559,3.1579,3.1617,3.1746,3.18,3.18,3.1875,3.1929,3.2033,3.2904,3.3706,3.4526,3.5275,3.6046,3.6788,3.6788,3.6869,3.6987,3.6987,3.6987,3.6987,0.0,0.0,2.7242,2.7377,2.7377,2.751,2.7921,2.7987,2.8105,2.8365,2.8365,2.8314,2.821,2.821,2.8262,2.8365,2.8509,2.8587,2.8587,2.8587,2.8587,2.8522,2.8365,2.83,2.8235,2.8235,2.8314,2.8522,2.8327,2.8276,2.8406,2.8271,2.8112,2.798,2.8099,2.8085,2.7954,2.8133,2.8157,2.8166,2.8166,2.8166,2.8125,2.7664,2.7501,2.7447,2.6986,2.6728,2.6606,2.6606,2.6511,2.6389,2.6389,2.6063,2.5602,2.5141,2.5005,2.5005,2.5005,2.5244,2.5494,2.5605,2.5948,2.6336,2.6404,2.6606,2.6779,2.6779,2.6779,2.6779,2.6779,2.6779,2.6779,2.6779,2.7181,2.7524,2.7575,2.8383,0.0,0.0,2.9897,3.0274,3.0468,3.0526,3.0568,0.0,0.0,0.0,0.0,3.1015,3.1134,3.1213,3.1213,3.1252,3.1351,3.1445,3.1614,3.1746,3.1783,3.18,3.18,3.1837,3.213,3.2717,3.355,3.4367,3.5208,3.5954,3.647,3.6725,3.6788,3.6829,3.6869,3.6948,3.6987,3.6987,2.6,2.6195,2.6471,2.6676,2.6892,2.7108,2.7377,2.7443,2.751,2.7696,2.7696,2.763,2.7364,2.759,2.7789,2.7683,2.8157,2.8509,2.8587,2.8587,2.8587,2.8444,2.8365,2.83,2.8183,2.8183,2.8314,2.8444,2.8392,2.8406,2.8471,2.8352,2.8274,2.817,2.825,2.825,2.8249,2.8327,2.8406,2.8406,2.8406,2.8406,2.8365,2.8093,2.7958,2.7917,2.7683,2.7461,2.723,2.723,2.7054,2.6823,2.6823,2.6592,2.6253,2.5928,2.5439,2.5005,2.5005,2.5244,2.555,2.5647,2.5893,2.615,2.615,2.6365,2.6592,2.6592,2.6712,2.6779,2.6779,2.6779,2.6779,2.6779,2.6989,2.7196,2.735,2.7875,0.0,2.8982,2.9483,2.9897,3.03,3.0443,3.051,3.0609,3.0651,0.0,3.0814,3.0895,3.0975,3.1112,3.1151,3.123,3.1235,3.1368,3.1521,3.1709,3.1709,3.1746,3.18,3.2145,3.2524,3.2955,3.4111,3.4875,3.5348,3.6091,3.6502,3.6602,3.6667,3.6708,3.6829,3.6869,3.6948,3.6987,2.5016,2.5217,2.5557,2.6032,2.6402,2.662,2.6688,2.6756,2.6824,2.6824,2.6905,2.6824,2.6445,2.6879,2.7108,2.6799,2.7471,2.8091,2.8536,2.8522,2.8457,2.83,2.8222,2.8183,2.8079,2.8079,2.8197,2.8365,2.8457,2.8522,2.8522,2.8538,2.8462,2.8239,2.8186,2.8093,2.7934,2.7906,2.7853,2.7813,2.7813,2.7813,2.7813,2.7967,2.8032,2.8032,2.8187,2.794,2.7507,2.7507,2.7182,2.685,2.6932,2.6891,2.685,2.6932,2.6172,2.5263,2.5168,2.5256,2.5481,2.5743,2.5784,2.5853,2.5853,2.6096,2.6283,2.6283,2.6592,2.6779,2.6779,2.6779,2.6779,2.6779,2.6779,2.6937,2.7248,0.0,2.7725,2.8606,2.8982,2.9438,3.0044,3.03,3.0485,3.0526,3.0609,3.0651,3.0651,3.079,3.0912,3.0935,3.1095,3.119,3.123,3.1274,3.1389,3.1579,3.1579,3.1634,3.178,3.2538,3.2934,3.3124,3.4536,3.5249,3.5404,3.6042,3.636,3.6444,3.6502,3.6609,3.6748,3.6788,3.6869,3.6948,2.517,2.4814,2.455,2.4981,2.4838,2.4814,2.5217,2.5639,2.5906,2.6183,2.6564,2.6633,2.6414,2.6277,2.6195,2.6183,2.602,2.6569,2.8079,2.821,2.8145,2.8131,2.7987,2.7921,2.8079,2.8079,2.8276,2.8522,2.8262,2.8262,2.8352,2.8222,2.8157,2.8091,2.7736,2.7472,2.7337,2.6974,2.6711,2.6574,2.6574,2.6574,2.6574,2.6636,2.6623,2.6623,2.6636,2.672,2.6775,2.6775,2.6783,2.6918,2.742,2.723,2.6918,2.742,2.7081,2.643,2.59,2.5456,2.5075,2.5118,2.5355,2.555,2.555,2.5934,2.6283,2.6283,2.6592,2.6779,2.6779,2.6779,2.6779,2.6779,2.6779,2.6832,2.6884,0.0,2.7524,2.7849,2.8496,2.9166,2.9629,3.0027,3.0316,3.0485,3.0526,3.051,3.051,3.0651,3.0733,3.0733,3.0935,3.1134,3.1257,3.1295,3.1351,3.1517,3.1517,3.1517,3.1572,3.2308,3.3031,3.3802,3.4679,3.5459,3.6146,3.6249,3.6301,3.6343,3.6461,3.6544,3.6544,3.6684,3.6742,3.6766,2.5589,2.5303,2.509,2.524,2.5079,2.5067,2.5268,2.5491,2.5627,2.5849,2.6007,2.59,2.5323,2.5505,2.5517,2.537,2.5346,2.5836,2.6824,2.6879,2.6879,2.6879,2.7149,2.7419,2.76,2.728,2.7183,2.7373,2.7183,2.717,2.7233,2.7464,2.7546,2.7495,2.7669,2.7643,2.7533,2.7324,2.7046,2.6648,2.6522,2.6337,2.606,2.6184,2.6233,2.6294,2.6444,2.658,2.6702,2.6702,2.6762,2.6877,2.7149,2.704,2.6877,2.7149,2.704,2.6755,2.647,2.5941,2.548,2.548,2.5363,2.5257,2.5257,2.5578,2.5839,2.5839,2.6125,2.634,2.634,2.6433,2.6539,2.6539,2.6659,0.0,0.0,2.6937,2.7181,2.7494,2.7963,2.8528,2.915,2.9483,2.9853,3.0316,3.0359,3.0401,3.0468,3.0568,3.0609,3.0692,3.0895,3.1095,3.1235,3.1252,3.1291,3.1406,3.1406,3.1628,3.2132,3.2866,3.3659,3.447,3.5223,3.5822,3.6251,3.6251,3.6276,3.6301,3.636,3.6444,3.6502,3.6561,3.6643,3.6702,2.577,2.5549,2.5483,2.5549,2.5461,2.5305,2.5305,2.5449,2.5438,2.5438,2.5527,2.5378,2.4698,2.5009,2.5136,2.4815,2.495,2.5252,2.5517,2.5505,2.5528,2.5697,2.6445,2.6943,2.7103,2.687,2.6707,2.6707,2.6707,2.6707,2.672,2.7173,2.7322,2.7207,2.7693,2.7761,2.7578,2.7433,2.7117,2.667,2.6542,2.6216,2.5824,2.5936,2.6122,2.6294,2.6444,2.658,2.6735,2.66,2.6546,2.6606,2.6606,2.6606,2.6633,2.6782,2.6823,2.685,2.6986,2.6579,2.6104,2.6104,2.5656,2.5208,2.5208,2.5353,2.5494,2.5494,2.5688,2.5893,2.5893,2.6096,2.619,2.619,0.0,0.0,0.0,2.6727,2.6884,2.7196,2.7494,2.7913,2.8559,2.8919,2.9348,2.9913,3.0044,3.0189,3.0443,3.0443,3.0526,3.0692,3.0895,3.1072,3.1151,3.119,3.123,3.1274,3.1443,3.1873,3.2565,3.3468,3.426,3.4874,3.5608,3.6036,3.6182,3.6182,3.6251,3.6276,3.6301,3.6343,3.6444,3.6444,3.6502,3.6602,2.5527,2.5094,2.4713,2.4971,2.4769,2.4566,2.4566,2.4837,2.5049,2.5049,2.536,2.5592,2.547,2.5226,2.506,2.5015,2.4737,2.4613,2.4613,2.4613,2.4785,2.5348,2.6195,2.6718,2.6748,2.7551,2.7959,2.7959,2.7959,2.7959,2.7959,2.7999,2.8012,2.8012,2.7525,2.7118,2.6906,2.6361,2.6011,2.589,2.589,2.5863,2.5824,2.5824,2.5936,2.6122,2.6122,2.6321,2.656,2.598,2.5837,2.5955,2.5955,2.5955,2.6077,2.666,2.6823,2.6945,2.7488,2.7203,2.6755,2.6755,2.6294,2.5819,2.5819,2.5654,2.5494,2.5494,2.5688,2.5893,2.5893,2.5893,2.5948,2.5948,0.0,0.0,2.6351,2.6592,2.6779,2.6832,2.7196,2.7509,2.7735,2.8496,2.9028,2.9241,2.9617,2.9941,3.0189,3.0231,3.0359,3.0692,3.0895,3.1015,3.1015,3.1151,3.119,3.1207,3.1907,3.2263,3.2364,3.3804,3.4541,3.4772,3.5494,3.5905,3.6019,3.6122,3.6208,3.6208,3.6276,3.6301,3.6301,3.6301,3.6301,3.636,2.6531,2.6141,2.5736,2.5887,2.5584,2.536,2.536,2.5513,2.5584,2.5584,2.5665,2.5717,2.5405,2.5212,2.5079,2.4993,2.4701,2.4555,2.4837,2.4634,2.477,2.5494,2.55,2.5685,2.6186,2.6161,2.6021,2.5752,2.6222,2.6268,2.6013,2.6831,2.7196,2.7209,2.7486,2.7525,2.7446,2.7197,2.6895,2.6474,2.6411,2.6138,2.5824,2.5824,2.5887,2.606,2.606,2.6246,2.6512,2.6284,2.6337,2.647,2.647,2.6199,2.5941,2.6172,2.624,2.6375,2.6999,2.6986,2.6918,2.7271,2.6918,2.647,2.647,2.6113,2.5748,2.5748,2.5547,2.5342,2.5342,2.5522,2.5647,2.5647,0.0,2.6283,2.6283,2.6592,2.6779,2.6779,2.6937,2.7181,2.7458,2.781,2.814,2.8622,2.9012,2.9348,2.9572,2.9957,3.0316,3.0568,3.0733,3.0855,3.0952,3.1032,3.1291,3.177,3.2154,3.2763,3.3677,3.4235,3.4803,3.526,3.5548,3.5756,3.5905,3.5949,3.5993,3.6079,3.6208,3.6251,3.6233,3.6259,3.6301,3.6301,2.6775,2.6539,2.629,2.629,2.6052,2.5895,2.5895,2.5895,2.5895,2.5895,2.5895,2.5775,2.5437,2.5404,2.5344,2.5314,2.5073,2.5084,2.5281,2.5073,2.5021,2.525,2.5108,2.5205,2.5804,2.5609,2.5385,2.5016,2.5578,2.5672,2.5339,2.6257,2.6705,2.6718,2.7524,2.7828,2.791,2.8127,2.8039,2.7617,2.755,2.7116,2.649,2.6765,2.6818,2.6661,2.6661,2.6857,2.7076,2.6621,2.6452,2.6409,2.6502,2.6297,2.6113,2.6113,2.5977,2.6022,2.666,2.6687,2.6714,2.7515,2.7271,2.6877,2.7054,2.6633,2.6185,2.6185,2.5697,2.5276,2.5276,2.5324,2.5313,2.5313,2.5729,2.6096,2.6136,2.6418,2.6659,2.6779,2.6779,2.6884,2.7196,2.735,2.7575,2.7978,2.8367,2.8685,2.8904,2.9617,3.0185,3.0527,3.0815,3.1058,3.1189,3.1282,3.1657,3.2404,3.274,3.344,3.4462,3.4699,3.5104,3.5622,3.5622,3.5667,3.5728,3.5773,3.5861,3.5932,3.6079,3.6122,3.6122,3.6191,3.6216,3.6276,2.5895,2.5895,2.5895,2.5895,2.5895,2.5895,2.5895,2.5895,2.5895,2.5895,2.5895,2.5895,2.5895,2.5895,2.5895,2.5895,2.5895,2.5895,2.5895,2.5895,2.548,2.4541,2.5239,2.5615,2.5615,2.6358,2.6725,2.6713,2.6713,2.6713,2.6713,2.6713,2.6713,2.6713,2.7607,2.7986,2.8059,2.8905,2.9274,2.9274,2.9274,2.8749,2.8072,2.8977,2.8866,2.8214,2.8214,2.8299,2.8223,2.6795,2.597,2.5644,2.5816,2.6192,2.6492,2.6478,2.6182,2.6036,2.666,2.6362,2.6185,2.7393,2.7257,2.6986,2.7569,2.7244,2.6823,2.6837,2.6335,2.59,2.59,2.5412,2.5018,2.5018,2.5257,2.5592,2.5839,2.6136,2.6404,2.6779,2.6779,2.6779,2.6779,2.7144,2.7401,2.7401,2.7695,2.8012,2.8304,2.9134,2.9923,3.0693,3.1298,3.1703,3.1884,3.1984,3.2345,3.3004,3.3807,3.4231,3.433,3.5138,3.552,3.5622,3.5622,3.5622,3.5622,3.5711,3.5817,3.5817,3.5949,3.6019,3.6019,3.6019,3.6062,3.6225,2.5895,2.5895,2.5895,2.5895,2.5895,2.5895,2.5895,2.5895,2.5895,2.5895,2.5895,2.5895,2.5895,2.5895,2.5895,2.5895,2.5895,2.5895,2.5895,2.5895,2.5775,2.5491,2.5716,2.5787,2.5787,2.6021,2.6004,2.5644,2.6175,2.6225,2.5965,2.6486,2.6713,2.6713,2.6938,2.7087,2.7087,2.7385,2.7459,2.7459,2.7459,2.7311,2.7087,2.7385,2.7299,2.7138,2.7138,2.7286,2.7397,2.6943,2.6773,2.6687,2.6304,2.6231,2.6302,2.5813,2.5833,2.6096,2.6175,2.6049,2.6077,2.6891,2.6945,2.6986,2.7569,2.7244,2.6945,2.7352,2.6972,2.6538,2.6538,2.6036,2.5629,2.5629,2.5588,2.5592,2.5839,2.6136,2.6404,2.6779,2.6779,2.6779,2.6779,2.6884,2.6989,2.6989,2.7321,2.7956,2.8962,2.9273,2.9812,3.0716,3.0942,3.134,3.2022,3.2413,3.2807,3.3165,3.386,3.4471,3.5002,3.5345,3.5492,3.552,3.5594,3.5622,3.5622,3.5622,3.5667,3.5667,3.5817,3.5861,3.5861,3.5975,3.6019,3.6079,2.5895,2.5895,2.5895,2.5895,2.5895,2.5895,2.5895,2.5895,2.5895,2.5895,2.5895,2.5895,2.5895,2.5895,2.5895,2.5895,2.5895,2.5895,2.5895,2.5895,2.5895,2.5895,2.5895,2.5895,2.5895,2.5895,2.5753,2.5459,2.5928,2.6015,2.5734,2.6176,2.6413,2.6413,2.6726,2.6882,2.6948,2.7245,2.7399,2.7399,2.7399,2.718,2.6948,2.7245,2.718,2.6882,2.6882,2.6948,2.7014,2.6703,2.6705,2.674,2.6229,2.6284,2.6518,2.6251,2.6308,2.6413,2.6362,2.6185,2.6012,2.6404,2.6452,2.6606,2.7216,2.7081,2.6986,2.7596,2.723,2.6891,2.7135,2.6674,2.6267,2.6267,2.6144,2.6084,2.6399,2.6652,2.6899,2.6957,2.7321,2.7432,2.7186,2.7389,2.7534,2.7534,2.7803,2.8269,2.9012,2.9288,2.9822,3.0711,3.1,3.1462,3.2111,3.2673,3.3144,3.3551,3.3729,3.4199,3.4866,3.4961,3.5055,3.5148,3.5458,3.5594,3.5622,3.5622,3.5622,3.5622,3.5684,3.5728,3.5728,3.58,3.5888,3.5983,2.5812,2.5812,2.5812,2.5906,2.5895,2.5895,2.5895,2.5895,2.5895,2.5895,2.5895,2.5895,2.5895,2.5895,2.5895,2.5895,2.5895,2.5895,2.5895,2.5895,2.5895,2.5895,2.5895,2.5895,2.5895,2.5895,2.5895,2.5895,2.5895,2.5895,2.5895,2.5895,2.5874,2.5841,2.6637,2.7012,2.7047,2.7738,2.8044,2.8044,2.8044,2.7589,2.7047,2.7738,2.7589,2.6966,2.6966,2.6966,2.6814,2.6014,2.5939,2.6109,2.5721,2.6165,2.6974,2.7458,2.7322,2.703,2.6993,2.6582,2.6165,2.6112,2.6014,2.6067,2.664,2.6782,2.6904,2.7501,2.7203,2.6986,2.7528,2.7189,2.6823,2.6823,2.6823,2.687,2.7129,2.7485,2.7581,2.7258,2.8094,2.8392,2.7813,2.8332,2.8681,2.8681,2.8681,2.8695,2.8768,2.9322,2.9918,3.0674,3.1305,3.172,3.2018,3.2571,3.3214,3.3933,3.3423,3.3495,3.4119,3.4119,3.4268,3.4528,3.5102,3.5367,3.5424,3.5424,3.547,3.5532,3.5532,3.5577,3.5622,3.5622,3.5667,3.5892,2.5031,2.5126,2.5295,2.5812,2.5895,2.5895,2.5895,2.5895,2.5895,2.5895,2.5895,2.5895,2.5895,2.5895,2.5895,2.5895,2.5895,2.5895,2.5895,2.5895,2.5895,2.5895,2.5895,2.5895,2.5895,2.5895,2.5895,2.5895,2.5895,2.5895,2.5895,2.5895,2.5699,2.5327,2.5573,2.5444,2.5101,2.5249,2.5328,2.5328,2.5328,2.5249,2.5101,2.5249,2.5249,2.5101,2.5101,2.5101,2.5021,2.4872,2.4875,2.4979,2.5542,2.5927,2.6232,2.696,2.7404,2.7653,2.758,2.746,2.725,2.6822,2.6322,2.614,2.6647,2.6443,2.6267,2.6891,2.6918,2.6864,2.6986,2.6918,2.6823,2.6823,2.6823,2.687,2.7129,2.7248,2.7384,2.7579,2.8025,2.8268,2.8139,2.8481,2.8681,2.8681,2.8681,2.8898,2.9392,2.9522,2.9987,3.0734,3.0939,3.1129,3.1292,3.1452,3.1951,3.2765,3.3039,3.3287,3.3391,3.3547,3.3598,3.3684,3.3903,3.4103,3.4202,3.4202,3.4512,3.4975,3.4975,3.5224,3.5622,3.5622,3.5622,3.5853,2.4327,2.4413,2.4498,2.485,2.4935,2.5031,2.538,2.538,2.5559,2.5822,2.5895,2.5895,2.5895,2.5895,2.5895,2.5895,2.5895,2.5895,2.5895,2.5895,2.5895,2.5895,2.5895,2.5895,2.5895,2.5895,2.5895,2.5895,2.5895,2.5895,2.5895,2.5895,2.5764,2.5513,2.5513,2.5382,2.5164,2.5164,2.5164,2.5164,2.5164,2.5164,2.5131,2.4902,2.4814,2.4792,2.4563,2.4486,2.4486,2.4486,2.4486,2.4609,2.5079,2.5145,2.5305,2.5926,2.6468,2.6839,2.674,2.71,2.7311,2.7046,2.6709,2.6304,2.6059,2.5781,2.5635,2.6003,2.6216,2.641,2.6451,2.6641,2.6823,2.6823,2.6823,2.6979,2.7359,2.7583,2.7704,2.7885,2.845,2.8933,2.9111,2.9229,2.942,2.9581,2.9581,2.9726,3.006,3.0074,3.0293,3.0687,3.0702,3.0762,3.0955,3.0955,3.1234,3.1796,3.2145,3.2461,3.2841,3.2895,3.2933,3.3039,3.3339,3.3582,3.3684,3.3684,3.3887,3.4252,3.4317,3.4496,3.4752,3.4816,3.5471,3.6511,2.3627,2.3627,2.3627,2.379,2.3861,2.4095,2.4719,2.4867,2.5102,2.5701,2.5881,2.5966,2.5966,2.5986,2.6026,2.6026,2.595,2.5895,2.5895,2.5895,2.5895,2.5895,2.5895,2.5895,2.5895,2.5895,2.5895,2.5895,2.5895,2.5895,2.5895,2.5895,2.5852,2.5775,2.5775,2.5732,2.5655,2.5655,2.5655,2.5655,2.5655,2.5655,2.5611,2.5207,2.5054,2.5011,2.4628,2.4486,2.4476,2.4388,2.4355,2.4355,2.4434,2.4513,2.4602,2.506,2.5509,2.5814,2.5741,2.6314,2.6912,2.6983,2.676,2.638,2.5594,2.5332,2.5266,2.528,2.5463,2.5681,2.5823,2.6222,2.6539,2.6539,2.6695,2.6986,2.7488,2.7804,2.7913,2.7886,2.8747,2.951,2.9818,2.9917,3.0158,3.0522,3.0507,3.0522,3.0568,3.0568,3.0568,3.0568,3.0568,3.0642,3.0762,3.0762,3.0895,3.1073,3.1176,3.1552,3.2231,3.2231,3.2287,3.2437,3.2879,3.313,3.3287,3.3287,3.3339,3.3479,3.3582,3.3684,3.3802,3.4149,3.5595,3.7536,2.2794,2.2969,2.3135,2.3714,2.4132,2.4394,2.4482,2.4805,2.5048,2.5128,2.5768,2.6136,2.6136,2.6324,2.6529,2.6529,2.6147,2.5895,2.5895,2.5895,2.5895,2.5895,2.5895,2.5895,2.5895,2.5895,2.5895,2.5895,2.5895,2.5895,2.5895,2.5895,2.5677,2.5273,2.5273,2.5054,2.4683,2.4683,2.4683,2.4683,2.4683,2.4683,2.4672,2.4607,2.4585,2.4574,2.4508,2.4486,2.4421,2.3973,2.3831,2.3908,2.4292,2.4433,2.4599,2.5413,2.575,2.5784,2.5793,2.5904,2.6016,2.6318,2.6095,2.5925,2.608,2.6037,2.5729,2.5333,2.4921,2.461,2.4625,2.504,2.5402,2.5402,2.6217,2.685,2.6932,2.6945,2.7006,2.6992,2.7831,2.8497,2.8834,2.9341,2.9803,3.0172,3.0172,3.028,3.0568,3.0568,3.0568,3.0568,3.0568,3.0628,3.0642,3.0642,3.0702,3.0821,3.0881,3.1058,3.1452,3.1452,3.1509,3.164,3.1739,3.1868,3.2038,3.2038,3.2398,3.2895,3.2949,3.3235,3.3764,3.4987,3.6821,3.8622,2.2777,2.2878,2.296,2.3214,2.3458,2.3673,2.4121,2.4369,2.4579,2.4945,2.531,2.5502,2.5502,2.6057,2.6395,2.6395,2.6552,2.6682,2.6682,2.6682,2.6583,2.6321,2.631,2.6179,2.5906,2.5895,2.5895,2.5895,2.5895,2.5895,2.5895,2.5895,2.5786,2.5579,2.5579,2.5469,2.5273,2.5273,2.5273,2.5273,2.5273,2.5273,2.5251,2.4978,2.4869,2.4836,2.4574,2.4486,2.4454,2.4224,2.4148,2.4148,2.4382,2.4459,2.4448,2.4602,2.487,2.5038,2.4747,2.5025,2.5461,2.5615,2.5693,2.5777,2.5866,2.5995,2.5898,2.5059,2.5128,2.5116,2.4545,2.486,2.5117,2.4806,2.5387,2.5862,2.5922,2.6115,2.643,2.6782,2.7176,2.7569,2.7903,2.814,2.8503,2.8981,2.904,2.9172,2.9508,2.9523,2.9523,2.9523,2.9523,2.9523,2.9523,2.9523,2.958,2.9638,2.9638,3.0235,3.1278,3.1278,3.1351,3.1482,3.1482,3.1539,3.1597,3.1597,3.1811,3.212,3.2191,3.2684,3.349,3.5204,3.6621,3.7777]},{"header":{"parameterUnit":"m.s-1","parameterCategory":1,"la1":30.6,"la2":28.766,"lo1":-90.7593,"lo2":-88.6598,"dy":0.0162,"dx":0.0183,"nx":116,"ny":114,"refTime":"2024-05-07T00:00:00:Z","depth":0,"parameterNumber":3,"parameterNumberName":"V-component_of_WINDS"},"data":[0.0,0.0,0.0,0.0,0.0,0.0,0.0,0.0,0.0,0.0,0.0,0.0,0.0,0.0,0.0,0.0,0.0,0.0,0.0,0.0,0.0,0.0,0.0,0.0,0.0,0.0,0.0,0.0,0.0,0.0,0.0,0.0,0.0,0.0,0.0,0.0,0.0,0.0,0.0,0.0,0.0,0.0,0.0,0.0,0.0,0.0,0.0,0.0,0.0,0.0,0.0,0.0,0.0,0.0,0.0,0.0,0.0,0.0,0.0,0.0,0.0,0.0,0.0,0.0,0.0,0.0,0.0,0.0,0.0,0.0,0.0,0.0,0.0,0.0,0.0,0.0,0.0,0.0,0.0,0.0,0.0,0.0,0.0,0.0,0.0,0.0,0.0,0.0,0.0,0.0,0.0,0.0,0.0,0.0,0.0,0.0,0.0,0.0,0.0,0.0,0.0,0.0,0.0,0.0,0.0,0.0,0.0,0.0,0.0,0.0,0.0,0.0,0.0,0.0,0.0,0.0,0.0,0.0,0.0,0.0,0.0,0.0,0.0,0.0,0.0,0.0,0.0,0.0,0.0,0.0,0.0,0.0,0.0,0.0,0.0,0.0,0.0,0.0,0.0,0.0,0.0,0.0,0.0,0.0,0.0,0.0,0.0,0.0,0.0,0.0,0.0,0.0,0.0,0.0,0.0,0.0,0.0,0.0,0.0,0.0,0.0,0.0,0.0,0.0,0.0,0.0,0.0,0.0,0.0,0.0,0.0,0.0,0.0,0.0,0.0,0.0,0.0,0.0,0.0,0.0,0.0,0.0,0.0,0.0,0.0,0.0,0.0,0.0,0.0,0.0,0.0,0.0,0.0,0.0,0.0,0.0,0.0,0.0,0.0,0.0,0.0,0.0,0.0,0.0,0.0,0.0,0.0,0.0,0.0,0.0,0.0,0.0,0.0,0.0,0.0,0.0,0.0,0.0,0.0,0.0,0.0,0.0,0.0,0.0,0.0,0.0,0.0,0.0,0.0,0.0,0.0,0.0,0.0,0.0,0.0,0.0,0.0,0.0,0.0,0.0,0.0,0.0,0.0,0.0,0.0,0.0,0.0,0.0,0.0,0.0,0.0,0.0,0.0,0.0,0.0,0.0,0.0,0.0,0.0,0.0,0.0,0.0,0.0,0.0,0.0,0.0,0.0,0.0,0.0,0.0,0.0,0.0,0.0,0.0,0.0,0.0,0.0,0.0,0.0,0.0,0.0,0.0,0.0,0.0,0.0,0.0,0.0,0.0,0.0,0.0,0.0,0.0,0.0,0.0,0.0,0.0,0.0,0.0,0.0,0.0,0.0,0.0,0.0,0.0,0.0,0.0,0.0,0.0,0.0,0.0,0.0,0.0,0.0,0.0,0.0,0.0,0.0,0.0,0.0,0.0,0.0,0.0,0.0,0.0,0.0,0.0,0.0,0.0,0.0,0.0,0.0,0.0,0.0,0.0,0.0,0.0,0.0,0.0,0.0,0.0,0.0,0.0,0.0,0.0,0.0,0.0,0.0,0.0,0.0,0.0,0.0,0.0,0.0,0.0,0.0,0.0,0.0,0.0,0.0,0.0,0.0,0.0,0.0,0.0,0.0,0.0,0.0,0.0,0.0,0.0,0.0,0.0,0.0,0.0,0.0,0.0,0.0,0.0,0.0,0.0,0.0,0.0,0.0,0.0,0.0,0.0,0.0,0.0,0.0,0.0,0.0,0.0,0.0,0.0,0.0,0.0,0.0,0.0,0.0,0.0,0.0,0.0,0.0,0.0,0.0,0.0,0.0,0.0,0.0,0.0,0.0,0.0,0.0,0.0,0.0,0.0,0.0,0.0,0.0,0.0,0.0,0.0,0.0,0.0,0.0,0.0,0.0,0.0,0.0,0.0,0.0,0.0,0.0,0.0,0.0,0.0,0.0,0.0,0.0,0.0,0.0,0.0,0.0,0.0,0.0,0.0,0.0,0.0,0.0,0.0,0.0,0.0,0.0,0.0,0.0,0.0,0.0,0.0,0.0,0.0,0.0,0.0,0.0,0.0,0.0,0.0,0.0,0.0,0.0,0.0,0.0,0.0,0.0,0.0,0.0,0.0,0.0,0.0,0.0,0.0,0.0,0.0,0.0,0.0,0.0,0.0,0.0,0.0,0.0,0.0,0.0,0.0,0.0,0.0,0.0,0.0,0.0,0.0,0.0,0.0,0.0,0.0,0.0,0.0,0.0,0.0,0.0,0.0,0.0,0.0,0.0,0.0,0.0,0.0,0.0,0.0,0.0,0.0,0.0,0.0,0.0,0.0,0.0,0.0,0.0,0.0,0.0,0.0,0.0,0.0,0.0,0.0,0.0,0.0,0.0,0.0,0.0,0.0,0.0,0.0,0.0,0.0,0.0,0.0,0.0,0.0,0.0,0.0,0.0,0.0,0.0,0.0,0.0,0.0,0.0,0.0,0.0,0.0,0.0,0.0,0.0,0.0,0.0,0.0,0.0,0.0,0.0,0.0,0.0,0.0,0.0,0.0,0.0,0.0,0.0,0.0,0.0,0.0,0.0,0.0,0.0,0.0,0.0,0.0,0.0,0.0,0.0,0.0,0.0,0.0,0.0,0.0,0.0,0.0,0.0,0.0,0.0,0.0,0.0,0.0,0.0,0.0,0.0,0.0,0.0,0.0,0.0,0.0,0.0,0.0,0.0,0.0,0.0,0.0,0.0,0.0,0.0,0.0,0.0,0.0,0.0,0.0,0.0,0.0,0.0,0.0,0.0,0.0,0.0,0.0,0.0,0.0,0.0,0.0,0.0,0.0,0.0,0.0,0.0,0.0,0.0,0.0,0.0,0.0,0.0,0.0,0.0,0.0,0.0,0.0,0.0,0.0,0.0,0.0,0.0,0.0,0.0,0.0,0.0,0.0,0.0,0.0,0.0,0.0,0.0,0.0,0.0,0.0,0.0,0.0,0.0,0.0,0.0,0.0,0.0,0.0,0.0,0.0,0.0,0.0,0.0,0.0,0.0,0.0,0.0,0.0,0.0,0.0,0.0,0.0,0.0,0.0,0.0,0.0,0.0,0.0,0.0,0.0,0.0,0.0,0.0,0.0,0.0,0.0,0.0,0.0,0.0,0.0,0.0,0.0,0.0,0.0,0.0,0.0,0.0,0.0,0.0,0.0,0.0,0.0,0.0,0.0,0.0,0.0,0.0,0.0,0.0,0.0,0.0,0.0,0.0,0.0,0.0,0.0,0.0,0.0,0.0,0.0,0.0,0.0,0.0,0.0,0.0,0.0,0.0,0.0,0.0,0.0,0.0,0.0,0.0,0.0,0.0,0.0,0.0,0.0,0.0,0.0,0.0,0.0,0.0,0.0,0.0,0.0,0.0,0.0,0.0,0.0,0.0,0.0,0.0,0.0,0.0,0.0,0.0,0.0,0.0,0.0,0.0,0.0,0.0,0.0,0.0,0.0,0.0,0.0,0.0,0.0,0.0,0.0,0.0,0.0,0.0,0.0,0.0,0.0,0.0,0.0,0.0,0.0,0.0,0.0,0.0,0.0,0.0,0.0,0.0,0.0,0.0,0.0,0.0,0.0,0.0,0.0,0.0,0.0,0.0,0.0,0.0,0.0,0.0,0.0,0.0,0.0,0.0,0.0,0.0,0.0,0.0,0.0,0.0,0.0,0.0,0.0,0.0,0.0,0.0,0.0,0.0,0.0,0.0,0.0,0.0,0.0,0.0,0.0,0.0,0.0,0.0,0.0,0.0,0.0,0.0,0.0,0.0,0.0,0.0,0.0,0.0,0.0,0.0,0.0,0.0,0.0,0.0,0.0,0.0,0.0,0.0,0.0,0.0,0.0,0.0,0.0,0.0,0.0,0.0,0.0,0.0,0.0,0.0,0.0,0.0,0.0,0.0,0.0,0.0,0.0,0.0,0.0,0.0,0.0,0.0,0.0,0.0,0.0,0.0,0.0,0.0,0.0,0.0,0.0,0.0,0.0,0.0,0.0,0.0,0.0,0.0,0.0,0.0,0.0,0.0,0.0,0.0,0.0,0.0,0.0,0.0,0.0,0.0,0.0,0.0,0.0,0.0,0.0,0.0,0.0,0.0,0.0,0.0,0.0,0.0,0.0,0.0,0.0,0.0,0.0,0.0,0.0,0.0,0.0,0.0,0.0,0.0,0.0,0.0,0.0,0.0,0.0,0.0,0.0,0.0,0.0,0.0,0.0,0.0,0.0,0.0,0.0,0.0,0.0,0.0,0.0,0.0,0.0,0.0,0.0,0.0,0.0,0.0,0.0,0.0,0.0,0.0,0.0,0.0,0.0,0.0,0.0,0.0,0.0,0.0,0.0,0.0,0.0,0.0,0.0,0.0,0.0,0.0,0.0,0.0,0.0,0.0,0.0,0.0,0.0,0.0,0.0,0.0,0.0,0.0,0.0,0.0,0.0,0.0,0.0,0.0,0.0,0.0,0.0,0.0,0.0,0.0,0.0,0.0,0.0,0.0,0.0,0.0,0.0,0.0,0.0,0.0,0.0,0.0,0.0,0.0,0.0,0.0,0.0,0.0,0.0,0.0,0.0,0.0,0.0,0.0,0.0,0.0,0.0,0.0,0.0,0.0,0.0,0.0,0.0,0.0,0.0,0.0,0.0,0.0,0.0,0.0,0.0,0.0,0.0,0.0,0.0,0.0,0.0,0.0,0.0,0.0,0.0,0.0,0.0,0.0,0.0,0.0,0.0,0.0,0.0,0.0,0.0,0.0,0.0,0.0,0.0,0.0,0.0,0.0,0.0,0.0,0.0,0.0,0.0,0.0,0.0,0.0,0.0,0.0,0.0,0.0,0.0,0.0,0.0,0.0,0.0,0.0,0.0,0.0,0.0,0.0,0.0,0.0,0.0,0.0,0.0,0.0,0.0,0.0,0.0,0.0,0.0,0.0,0.0,0.0,0.0,0.0,0.0,0.0,0.0,0.0,0.0,0.0,0.0,0.0,0.0,0.0,0.0,0.0,0.0,0.0,0.0,0.0,0.0,0.0,0.0,0.0,0.0,0.0,0.0,0.0,0.0,0.0,0.0,0.0,0.0,0.0,0.0,0.0,0.0,0.0,0.0,0.0,0.0,0.0,0.0,0.0,0.0,0.0,0.0,0.0,0.0,0.0,0.0,0.0,0.0,0.0,0.0,0.0,0.0,0.0,0.0,0.0,0.0,0.0,0.0,0.0,0.0,0.0,0.0,0.0,0.0,0.0,0.0,0.0,0.0,0.0,0.0,0.0,0.0,0.0,0.0,0.0,0.0,0.0,0.0,0.0,0.0,0.0,0.0,0.0,0.0,0.0,0.0,0.0,0.0,0.0,0.0,0.0,0.0,0.0,0.0,0.0,0.0,0.0,0.0,0.0,0.0,0.0,0.0,0.0,0.0,0.0,0.0,0.0,0.0,0.0,0.0,0.0,0.0,0.0,0.0,0.0,0.0,0.0,0.0,0.0,0.0,0.0,0.0,0.0,0.0,0.0,0.0,0.0,0.0,0.0,0.0,0.0,0.0,0.0,0.0,0.0,0.0,0.0,0.0,0.0,0.0,0.0,0.0,0.0,0.0,0.0,0.0,0.0,0.0,0.0,0.0,0.0,0.0,0.0,0.0,0.0,0.0,0.0,0.0,0.0,0.0,0.0,0.0,0.0,0.0,0.0,0.0,0.0,0.0,0.0,0.0,0.0,0.0,0.0,0.0,0.0,0.0,0.0,0.0,0.0,0.0,0.0,0.0,0.0,0.0,0.0,0.0,0.0,0.0,0.0,0.0,0.0,0.0,0.0,0.0,0.0,0.0,0.0,0.0,0.0,0.0,0.0,0.0,0.0,0.0,0.0,0.0,0.0,0.0,0.0,0.0,0.0,0.0,0.0,0.0,0.0,0.0,0.0,0.0,0.0,0.0,0.0,0.0,0.0,0.0,0.0,0.0,0.0,0.0,0.0,0.0,0.0,0.0,0.0,0.0,0.0,0.0,0.0,0.0,0.0,0.0,0.0,0.0,0.0,0.0,0.0,0.0,0.0,0.0,0.0,0.0,0.0,0.0,0.0,0.0,0.0,0.0,0.0,0.0,0.4236,0.0,0.0,0.0,0.0,0.0,0.0,0.0,0.0,0.0,0.0,0.0,0.0,0.0,0.0,0.0,0.0,0.0,0.0,0.0,0.0,0.0,0.0,0.0,0.0,1.4766,1.4433,1.4107,1.3647,1.3228,1.2793,0.0,0.0,0.0,0.0,0.0,1.2411,1.2562,1.2764,1.2965,1.3072,1.3183,1.3395,1.3161,1.2903,1.2715,0.0,0.0,0.0,0.0,0.0,0.0,0.0,0.0,0.0,0.0,0.0,0.0,0.0,0.0,0.0,0.0,0.0,0.0,0.0,0.0,0.0,0.0,0.0,0.0,0.0,0.0,0.0,0.0,0.0,0.0,0.0,0.0,0.0,0.0,0.0,0.0,0.0,0.0,0.0,0.0,0.0,0.0,0.0,0.0,0.0,0.0,0.0,0.0,0.0,0.0,0.0,0.0,0.0,0.0,0.0,0.0,0.0,0.0,0.0,0.0,0.0,0.0,0.0,0.0,0.0,0.0,0.0,0.0,0.0,0.0,0.0,0.4469,0.0,0.0,0.0,0.0,0.0,0.0,0.0,0.0,0.0,0.0,0.0,0.0,0.0,0.0,0.0,0.0,0.0,0.0,0.0,0.0,0.0,1.4269,1.4176,1.3789,1.3447,1.3218,1.3035,1.2803,1.248,1.2635,1.2674,1.2525,1.2921,1.3129,1.3119,1.3318,1.3477,1.3606,1.3791,1.3828,1.3828,1.3828,1.3819,1.381,1.3984,0.0,0.0,0.0,0.0,0.0,0.0,0.0,0.0,0.0,0.0,0.0,0.0,0.0,0.0,0.0,0.0,0.0,0.0,0.0,0.0,0.0,0.0,0.0,0.0,0.0,0.0,0.0,0.0,0.0,0.0,0.0,0.0,0.0,0.0,0.0,0.0,0.0,0.0,0.0,0.0,0.0,0.0,0.0,0.0,0.0,0.0,0.0,0.0,0.0,0.0,0.0,0.0,0.0,0.0,0.0,0.0,0.0,0.0,0.0,0.0,0.0,0.0,0.0,0.4705,0.4716,0.4716,0.4811,0.482,0.482,0.482,0.4857,0.4942,0.0,0.0,0.0,0.0,0.0,0.0,0.0,0.0,0.0,0.0,0.0,0.0,0.0,0.0,0.0,0.0,0.0,0.0,0.0,0.0,1.4628,1.4071,1.4536,1.4398,1.3314,1.4165,1.4071,1.2421,1.3134,1.359,1.3459,1.3809,1.4288,1.4748,1.4347,1.4297,1.4779,1.5115,1.5254,1.5129,1.5682,1.5899,1.5812,1.4134,1.3341,1.3296,0.0,0.0,0.0,0.0,0.0,0.0,0.0,0.0,0.0,0.0,0.0,0.0,0.0,0.0,0.0,0.0,0.0,0.0,0.0,0.0,0.0,0.0,0.0,0.0,0.0,0.0,0.0,0.0,0.0,0.0,0.0,0.0,0.0,0.0,0.0,0.0,0.0,0.0,0.0,0.0,0.0,0.4206,0.4339,0.0,0.0,0.0,0.0,0.0,0.0,0.0,0.0,0.0,0.0,0.0,0.0,0.0,0.0,0.4726,0.4757,0.4811,0.4811,0.492,0.4969,0.4972,0.5072,0.5116,0.5116,0.5116,0.0,0.5731,0.5731,0.0,0.0,0.0,0.0,0.0,0.0,0.0,0.0,0.0,0.0,0.0,0.0,0.0,0.0,0.0,0.0,0.0,0.0,0.0,0.0,0.0,1.4201,1.4165,1.3684,1.4391,1.4494,1.359,1.4246,1.444,1.3942,1.4292,1.4681,1.4942,1.4651,1.4819,1.5515,1.5486,1.571,1.6104,1.6255,1.614,1.5786,1.4849,1.4468,1.4468,1.4146,0.0,0.0,0.0,0.0,0.0,0.0,0.0,0.0,0.0,0.0,0.0,0.0,0.0,0.0,0.0,0.0,0.0,0.0,0.0,0.0,0.0,0.0,0.0,0.0,0.0,0.0,0.0,0.0,0.0,0.0,0.0,0.0,0.0,0.0,0.0,0.0,0.0,0.0,0.0,0.4417,0.4576,0.4573,0.452,0.4453,0.0,0.0,0.0,0.0,0.0,0.0,0.0,0.0,0.0,0.4855,0.4857,0.4887,0.4953,0.5004,0.5067,0.5135,0.5189,0.5537,0.6018,0.6075,0.6427,0.6912,0.6912,0.727,0.7752,0.6046,0.5904,0.6566,0.0,0.0,0.0,0.0,0.0,0.4779,0.0,0.0,0.0,0.0,0.0,0.0,0.0,0.0,0.0,0.0,0.0,0.0,1.392,1.4061,1.415,1.4185,1.4784,1.5045,1.4779,1.5327,1.5437,1.4899,1.5219,1.5396,1.5396,1.5234,1.5468,1.5979,1.5816,1.5989,1.6503,1.6208,1.5911,1.5642,1.5303,1.5186,1.5128,1.4675,1.4515,1.4488,0.0,0.0,0.0,0.0,0.0,0.0,0.0,0.0,0.0,0.0,0.0,0.0,0.0,0.0,0.0,0.0,0.0,0.0,0.0,0.0,0.0,0.0,0.0,0.0,0.0,0.0,0.0,0.0,0.0,0.0,0.0,0.0,0.0,0.0,0.0,0.0,0.0,0.4648,0.4834,0.4789,0.4731,0.4708,0.0,0.0,0.0,0.0,0.0,0.0,0.4876,0.4909,0.4966,0.5059,0.5091,0.5148,0.5233,0.5233,0.544,0.5782,0.5782,0.6277,0.718,0.7224,0.7575,0.8234,0.8234,0.8565,0.895,0.694,0.6592,0.7289,0.7289,0.7215,0.7062,0.7215,0.667,0.5811,0.0,0.0,0.0,0.0,0.0,0.0,0.0,0.0,0.0,0.0,0.0,1.392,1.3815,1.4536,1.4957,1.4671,1.5808,1.6182,1.548,1.6291,1.6777,1.6649,1.6961,1.7102,1.7102,1.6708,1.6446,1.6255,1.6446,1.6446,1.6312,1.569,1.5748,1.6187,1.5079,1.4575,1.4565,1.4506,1.4515,1.4515,1.4488,0.0,0.0,0.0,0.0,0.0,0.0,0.0,0.0,0.0,0.0,0.0,0.0,0.0,0.0,0.0,0.0,0.0,0.0,0.0,0.0,0.0,0.0,0.0,0.0,0.0,0.0,0.0,0.0,0.0,0.0,0.0,0.0,0.0,0.0,0.0,0.0,0.0,0.0,0.4865,0.479,0.0,0.0,0.0,0.0,0.4991,0.4999,0.5002,0.5007,0.511,0.517,0.5178,0.529,0.5355,0.536,0.536,0.5856,0.6771,0.6771,0.718,0.8172,0.8266,0.8344,0.8429,0.8429,0.8429,0.8501,0.8955,0.969,1.0353,1.0353,0.9948,0.9299,1.011,0.9366,0.8139,0.0,0.0,0.0,1.5277,1.4994,1.4663,1.4387,1.4003,1.3815,1.392,1.4165,1.4351,1.4479,1.5372,1.5928,1.5915,1.699,1.7464,1.7122,1.767,1.7571,1.6675,1.7059,1.7213,1.6933,1.7056,1.6888,1.6503,1.6832,1.6765,1.6312,1.6472,1.6255,1.569,1.5245,1.4852,1.4515,1.4515,1.4565,1.4606,1.4506,1.4515,0.0,0.0,0.0,0.0,0.0,0.0,0.0,0.0,0.0,0.0,0.0,0.0,0.0,0.0,0.0,0.0,0.0,0.0,0.0,0.0,0.0,0.0,0.0,0.0,0.0,0.0,0.0,0.0,0.0,0.0,0.0,0.0,0.0,0.0,0.0,0.0,0.0,0.4836,0.477,0.0,0.0,0.4953,0.4999,0.5118,0.5127,0.5162,0.5241,0.5281,0.5303,0.5303,0.5921,0.6322,0.6414,0.7003,0.7562,0.792,0.792,0.8349,0.9294,0.9366,0.9661,1.0267,1.0267,1.0267,1.0262,1.0524,1.032,0.9816,0.9816,0.9648,0.9394,0.9725,0.915,0.8164,0.0,1.5748,0.0,1.5244,1.4766,1.4387,1.419,1.3768,1.3627,1.4118,1.4398,1.472,1.5142,1.5973,1.6597,1.6823,1.77,1.8226,1.8315,1.8319,1.7995,1.7335,1.7157,1.7168,1.7224,1.7101,1.7056,1.7134,1.7157,1.6978,1.6585,1.6585,1.6212,1.5566,1.5398,1.5185,1.5093,1.497,1.4805,1.4606,1.4565,1.4515,1.4515,0.0,0.0,0.0,0.0,0.0,0.0,0.0,0.0,0.0,0.0,0.0,0.0,0.0,0.0,0.0,0.0,0.0,0.0,0.0,0.0,0.0,0.0,0.0,0.0,0.0,0.0,0.0,0.0,0.0,0.0,0.0,0.0,0.0,0.0,0.0,0.4806,0.4887,0.4896,0.4942,0.5061,0.5072,0.5124,0.5241,0.5249,0.5445,0.5859,0.5907,0.5933,0.5933,0.6898,0.7229,0.7076,0.7935,0.8595,0.8982,0.8982,0.9506,1.0386,1.0386,1.0738,1.1262,1.1262,1.1262,1.1262,1.1262,1.082,1.004,1.004,1.0035,1.0025,1.0025,0.9692,0.9108,1.5792,1.5792,1.5748,1.5671,1.4766,1.4107,1.4457,1.3569,1.3246,1.4362,1.4628,1.4994,1.5638,1.625,1.6811,1.7388,1.7929,1.8446,1.8951,1.8213,1.8061,1.8744,1.7335,1.7,1.8084,1.6933,1.6944,1.8084,1.7501,1.7213,1.7168,1.5999,1.5654,1.6004,1.542,1.551,1.6192,1.5882,1.5249,1.4552,1.4533,1.4524,1.4515,0.0,0.0,0.0,0.0,0.0,0.0,0.0,0.0,0.0,0.0,0.0,0.0,0.0,0.0,0.0,0.0,0.0,0.0,0.0,0.0,0.0,0.0,0.0,0.0,0.0,0.0,0.0,0.0,0.0,0.0,0.0,0.0,0.0,0.6119,0.5472,0.5018,0.5023,0.5023,0.5067,0.5181,0.5192,0.5243,0.5449,0.5457,0.5874,0.6785,0.701,0.7008,0.7008,0.802,0.8105,0.7228,0.8105,0.9074,0.9956,0.9956,1.04,1.1283,1.1283,1.1283,1.1283,1.1283,1.1283,1.1283,1.1283,1.1283,1.1283,1.1273,1.1262,1.1262,1.1262,1.1262,1.1003,1.576,1.5715,1.557,1.504,1.4652,1.4376,1.4398,1.4176,1.4258,1.5096,1.5277,1.5553,1.6274,1.6753,1.7228,1.7802,1.8211,1.8567,1.8839,1.8464,1.8302,1.8476,1.7611,1.7501,1.8313,1.7963,1.7678,1.7435,1.7733,1.7342,1.6326,1.6445,1.6266,1.5769,1.5787,1.5862,1.6028,1.5964,1.577,1.5547,1.5118,1.4772,1.4515,0.0,0.0,0.0,0.0,0.0,0.0,0.0,0.0,0.0,0.0,0.0,0.0,0.0,0.0,0.0,0.0,0.0,0.0,0.0,0.0,0.0,0.0,0.0,0.0,0.0,0.0,0.0,0.0,0.0,0.0,0.0,0.0,0.6912,0.6259,0.5986,0.5899,0.6,0.6013,0.583,0.5388,0.532,0.5699,0.6505,0.66,0.6984,0.7955,0.8095,0.8123,0.8123,0.9039,0.9419,0.9157,1.0033,1.0727,1.1243,1.1243,1.1421,1.1855,1.1855,1.1855,1.1855,1.1855,1.1855,1.1855,1.1855,1.1855,1.1822,1.1483,1.1262,1.1262,1.1262,1.0911,1.0207,1.5614,1.5614,1.5468,1.5051,1.4709,1.4525,1.4651,1.4512,1.4651,1.5424,1.5513,1.5804,1.6524,1.6967,1.7454,1.8017,1.8424,1.8679,1.8798,1.8583,1.8302,1.7897,1.7556,1.7667,1.8259,1.8018,1.7788,1.7556,1.818,1.7842,1.6757,1.7061,1.6907,1.6327,1.6281,1.6384,1.6618,1.6618,1.6515,1.6346,1.59,1.5422,1.5001,1.5001,1.4939,1.4878,1.4692,1.4498,1.424,1.3463,0.0,0.0,0.0,0.0,0.0,0.0,0.0,0.0,0.0,0.0,0.0,0.0,0.0,0.0,0.0,0.0,0.0,0.0,0.0,0.0,0.0,0.0,0.0,0.0,0.8513,0.7991,0.7596,0.6842,0.6393,0.6542,0.6238,0.5967,0.6102,0.6033,0.6508,0.7516,0.7613,0.8088,0.9065,0.9069,0.9069,0.9069,1.0119,1.0431,1.0074,1.1144,1.1709,1.1844,1.1844,1.1919,1.214,1.214,1.214,0.0,1.214,1.214,1.214,1.214,1.214,0.0,0.0,0.0,0.0,0.0,1.0911,1.0472,1.5468,1.5468,1.5468,1.5312,1.4937,1.4697,1.5062,1.4743,1.4743,1.5379,1.5468,1.5783,1.6596,1.6943,1.7466,1.819,1.846,1.8614,1.8744,1.8625,1.8224,1.7313,1.7446,1.7667,1.8084,1.7556,1.7556,1.8084,1.8644,1.8508,1.7798,1.7788,1.7557,1.7214,1.6835,1.6985,1.747,1.747,1.7262,1.693,1.6711,1.6233,1.5689,1.5689,1.5624,1.5495,1.544,1.518,1.4706,1.3361,0.0,0.0,0.0,0.0,0.0,0.0,0.0,0.0,0.0,0.0,0.0,0.0,0.0,0.0,0.0,0.0,0.0,0.0,0.0,0.0,0.0,0.0,0.0,0.0,0.8802,0.9354,0.9557,0.7975,0.6891,0.7109,0.6383,0.6189,0.7097,0.7197,0.7598,0.8619,0.8632,0.9069,1.0033,0.0,0.0,0.0,0.0,1.1373,1.0466,1.1572,1.2151,1.2091,1.2091,1.2194,1.2221,1.2221,1.2221,1.2221,1.2221,1.2221,1.2221,1.2221,1.2205,1.2064,1.1828,1.1741,1.1715,1.1505,1.1429,1.1255,1.53,1.5435,1.5468,1.5312,1.521,1.5119,1.5108,1.5017,1.5062,1.53,1.5345,1.5787,1.6955,1.7047,1.7458,1.8613,1.862,1.8572,1.8476,1.8476,1.8302,1.7963,1.7963,1.803,1.8084,1.7963,1.7963,1.8084,1.8644,1.8444,1.7554,1.8009,1.7825,1.7182,1.7269,1.7394,1.747,1.747,1.7345,1.7123,1.6927,1.6349,1.5689,1.5689,1.5689,1.5624,1.531,1.5189,1.505,1.4527,1.351,1.2422,1.2151,1.1273,0.0,0.0,0.0,0.0,0.0,0.0,0.0,0.0,0.0,0.0,0.0,0.0,0.0,0.0,0.0,0.0,0.0,0.0,0.0,1.0043,1.0241,1.04,1.0626,0.9697,0.9016,0.9052,0.8888,0.8628,0.8214,0.8229,0.8591,0.9593,0.9598,1.0033,1.0997,1.1258,0.0,1.1363,1.1764,1.1978,1.1796,1.2021,1.2145,1.2344,0.0,0.0,1.2624,1.2624,1.2624,1.2624,1.2624,1.2624,1.2624,1.2624,1.2511,1.2318,1.2075,1.1978,1.1973,1.193,1.1914,1.1914,1.521,1.5244,1.5289,1.521,1.521,1.5165,1.5108,1.5108,1.5165,1.5267,1.5312,1.5694,1.6646,1.683,1.7287,1.8322,1.8513,1.8518,1.8422,1.8313,1.8205,1.8084,1.8084,1.8084,1.8084,1.8084,1.8084,1.8084,1.8919,1.8862,1.8057,1.8435,1.8288,1.7706,1.7451,1.7392,1.747,1.747,1.7392,1.7166,1.7107,1.6729,1.6294,1.6294,1.6227,1.6151,1.5833,1.5698,1.5563,1.4873,1.3893,1.2902,1.2558,1.1637,1.0653,0.0,0.0,0.0,0.0,0.0,0.0,0.0,0.0,0.0,0.0,0.0,0.0,0.0,0.0,1.018,1.0423,0.0,1.0541,1.0772,1.081,1.0891,1.1133,1.0735,1.0303,0.9786,0.9352,0.9048,0.9148,0.9244,0.9598,1.0559,1.0559,1.0871,1.1428,1.1634,1.1752,1.1871,1.2108,1.2231,1.2231,1.2344,1.2468,1.2587,1.2587,1.2651,1.2764,1.2764,1.2764,1.2764,1.2764,1.2764,1.2764,1.2764,1.2694,1.2576,1.2452,1.2352,1.214,1.214,1.214,1.214,1.5108,1.5108,1.5108,1.5108,1.5108,1.5108,1.5108,1.5108,1.5153,1.5267,1.5267,1.551,1.6174,1.6499,1.7027,1.7879,1.836,1.8518,1.8422,1.8259,1.8139,1.8084,1.8084,1.8084,1.8084,1.8084,1.8084,1.8084,1.9183,1.9369,1.8676,1.9062,1.8911,1.8307,1.7706,1.7451,1.747,1.7461,1.7323,1.7166,1.7166,1.7038,1.6908,1.6908,1.676,1.6533,1.6342,1.6202,1.5991,1.5117,1.4322,1.36,1.2813,1.2003,1.1186,1.0663,1.0513,0.0,0.0,0.0,0.0,0.0,0.0,0.0,0.0,0.0,1.0062,1.0309,1.0358,1.0433,1.0659,1.0702,1.0778,1.1015,1.1052,1.1122,1.1322,1.1262,1.1003,1.0294,0.9506,0.9331,1.012,1.0207,1.0492,1.1326,1.1418,1.1521,1.1752,1.1811,1.1925,1.2113,1.2355,1.2484,1.2484,1.2667,1.2764,1.2764,1.2764,1.2764,1.2764,1.2764,1.2764,1.2764,1.2764,1.2764,1.2764,1.2764,1.2764,1.2764,1.2764,1.2527,1.2281,1.2281,1.2281,1.2281,1.5108,1.5108,1.5108,1.5108,1.5108,1.5108,1.5108,1.5108,1.5108,1.5108,1.5108,1.5406,1.6068,1.6173,1.6641,1.7753,1.8307,1.8518,1.8422,1.8367,1.8313,1.8084,1.8084,1.8084,1.8084,1.8084,1.8084,1.8084,1.9183,1.9358,1.8775,1.9764,1.9694,1.87,1.8442,1.8056,1.747,1.7314,1.7107,1.6908,1.6908,1.6908,1.6908,1.6908,1.676,1.6533,1.6342,1.6202,1.607,1.5788,1.5133,1.4314,1.36,1.2806,1.1929,1.0812,1.0513,1.0443,0.9992,0.9922,0.9922,0.9922,0.9922,0.9976,0.0,0.0,1.0315,1.0552,1.06,1.067,1.0902,1.0945,1.1025,1.1268,1.1311,1.1235,1.1262,1.1262,1.1262,1.1176,1.1084,1.1003,1.1089,1.1176,1.1261,1.1645,1.1661,1.1763,1.1995,1.2215,1.2344,1.2371,1.2603,1.2727,1.2727,1.2754,1.2764,1.2764,1.2764,1.2764,1.2764,1.2764,1.2764,1.2764,1.2764,1.2764,1.2764,1.2764,1.2764,1.2764,1.2764,1.2732,1.2684,1.2684,1.2684,1.2684,1.5108,1.5108,1.5108,1.5108,1.5108,1.5108,1.5108,1.5108,1.5108,1.5108,1.5108,1.5188,1.5499,1.6101,1.6837,1.7634,1.8172,1.8464,1.8422,1.8313,1.8259,1.8247,1.8139,1.8139,1.8259,1.8139,1.8084,1.8084,1.8873,1.9262,1.9298,1.9625,1.9501,1.91,1.8499,1.791,1.7314,1.7107,1.6968,1.6908,1.6908,1.6908,1.6908,1.6908,1.6691,1.6403,1.6342,1.6202,0.0,1.5867,1.4991,1.389,1.3608,1.2579,1.1335,1.0663,1.0443,1.0293,0.9992,0.9922,0.9954,0.0,1.0137,1.0196,1.0439,1.0492,1.0557,1.0789,1.0837,1.0912,1.1155,1.1198,1.123,0.0,1.1262,1.1262,1.1262,1.1262,1.1262,1.1262,1.1262,1.1262,1.1262,1.1472,1.1596,1.1693,1.1822,1.2005,1.2248,1.2361,1.2474,1.2614,1.2711,1.2764,1.2764,1.2764,1.2764,1.2764,1.2764,1.2764,1.2764,1.2764,1.2764,1.2764,1.2764,1.2764,1.2764,1.2764,1.2764,1.2764,1.2764,1.2764,1.2764,1.2764,1.2764,1.2764,1.5108,1.5108,1.5108,1.5108,1.5108,1.5108,1.5108,1.5108,1.5108,1.5108,1.5108,1.5108,1.5108,1.5972,1.6761,1.7294,1.7868,1.8216,1.8302,1.8247,1.8205,1.8313,1.8205,1.8193,1.8313,1.8193,1.8084,1.8084,1.8644,1.9149,1.9552,1.9421,1.9434,1.9447,1.8506,1.7833,1.7432,1.7038,1.6908,1.6908,1.6908,1.6908,1.6908,1.6908,1.6691,1.6412,1.6342,1.6053,1.563,1.5497,1.4545,1.3382,1.3171,1.2137,1.0962,1.0519,1.0343,1.0188,1.01,1.0116,0.0,1.0342,1.039,1.0449,1.0681,1.0729,1.0799,1.1036,1.1085,1.1139,1.123,1.1262,1.1262,1.1262,1.1262,1.1262,1.1262,1.1262,1.1262,1.1262,1.1262,1.1289,1.144,1.1602,1.1725,1.179,1.2016,1.2253,1.2501,1.2511,1.2587,1.2759,1.2764,1.2764,1.2764,1.2764,1.2764,1.2764,1.2764,1.2764,1.2764,1.2764,1.2764,1.2764,1.2764,1.2764,1.2764,1.2764,1.2764,1.2764,1.2764,1.2764,1.2764,1.2764,1.2764,1.2764,1.5108,1.5108,1.5108,1.5108,1.5108,1.5108,1.5108,1.5108,1.5108,1.5108,1.5108,1.5108,1.5108,1.5614,1.6132,1.66,1.722,1.778,1.8104,1.8313,1.8313,1.8139,1.8084,1.8084,1.8084,1.8084,1.8084,1.8084,1.8644,1.9021,1.9237,1.9497,1.9709,1.9805,1.8674,1.8152,1.8104,1.7245,1.6908,1.6908,1.6908,1.6908,1.6908,1.6908,1.676,1.6533,1.6342,1.5613,1.4673,1.4609,1.4027,1.3091,1.2291,1.1855,1.1484,1.0513,1.0242,1.0331,0.0,0.0,1.0616,1.0622,1.0622,1.0686,1.0918,1.0972,1.1042,1.1289,1.1251,1.1257,1.1262,1.1262,1.1262,1.1262,1.1262,1.1262,1.1262,1.1262,1.1262,1.1262,1.1262,1.144,0.0,1.1698,1.179,1.2113,1.2264,1.2506,1.2737,1.2754,1.2754,1.2764,1.2764,1.2764,1.2764,1.2764,1.2764,1.2764,1.2764,1.2764,1.2764,1.2764,1.2764,1.2764,1.2764,1.2764,1.2764,1.2764,1.2764,1.2764,1.2764,1.2764,1.2764,1.2764,1.2764,1.2764,1.5062,1.4971,1.488,1.5062,1.5108,1.5108,1.5108,1.5108,1.5108,1.5108,1.5108,0.0,0.0,0.0,0.0,0.0,1.6961,1.7514,1.7622,1.8009,1.8247,1.8313,1.8193,1.8139,1.8313,1.8193,1.8084,1.8084,1.8256,1.8563,1.9021,1.9067,1.9269,1.946,1.8635,1.8217,1.8037,1.7235,1.6908,1.6908,1.6908,1.6908,1.6908,1.6751,1.6254,1.5621,0.0,1.5117,1.4752,1.4458,1.352,1.2365,1.1929,1.1335,1.0628,1.0346,1.0415,1.0541,1.0616,0.0,1.067,1.0826,1.0869,1.0929,1.1171,1.1225,1.1252,1.1246,1.1262,1.1262,1.1262,1.1262,1.1262,1.1262,1.1262,1.1262,1.1262,1.1262,1.1262,1.1262,1.1262,0.0,0.0,0.0,0.0,1.2274,1.2511,1.2678,1.2759,1.2764,1.2764,1.2764,1.2764,1.2764,1.2764,1.2764,1.2764,1.2764,1.2764,1.2764,1.2764,1.2764,1.2764,1.2764,1.2764,1.2764,1.2764,1.2764,1.2764,1.2764,1.2764,1.2764,1.2764,1.2764,1.2764,1.2764,0.0,1.4697,1.4651,1.4834,1.4834,0.0,0.0,0.0,0.0,0.0,0.0,0.0,0.0,0.0,0.0,0.0,0.0,1.7186,1.741,1.7852,1.8139,1.8313,1.8193,1.8139,1.8313,1.815,1.8084,1.8084,1.8084,1.8256,1.8632,1.851,1.8666,1.9011,1.8214,1.7955,1.7969,1.7235,1.6908,1.6908,1.6908,1.683,1.676,1.6673,1.5974,0.0,1.4974,1.4466,1.389,1.3593,1.2572,1.1409,1.126,1.0732,1.0269,1.0523,1.0643,1.0778,1.0869,1.0891,1.0929,1.1079,1.1112,1.1155,1.123,1.1176,1.1084,1.1084,1.0911,1.0829,1.0829,1.0911,1.1084,1.1084,1.1176,1.1262,1.1262,1.1262,1.1262,1.1262,1.1424,0.0,0.0,0.0,0.0,1.2404,1.2635,1.2764,1.2764,1.2764,1.2764,1.2764,1.2764,1.2764,1.2764,1.2764,1.2764,1.2764,1.2764,1.2764,1.2764,1.2764,1.2764,1.2764,1.2764,1.2764,1.2764,1.2764,1.2764,1.2764,1.2764,1.2764,1.2764,1.2764,1.2667,1.2467,0.0,0.0,1.4326,0.0,0.0,0.0,0.0,0.0,0.0,0.0,0.0,0.0,0.0,0.0,0.0,0.0,0.0,0.0,1.7249,1.7764,1.8061,1.803,1.8084,1.8084,1.803,1.803,1.803,1.803,1.803,1.803,1.7986,1.7807,1.7986,1.8462,1.752,1.7453,1.793,1.7207,1.689,1.6908,1.6908,1.676,1.6603,1.6603,1.5824,1.4832,1.4832,1.3745,1.2224,1.2077,1.1335,1.0443,1.031,0.0,0.0,0.0,0.0,1.1052,1.1289,1.1262,1.1262,1.1262,1.1262,1.1262,1.1262,1.0906,1.0549,1.0549,1.0294,1.0038,0.0,0.0,1.0549,1.0549,1.0906,1.1262,1.1262,1.1262,1.1267,0.0,0.0,0.0,0.0,0.0,0.0,1.2431,0.0,1.2764,1.2764,1.2764,1.2764,1.2764,1.2764,1.2764,1.2764,1.2764,1.2764,1.2764,1.2764,1.2764,1.2764,1.2764,1.2764,1.2764,1.2764,1.2764,1.2764,1.2764,1.2764,1.2764,1.2764,1.2764,1.2764,1.2764,1.2467,1.198,0.0,0.0,0.0,0.0,0.0,0.0,0.0,0.0,0.0,0.0,0.0,0.0,0.0,0.0,0.0,0.0,0.0,0.0,1.5665,1.6702,1.7254,1.7279,1.781,1.7909,1.7435,1.7435,1.7213,1.6765,1.6765,1.6765,1.6765,1.6722,1.6969,1.7431,1.6687,1.6787,1.75,1.6796,1.6642,1.6908,1.6908,1.676,1.6603,1.6403,1.5401,1.3962,1.389,1.2799,1.1484,1.1855,0.0,0.0,0.0,1.0515,1.0606,0.0,0.0,1.1273,1.1246,1.1262,1.1262,1.1262,1.1262,1.1176,1.0901,1.0727,1.0549,1.0207,1.0038,1.0038,0.0,0.0,0.0,1.012,1.0212,0.0,1.0299,1.0299,0.0,0.0,0.0,1.1504,1.228,1.2377,0.0,0.0,1.2727,1.2764,1.2764,1.2764,1.2764,1.2764,1.2764,1.2764,1.2764,1.2764,1.2764,1.2764,1.2764,1.2764,1.2764,1.2764,1.2764,1.2764,1.2764,1.2764,1.2764,1.2764,1.2764,1.2764,1.2764,1.2764,1.2764,1.2764,1.2478,1.1898,0.0,0.0,0.0,0.0,0.0,0.0,0.0,0.0,0.0,0.0,0.0,0.0,0.0,0.0,0.0,0.0,0.0,0.0,0.0,1.5871,1.6395,1.6574,1.6933,1.6933,1.6574,1.6687,1.6528,1.6187,1.6244,1.6312,1.6312,1.6312,1.6386,1.6587,1.6156,1.6336,1.6892,1.6513,1.6551,0.0,0.0,1.676,1.6473,1.6342,1.5188,1.36,1.3535,1.2432,1.1186,0.0,0.0,1.0279,1.0645,1.069,1.0702,1.1042,0.0,1.1262,1.1262,1.1262,1.1262,1.1262,1.1262,1.1176,1.0722,1.0463,1.0207,0.9777,0.9519,0.0,0.0,0.0,0.0,0.0,0.0,0.0,1.0038,1.0031,1.0224,0.0,1.0793,0.0,1.1627,1.2029,1.2331,0.0,1.2662,1.2764,1.2764,1.2764,1.2764,1.2764,1.2764,1.2764,1.2764,1.2764,1.2764,1.2764,1.2764,1.2764,1.2764,1.2764,1.2764,1.2764,0.0,1.2969,1.2969,1.3072,1.3077,1.3077,1.3077,1.3077,1.3077,1.3077,1.257,1.1765,0.0,0.0,0.0,0.0,0.0,0.0,0.0,0.0,0.0,0.0,1.2716,1.2812,0.0,0.0,0.0,0.0,0.0,0.0,0.0,0.0,1.5467,1.5847,1.5813,1.5796,1.5728,1.5843,1.5891,1.5901,1.5968,1.6026,1.6083,1.6083,1.5948,1.5776,1.5776,1.5927,1.6156,1.6211,1.6459,1.6835,1.689,1.663,1.6272,0.0,1.5117,1.3462,1.3237,1.2285,1.1111,0.0,1.0761,1.0351,1.0806,1.0816,1.0772,1.1134,1.1262,1.1262,1.1262,1.1262,1.1262,1.1262,1.1262,1.117,1.0641,1.0207,0.9864,0.9349,0.0,0.8568,0.8568,0.0,0.9174,0.9174,0.0,0.9786,0.9814,0.9972,1.0016,1.0162,1.0482,1.0801,1.0924,1.1574,1.2078,1.2078,1.257,1.2764,1.2764,1.2764,1.2764,1.2764,1.2764,1.2764,1.2764,1.2764,1.2764,1.2764,1.2764,1.2764,1.2764,1.2764,1.2764,1.2861,0.0,0.0,1.3166,1.338,1.3484,1.3484,1.3484,1.3509,1.3511,1.3537,1.2641,1.1584,0.0,0.0,0.0,0.0,0.0,0.0,0.0,0.0,0.0,0.0,1.2286,1.2812,0.0,0.0,0.0,0.0,0.0,0.0,0.0,0.0,0.0,1.444,1.531,1.5613,1.5284,1.5206,1.4982,1.4793,1.4675,1.4675,1.4793,1.4793,1.4771,1.4786,1.4786,1.4985,1.5331,1.5661,1.6037,1.645,1.6771,1.663,1.6272,1.6272,0.0,0.0,1.199,1.1329,1.1111,1.1111,1.0965,1.0818,1.1107,1.1013,1.0977,1.1268,1.1262,1.1262,1.1262,1.1262,1.1262,1.1262,1.1262,1.1089,1.0299,1.0038,0.0,0.0,0.8652,0.8568,0.8568,0.8656,0.0,0.8744,0.0,0.0,0.0,0.0,0.9296,0.0,0.0,0.0,0.0,0.0,0.0,0.0,0.0,0.0,1.2764,1.2764,1.2764,1.2764,1.2764,1.2764,1.2764,1.2764,1.2764,1.2764,1.2764,1.2764,1.2764,1.2764,1.2867,1.3072,0.0,0.0,1.3482,1.3487,1.3487,1.3487,1.3487,1.3464,1.3498,1.3538,1.2728,1.1709,0.0,0.0,0.0,0.0,0.0,0.0,0.0,1.1175,1.1124,1.0922,1.1309,1.1692,1.199,1.1909,1.1877,0.0,0.0,0.0,0.0,0.0,0.0,1.3627,1.424,1.451,1.4341,1.4341,0.0,0.0,0.0,1.4198,1.4258,0.0,0.0,0.0,1.4258,1.4475,1.4853,1.5034,1.5476,1.6053,1.5815,1.5652,1.5551,0.0,0.0,0.0,0.0,0.0,1.0962,1.0812,1.0929,1.1124,1.1158,1.1117,1.1031,1.1278,1.1262,1.1262,1.1262,1.1262,1.1262,1.1262,1.1262,1.1089,1.0212,0.0,0.0,0.0,0.8568,0.8568,0.8568,0.0,0.0,0.0,0.0,0.0,0.0,0.0,0.0,0.0,0.0,0.0,0.0,0.0,0.0,0.0,0.0,0.0,1.2764,1.2764,1.2764,1.2764,1.2764,1.2764,1.2764,1.2764,1.2764,1.2764,1.2764,1.2764,1.277,1.2931,1.299,1.3155,1.3397,0.0,1.372,1.3777,1.3846,1.3846,1.3846,1.3911,1.3898,1.3907,1.3098,1.2001,0.0,0.0,0.0,0.0,0.0,0.0,1.0522,1.0522,1.0522,1.0522,1.0522,1.0667,1.1074,1.1124,1.1175,0.0,0.0,0.0,0.0,0.0,0.0,0.0,0.0,0.0,0.0,0.0,0.0,0.0,0.0,0.0,0.0,0.0,0.0,0.0,0.0,0.0,0.0,1.4542,1.4921,0.0,0.0,0.0,0.0,0.0,0.0,0.0,0.0,0.0,0.0,1.0594,1.0855,1.1203,1.1117,1.1155,1.1185,1.1295,1.1262,1.1262,1.1262,1.1262,1.1262,1.1262,1.1262,1.1089,1.0212,0.9951,0.0,0.0,0.8568,0.8568,0.8568,0.0,0.0,0.0,0.0,0.0,0.0,0.0,0.0,0.0,0.0,0.0,0.0,0.0,0.0,0.0,0.0,0.0,1.2764,1.2764,1.2764,1.2764,1.2764,1.2764,1.2764,1.2764,1.2764,1.2764,1.2764,1.2764,1.2775,1.2972,1.3116,1.3243,1.3658,0.0,0.0,1.4089,1.4196,1.4196,1.4196,1.4196,1.4196,1.4196,1.335,1.2288,0.0,0.0,0.0,0.0,0.0,0.0,1.0522,1.0522,1.0522,1.0522,1.0522,1.0522,1.0573,1.0565,1.0573,0.0,0.0,0.0,0.0,0.0,0.0,0.0,0.0,0.0,0.0,0.0,0.0,0.0,0.0,0.0,0.0,0.0,0.0,0.0,0.0,0.0,0.0,0.0,0.0,0.0,0.0,0.0,0.0,0.0,0.0,0.0,0.0,0.0,0.0,0.0,0.0,1.0956,1.0956,1.1277,1.1585,1.1343,0.0,0.0,1.1262,1.1262,1.1262,1.1262,1.1262,1.1089,1.0212,0.0,0.0,0.8828,0.8568,0.8568,0.8568,0.8568,0.8617,0.8771,0.0,0.9096,0.0,0.0,0.0,0.0,0.0,0.0,0.0,0.0,0.0,0.0,0.0,0.0,0.0,1.2764,1.2764,1.2764,1.2764,1.2764,1.2764,1.2764,1.2764,1.2764,1.2764,1.2764,1.277,1.3012,1.3207,1.3429,0.0,0.0,0.0,1.4186,1.4196,1.4196,1.4196,1.4196,1.4196,1.4196,1.3439,1.2356,0.0,0.0,0.0,0.0,0.0,0.0,0.9984,0.988,0.9836,0.9836,0.9472,0.9368,0.9681,0.9517,0.9681,1.0411,1.0522,0.0,0.0,0.0,0.0,0.0,0.0,0.0,0.0,0.0,0.0,0.0,0.0,0.0,0.0,0.0,0.0,0.0,0.0,0.0,0.0,0.0,0.0,0.0,0.0,0.0,0.0,0.0,0.0,0.0,0.0,0.0,0.0,0.0,0.0,0.0,1.0794,1.1133,0.0,0.0,1.1262,1.1262,1.1262,1.1262,1.1262,1.1262,1.1084,1.0727,1.0125,0.0,0.9432,0.874,0.8568,0.8568,0.8568,0.8568,0.8621,0.8792,0.8997,0.0,0.0,0.0,0.0,0.0,0.0,0.0,0.0,0.0,0.0,0.0,0.0,0.0,0.0,1.2764,1.2764,1.2764,1.2764,1.2764,1.2764,1.2764,1.2764,1.2764,1.2764,1.2764,1.277,1.3001,1.327,1.3474,0.0,0.0,0.0,1.4196,1.4196,1.4196,1.4196,1.4196,1.4196,1.3779,1.3123,1.2351,0.0,0.0,0.0,0.0,0.0,0.9725,0.9354,0.9204,0.9093,0.8876,0.8408,0.8256,0.8672,0.8626,0.889,0.9784,1.0102,0.0,0.0,0.0,0.0,0.0,0.0,0.0,0.0,0.0,1.2972,1.3208,1.3208,0.0,0.0,0.0,0.0,0.0,0.0,0.0,0.0,0.0,0.0,0.0,0.0,0.0,0.0,0.0,0.0,0.0,0.0,0.0,0.0,0.0,0.0,0.0,0.0,1.105,1.1527,0.0,1.1262,1.1262,1.1262,1.1262,1.1262,1.1262,1.0819,1.0197,0.0,0.0,0.8548,0.8028,0.812,0.8296,0.8296,0.8476,0.8641,0.8865,0.9175,0.9486,0.9673,0.0,0.0,0.0,0.0,0.0,0.0,0.0,0.0,0.0,0.0,0.0,0.0,1.2764,1.2764,1.2764,1.2764,1.2764,1.2764,1.2764,1.2764,1.2764,1.2764,1.2764,1.277,1.3001,1.32,1.3389,0.0,0.0,0.0,1.4051,1.4083,1.4196,1.4196,1.4196,1.4196,1.3671,1.3237,1.2564,0.0,0.0,0.0,0.0,0.0,0.9354,0.8732,0.8626,0.8355,0.7599,0.7492,0.7492,0.7492,0.8037,0.8427,0.8421,0.9152,0.0,0.0,0.0,0.0,0.0,0.0,0.0,1.2482,1.249,1.249,1.2482,1.2482,1.2282,1.1834,0.0,0.0,0.0,0.0,0.0,0.0,0.0,0.0,0.0,0.0,0.0,0.0,0.0,0.0,0.0,0.0,0.0,0.0,0.0,0.0,0.0,0.0,1.0883,1.1262,1.1262,1.1262,1.1262,1.1262,1.1262,1.1262,1.1262,1.0463,0.9492,0.0,0.0,0.6949,0.6517,0.7048,0.7489,0.7489,0.8116,0.8686,0.9039,0.9096,0.9407,1.0258,0.0,0.0,0.0,0.0,0.0,0.0,0.0,0.0,0.0,0.0,0.0,0.0,1.2764,1.2764,1.2764,1.2764,1.2764,1.2764,1.2764,1.2764,1.2764,1.2764,1.2764,1.277,1.3001,1.3104,0.0,0.0,0.0,0.0,1.3746,1.3959,1.4196,1.4196,1.4196,1.4196,1.4191,1.3759,1.3207,0.0,0.0,0.0,0.0,0.0,0.0,0.8679,0.8408,0.8025,0.7444,0.6907,0.6745,0.7187,0.745,0.767,0.767,0.8672,0.0,0.0,0.0,0.0,0.0,0.0,0.0,1.2482,1.2305,1.2305,1.2482,1.2158,1.1965,1.1834,1.1586,1.1337,0.0,0.0,0.0,0.0,0.0,0.0,0.0,0.0,0.0,0.0,0.0,0.0,0.0,0.0,0.0,0.0,0.0,0.0,0.0,0.0,0.0,0.0,1.1262,1.1262,1.1176,1.0559,1.0824,1.1262,1.0906,1.0381,0.9593,0.8636,0.0,0.7221,0.6517,0.6605,0.6871,0.7401,0.7669,0.8135,0.8946,0.9096,0.9317,0.0,0.0,0.0,0.0,0.0,0.0,0.0,0.0,0.0,0.0,0.0,0.0,0.0,1.2764,1.2764,1.2764,1.2764,1.2764,1.2764,1.2764,1.2764,1.2764,1.2764,1.2764,1.2764,1.284,0.0,0.0,0.0,0.0,0.0,1.3561,1.3636,1.3736,1.3744,1.3751,1.3664,1.3246,1.2779,1.2226,0.0,0.0,0.0,0.0,0.0,0.0,0.8296,0.7978,0.7492,0.6642,0.6159,0.5996,0.6381,0.6696,0.6966,0.7182,0.8143,0.0,0.0,0.0,0.0,0.0,0.0,0.0,1.1988,1.1545,1.1545,1.1988,1.1149,1.0766,1.0836,1.0451,1.0066,0.9755,1.0002,1.0192,0.0,0.0,0.0,0.0,0.0,0.0,1.0513,0.0,0.0,0.0,0.0,0.0,0.0,0.0,0.0,0.0,0.0,0.0,0.0,0.0,1.0738,1.1089,1.012,1.0033,1.012,0.9758,0.9148,0.8448,0.0,0.0,0.616,0.5719,0.5811,0.6166,0.6609,0.7136,0.7771,0.8563,0.8905,0.9222,0.0,0.0,0.0,0.0,0.0,0.0,0.0,0.0,0.0,0.0,0.0,0.0,0.0,0.0,1.2764,1.2764,1.2764,1.2764,1.2764,1.2764,1.2764,1.2764,1.2764,1.2764,1.2764,1.2764,0.0,0.0,0.0,0.0,0.0,1.333,1.3421,1.3495,1.3513,1.3529,1.3447,1.3036,1.2572,1.2024,0.0,0.0,0.0,0.0,0.0,0.0,0.0,0.7391,0.6804,0.5462,0.5297,0.5297,0.5297,0.5832,0.6426,0.6977,0.7557,0.0,0.0,0.0,0.0,0.0,0.0,1.0996,1.0996,1.0281,1.0275,1.0926,0.957,0.9064,0.9204,0.9,0.8484,0.7727,0.8355,0.8742,0.8905,0.9296,0.9752,1.0142,0.9929,1.0098,0.0,0.0,0.0,0.0,0.0,0.0,0.0,0.0,0.0,0.0,0.0,0.0,0.0,0.0,0.0,0.0,0.0,0.9244,0.854,0.8181,0.7295,0.6416,0.6068,0.0,0.0,0.43,0.4924,0.5371,0.5371,0.652,0.7588,0.7902,0.8621,0.0,0.0,0.0,0.0,0.0,0.0,0.0,0.0,0.0,0.0,0.0,0.0,0.0,0.0,0.0,1.2764,1.2764,1.2764,1.2764,1.2764,1.2764,1.2764,1.2764,1.2764,1.2764,1.2764,1.2764,0.0,0.0,0.0,0.0,0.0,1.3077,1.3217,1.3427,1.3427,1.3427,1.3427,1.3427,1.312,1.2602,0.0,0.0,0.0,0.0,0.0,0.0,0.0,0.0,0.0,0.0,0.5297,0.5297,0.5297,0.5832,0.6263,0.0,0.0,0.0,0.0,0.0,0.0,0.0,1.0351,1.0155,1.0275,0.957,0.9314,0.9506,0.8742,0.8425,0.8431,0.8037,0.7712,0.7526,0.7717,0.7782,0.7872,0.826,0.8524,0.8604,0.8852,0.919,0.0,0.0,0.0,0.0,0.9084,0.9008,0.0,0.0,0.0,0.0,0.0,0.0,0.0,0.0,0.9331,0.9069,0.8894,0.0,0.9061,0.7925,0.7302,0.6684,0.0,0.5722,0.0,0.0,0.0,0.5371,0.5371,0.6077,0.6966,0.7809,0.8991,0.0,0.0,0.0,0.0,0.0,0.0,0.0,0.0,0.0,0.0,0.0,0.0,0.0,0.0,0.0,1.2764,1.2764,1.2764,1.2764,1.2764,1.2764,1.2764,1.2764,1.2764,1.2764,1.2764,1.2764,0.0,0.0,0.0,0.0,1.2845,1.2845,1.2877,1.2931,1.2931,1.2931,1.2931,1.2931,1.2631,1.2137,0.0,0.0,0.0,0.0,0.0,0.0,0.0,0.0,0.0,0.0,0.5297,0.5297,0.5297,0.5567,0.5996,0.0,0.0,0.0,0.0,0.0,0.0,1.0661,1.0358,1.0034,0.9767,0.9122,0.8801,0.8801,0.7842,0.7521,0.7847,0.7265,0.7003,0.7003,0.7138,0.733,0.7545,0.7801,0.7995,0.8108,0.8434,0.0,0.0,0.0,0.0,0.0,0.8318,0.8389,0.0,0.9387,0.9068,0.84,0.0,0.0,0.0,0.0,0.8894,0.8982,0.8364,0.8273,0.8006,0.6691,0.616,0.5805,0.5099,0.5188,0.0,0.0,0.0,0.5015,0.5371,0.5988,0.6786,0.7809,0.0,0.0,0.0,0.0,0.0,0.0,0.0,0.0,0.0,0.0,0.0,0.0,0.0,0.0,0.0,0.0,1.2764,1.2764,1.2764,1.2764,1.2764,1.2764,1.2764,1.2764,1.2764,1.2764,1.2764,1.2764,1.2764,0.0,0.0,0.0,1.2764,1.2764,1.2764,1.2764,1.2764,1.2764,1.2764,1.2764,1.2467,1.1883,0.0,0.0,0.0,0.0,0.0,0.0,0.0,0.0,0.0,0.0,0.0,0.0,0.0,0.0,0.0,0.0,0.0,0.0,0.0,0.0,1.0186,1.0415,1.0301,0.9977,0.939,0.8549,0.8166,0.8166,0.7003,0.6745,0.733,0.6679,0.642,0.642,0.6713,0.7052,0.7391,0.7564,0.7762,0.8003,0.8217,0.0,0.0,0.0,0.0,0.0,0.0,0.0,0.0,0.8932,0.8503,0.7728,0.7776,0.0,0.0,0.0,0.0,0.0,0.8097,0.7482,0.6776,0.5453,0.5013,0.4748,0.4567,0.4654,0.0,0.0,0.0,0.0,0.0,0.5988,0.0,0.0,0.0,0.0,0.0,0.0,0.0,0.0,0.0,0.0,0.0,0.0,0.0,0.0,0.0,0.0,0.0,0.0,0.0,1.2764,1.2764,1.2764,1.2764,1.2764,1.2764,1.2764,1.2764,1.2764,1.2764,1.2764,1.2764,0.0,0.0,0.0,1.2764,1.2764,1.2764,1.2764,1.2764,1.2764,1.2764,1.2662,1.237,1.1878,0.0,0.0,0.0,0.0,0.0,0.0,0.0,0.0,0.0,0.0,0.0,0.0,0.0,0.0,0.0,0.0,0.0,0.0,0.0,0.9953,0.9995,0.9703,0.9134,0.8748,0.8683,0.7391,0.6745,0.6745,0.6482,0.6482,0.6548,0.6486,0.642,0.6424,0.665,0.6788,0.6809,0.7144,0.7302,0.7347,0.7522,0.0,0.0,0.0,0.0,0.0,0.0,0.0,0.0,0.8152,0.8327,0.8035,0.7817,0.0,0.0,0.0,0.0,0.0,0.7834,0.8185,0.8097,0.6071,0.5542,0.5455,0.528,0.6163,0.6694,0.0,0.0,0.0,0.0,0.0,0.0,0.0,0.0,0.0,0.0,0.0,0.0,0.0,0.0,0.0,0.0,0.0,0.0,0.0,0.0,0.0,0.0,0.0,0.0,1.2764,1.2764,1.2764,1.2764,1.2764,1.2764,1.2764,1.2764,1.2764,1.2764,1.2764,1.2764,0.0,0.0,1.2764,1.2764,1.2764,1.2764,1.2764,1.2764,1.2764,1.2759,1.2273,1.2078,1.1883,0.0,0.0,0.0,0.0,0.0,0.0,0.0,0.0,0.0,0.0,0.0,0.0,0.0,0.0,0.0,0.0,0.0,0.0,0.0,0.973,0.9712,0.9512,0.849,0.7972,0.7972,0.7326,0.6806,0.642,0.642,0.642,0.642,0.6522,0.6562,0.6566,0.6753,0.6834,0.6851,0.7114,0.7224,0.724,0.0,0.0,0.0,0.0,0.0,0.0,0.0,0.0,0.0,0.0,0.7464,0.7516,0.714,0.0,0.0,0.0,0.0,0.0,0.6776,0.7126,0.7386,0.6596,0.6422,0.6422,0.6337,0.6602,0.6694,0.0,0.0,0.0,0.0,0.0,0.0,0.0,0.0,0.0,0.0,0.0,0.0,0.0,0.0,0.0,0.0,0.0,0.0,0.0,0.0,0.0,0.0,0.0,0.0,0.0,1.2764,1.2764,1.2764,1.2764,1.2764,1.2764,1.2764,1.2764,1.2764,1.2764,1.2764,1.2764,0.0,1.2764,1.2764,1.2764,1.2764,1.2764,1.2764,1.2662,1.2273,1.1785,1.1389,1.1096,0.0,0.0,0.0,0.0,0.0,0.0,0.0,0.0,0.0,0.0,0.0,0.0,0.0,0.0,0.0,0.0,0.0,0.0,0.0,0.9476,0.939,0.9069,0.8037,0.7521,0.7521,0.733,0.6937,0.642,0.642,0.644,0.6485,0.6627,0.6708,0.6749,0.6936,0.7017,0.7029,0.7134,0.721,0.7222,0.0,0.0,0.0,0.0,0.0,0.0,0.0,0.0,0.0,0.0,0.0,0.0,0.0,0.0,0.0,0.5422,0.5801,0.6517,0.5897,0.6245,0.6858,0.7034,0.7034,0.7126,0.7302,0.7132,0.6874,0.0,0.0,0.0,0.0,0.0,0.0,0.0,0.0,0.0,0.0,0.0,0.0,0.0,0.0,0.0,0.0,0.0,0.0,0.0,0.0,0.0,0.0,0.0,0.0,0.0,1.2764,1.2764,1.2764,1.2764,1.2764,1.2764,1.2764,1.2764,1.2764,1.2764,1.2764,1.2764,1.2764,1.2764,1.2764,1.2764,1.2764,1.2764,1.2764,1.237,1.178,1.1194,1.0703,1.0216,0.0,0.0,0.0,0.0,0.0,0.0,0.0,0.0,0.0,0.0,0.0,0.0,0.0,0.0,0.0,0.0,0.0,0.0,0.8669,0.9222,0.8941,0.7717,0.7521,0.7521,0.7521,0.6806,0.6486,0.642,0.642,0.6505,0.6676,0.6676,0.6769,0.7011,0.7127,0.7208,0.7216,0.7167,0.7165,0.7088,0.6163,0.0,0.0,0.0,0.0,0.0,0.0,0.0,0.0,0.0,0.0,0.0,0.0,0.0,0.6878,0.5341,0.5547,0.608,0.5811,0.6871,0.7929,0.7302,0.6949,0.7044,0.7933,0.8292,0.0,0.7577,0.0,0.0,0.0,0.0,0.0,0.0,0.0,0.0,0.0,0.0,0.0,0.0,0.0,0.0,0.0,0.0,0.0,0.0,0.0,0.0,0.0,0.0,0.0,0.0,0.0,1.2764,1.2764,1.2764,1.2764,1.2764,1.2764,1.2764,1.2764,1.2764,1.2764,1.2764,1.2764,1.2764,1.2764,1.2764,1.2764,1.2764,1.2764,1.2175,1.1194,1.0708,1.0117,0.9628,0.0,0.0,0.0,0.0,0.0,0.0,0.0,0.0,0.0,0.0,0.0,0.0,0.0,0.0,0.0,0.0,0.0,0.0,0.9207,0.9036,0.8678,0.8166,0.726,0.6811,0.6811,0.6548,0.642,0.642,0.6534,0.6627,0.67,0.6915,0.6981,0.6976,0.7159,0.7159,0.7007,0.6996,0.7022,0.6942,0.6553,0.6089,0.0,0.0,0.0,0.0,0.0,0.0,0.0,0.0,0.6005,0.7022,0.5836,0.6105,0.6573,0.4977,0.4834,0.5195,0.544,0.6163,0.7044,0.7661,0.7753,0.0,0.0,0.8025,0.7937,0.8116,0.8204,0.0,0.0,0.0,0.0,0.0,0.0,0.0,0.0,0.0,0.0,0.0,0.0,0.0,0.0,0.0,0.0,0.0,0.0,0.0,0.0,0.0,0.0,0.0,0.0,1.2764,1.2764,1.2764,1.2764,1.2764,1.2764,1.2764,1.2764,1.2764,1.2764,1.2764,1.2764,1.2764,1.2764,1.2764,1.2764,1.2764,1.2078,1.1585,1.1096,1.0216,0.9727,0.9628,0.0,0.0,0.0,0.0,0.0,0.0,0.0,0.0,0.0,0.0,0.0,0.0,0.0,0.0,0.0,0.0,0.0,0.0,0.8727,0.8601,0.8296,0.7842,0.6937,0.642,0.642,0.642,0.642,0.642,0.6603,0.6753,0.6867,0.711,0.7104,0.7005,0.7126,0.7099,0.6865,0.6865,0.6788,0.6788,0.6398,0.6093,0.0,0.0,0.0,0.0,0.0,0.0,0.0,0.0,0.6009,0.6784,0.555,0.572,0.6244,0.4869,0.4744,0.5216,0.5731,0.631,0.6956,0.7661,0.0,0.0,0.8021,0.7933,0.8028,0.8476,0.8568,0.0,0.0,0.0,0.0,0.0,0.0,0.0,0.0,0.0,0.0,0.0,0.0,0.0,0.0,0.0,0.0,0.0,0.0,0.0,0.0,0.0,0.0,0.0,1.2727,1.2764,1.2764,1.2764,1.2764,1.2764,1.2764,1.2764,1.2764,1.2764,1.2764,1.2764,1.2764,1.2764,1.2764,1.2764,1.2662,1.2467,1.1585,1.11,1.0801,0.992,0.9628,0.9628,0.0,0.0,0.0,0.0,0.0,0.0,0.0,0.0,0.5297,0.5297,0.5297,0.0,0.0,0.0,0.0,0.0,0.0,0.0,0.6768,0.785,0.7842,0.6482,0.642,0.642,0.642,0.642,0.642,0.642,0.6607,0.6879,0.7224,0.7228,0.7171,0.7184,0.7184,0.7099,0.6865,0.6714,0.6563,0.6483,0.547,0.524,0.5482,0.0,0.0,0.0,0.0,0.0,0.0,0.0,0.6012,0.6405,0.5087,0.5331,0.591,0.51,0.5515,0.6395,0.6823,0.7541,0.8017,0.7302,0.0,0.0,0.7489,0.8028,0.8568,0.8568,0.0,0.8568,0.0,0.0,0.0,0.0,0.0,0.0,0.0,0.0,0.0,0.0,0.0,0.0,0.0,0.0,0.0,0.0,0.0,0.0,0.0,0.0,0.0,0.0,1.2635,1.2759,1.2759,1.2759,1.2759,1.2759,1.2764,1.2764,1.2764,1.2764,1.2764,1.2764,1.2764,1.2764,1.2764,1.2764,1.2467,1.198,1.1389,1.09,1.0314,0.9821,0.9628,0.9628,0.0,0.0,0.0,0.0,0.0,0.0,0.0,0.0,0.5297,0.5297,0.5297,0.0,0.0,0.0,0.0,0.0,0.0,0.0,0.7588,0.7751,0.7587,0.7199,0.6679,0.642,0.642,0.642,0.6477,0.6599,0.6786,0.6997,0.7228,0.7203,0.713,0.7019,0.6868,0.6641,0.649,0.6412,0.6412,0.6335,0.6022,0.6025,0.6025,0.0,0.0,0.0,0.0,0.0,0.0,0.0,0.0,0.0,0.6251,0.6203,0.6339,0.5719,0.5719,0.6153,0.6861,0.78,0.0,0.8169,0.0,0.0,0.0,0.8028,0.0,0.0,0.0,0.0,0.0,0.0,0.0,0.0,0.0,0.0,0.0,0.0,0.0,0.0,0.0,0.0,0.0,0.0,0.0,0.0,0.0,0.0,0.0,0.0,0.0,0.0,1.2226,1.2352,1.2352,1.2431,1.2517,1.2517,1.2684,1.2764,1.2764,1.2764,1.2764,1.2764,1.2764,1.2565,1.2175,1.178,1.1785,1.1878,1.0998,1.0507,1.0314,0.9821,0.9628,0.9628,0.0,0.0,0.0,0.0,0.0,0.0,0.0,0.0,0.5466,0.5301,0.5297,0.5297,0.0,0.0,0.0,0.0,0.0,0.0,0.725,0.7402,0.7396,0.7068,0.6613,0.642,0.642,0.642,0.6538,0.6786,0.6828,0.6937,0.7183,0.713,0.6945,0.6788,0.6637,0.649,0.6338,0.6338,0.6338,0.6338,0.6338,0.6338,0.6338,0.0,0.0,0.0,0.0,0.0,0.0,0.0,0.0,0.0,0.6718,0.6563,0.6578,0.6431,0.6496,0.6903,0.7765,0.8534,0.0,0.8837,0.9139,0.9329,0.8723,0.0,0.0,0.0,0.0,0.0,0.0,0.0,0.0,0.0,0.0,0.0,0.0,0.0,0.0,0.0,0.0,0.0,0.0,0.0,0.0,0.0,0.0,0.0,0.0,0.0,0.0,0.0,1.2,1.214,1.214,1.2194,1.2269,1.2269,1.2511,1.2528,1.2336,1.2624,1.2667,1.2467,1.2273,1.1975,1.1688,1.1292,1.1292,1.1292,1.0609,1.0314,1.0019,0.9727,0.9628,0.9628,0.0,0.0,0.7257,0.7139,0.0,0.0,0.0,0.0,0.5686,0.5352,0.5297,0.5297,0.0,0.0,0.0,0.0,0.0,0.0,0.6219,0.6966,0.7134,0.6416,0.642,0.642,0.642,0.642,0.6595,0.7023,0.6742,0.6845,0.7184,0.7019,0.6791,0.6563,0.6563,0.649,0.6338,0.6338,0.6338,0.6338,0.6338,0.6338,0.6338,0.6338,0.0,0.0,0.0,0.0,0.0,0.0,0.0,0.0,0.6795,0.6641,0.6791,0.7092,0.7663,0.8194,0.8783,0.0,0.0,0.9056,0.8861,0.0,0.0,0.0,0.0,0.0,0.0,0.0,0.0,0.0,0.0,0.0,0.0,0.0,0.0,0.0,0.0,0.0,0.0,0.0,0.0,0.0,0.0,0.0,0.0,0.0,0.0,0.0,0.0,0.0,1.1876,1.2075,1.2075,1.2097,1.2016,0.0,1.2264,1.2094,1.1632,1.2357,1.2467,1.1883,1.1389,1.1194,1.1194,1.1096,1.0801,1.0413,1.0314,1.0019,0.9628,0.9628,0.9628,0.9628,0.0,0.0,0.7413,0.7257,0.0,0.0,0.0,0.0,0.0,0.5352,0.0,0.0,0.0,0.0,0.0,0.0,0.0,0.0,0.6339,0.6527,0.6548,0.642,0.642,0.642,0.642,0.642,0.6595,0.7023,0.6952,0.6992,0.7184,0.7019,0.6791,0.6563,0.6412,0.6338,0.6338,0.6338,0.6338,0.6338,0.6338,0.6338,0.6338,0.6338,0.6338,0.0,0.0,0.0,0.0,0.0,0.0,0.0,0.7026,0.718,0.733,0.7403,0.7739,0.8117,0.8115,0.8666,0.0,0.0,0.8346,0.8381,0.0,0.0,0.0,0.0,0.0,0.0,0.0,0.0,0.0,0.0,0.0,0.0,0.0,0.0,0.0,0.0,0.0,0.0,0.0,0.0,0.0,0.0,0.0,0.0,0.0,0.0,0.0,1.1429,1.1478,1.1499,1.1499,1.1682,1.1774,0.0,1.1645,1.1569,1.1492,1.199,1.1883,1.1292,1.0801,1.0806,1.1096,1.0314,1.0117,1.0314,0.992,0.9723,0.9628,0.9628,0.9628,0.9628,0.0,0.0,0.0,0.0,0.0,0.0,0.0,0.0,0.0,0.0,0.0,0.0,0.0,0.0,0.0,0.0,0.5888,0.6038,0.6396,0.642,0.642,0.642,0.642,0.642,0.642,0.642,0.6595,0.7023,0.7023,0.7062,0.7184,0.7019,0.6791,0.6563,0.649,0.6412,0.6338,0.6338,0.6338,0.6338,0.6338,0.6338,0.6338,0.6338,0.6338,0.6338,0.6338,0.0,0.0,0.0,0.0,0.0,0.0,0.0,0.7561,0.7714,0.7949,0.8051,0.7996,0.0,0.0,0.8324,0.0,0.0,0.0,0.0,0.0,0.0,0.0,0.0,0.0,0.0,0.0,0.0,0.0,0.0,0.0,0.0,0.0,0.0,0.0,0.0,0.0,0.0,0.0,0.0,0.0,0.0,0.0,1.0992,1.0992,1.0992,1.0824,1.0738,1.0992,1.0937,1.0911,1.0911,1.0865,1.0842,1.0677,1.0996,1.0997,1.0801,1.0216,1.0216,1.0413,0.9821,0.9727,1.0019,0.9727,0.9628,0.9628,0.9628,0.9628,0.9628,0.0,0.0,0.0,0.0,0.0,0.0,0.0,0.0,0.0,0.0,0.0,0.0,0.0,0.0,0.0,0.0,0.0,0.0,0.6396,0.642,0.642,0.642,0.642,0.642,0.642,0.642,0.6595,0.7023,0.7023,0.7066,0.7257,0.7022,0.6791,0.6563,0.6563,0.649,0.6338,0.6338,0.6338,0.6338,0.6338,0.6338,0.6338,0.6338,0.6338,0.6338,0.6338,0.6338,0.6335,0.6714,0.0,0.0,0.0,0.0,0.7561,0.7872,0.8025,0.8102,0.8025,0.0,0.8435,0.8291,0.8078,0.0,0.0,0.0,0.0,0.0,0.0,0.0,0.0,0.0,0.0,0.0,0.0,0.0,0.0,0.0,0.0,0.0,0.0,0.0,0.0,0.0,0.0,0.0,0.0,0.0,1.0636,1.0636,1.0549,1.0463,1.0207,1.0125,1.0463,1.0207,1.0038,1.0043,1.0121,0.9953,0.9701,0.9849,1.0045,1.0164,0.9776,0.96,0.9628,0.9628,0.9628,0.9628,0.9628,0.9628,0.9628,0.9628,0.9628,0.9628,0.0,0.0,0.0,0.0,0.0,0.0,0.0,0.0,0.0,0.0,0.574,0.5631,0.0,0.0,0.5661,0.5868,0.6088,0.6201,0.6404,0.0,0.0,0.642,0.642,0.642,0.642,0.642,0.6595,0.7023,0.7023,0.7135,0.7484,0.7257,0.6949,0.6563,0.6563,0.649,0.6338,0.6338,0.6338,0.6338,0.6338,0.6338,0.6338,0.6338,0.6338,0.6338,0.6338,0.6338,0.6338,0.6338,0.6641,0.0,0.0,0.0,0.0,0.7561,0.7795,0.8025,0.0,0.0,0.7642,0.0,0.7737,0.7793,0.0,0.0,0.0,0.0,0.0,0.0,0.0,0.0,0.0,0.0,0.0,0.0,0.0,0.0,0.0,0.0,0.0,0.0,0.0,0.0,0.0,0.0,0.0,0.0,1.0636,1.0636,1.0463,1.0125,1.0038,1.0038,1.0125,1.0038,1.0038,1.0038,0.9634,0.9309,0.8947,0.8972,0.9165,0.9489,0.9489,0.9482,0.9628,0.9628,0.9628,0.9628,0.9628,0.9628,0.9628,0.9628,0.9628,0.9628,0.0,0.0,0.0,0.0,0.0,0.0,0.0,0.0,0.0,0.0,0.0,0.578,0.0,0.5682,0.5726,0.6072,0.6166,0.6285,0.6404,0.642,0.642,0.642,0.642,0.642,0.642,0.642,0.6595,0.7023,0.7023,0.7208,0.7484,0.7407,0.718,0.6949,0.6949,0.6795,0.6486,0.6486,0.6412,0.6338,0.6338,0.6338,0.6486,0.6486,0.6563,0.6641,0.6641,0.6641,0.6641,0.6799,0.6949,0.7099,0.7176,0.0,0.0,0.0,0.7638,0.7714,0.7561,0.7484,0.7484,0.0,0.7545,0.7606,0.0,0.0,0.0,0.0,0.0,0.0,0.0,0.0,0.0,0.0,0.0,0.0,0.0,0.0,0.0,0.0,0.0,0.0,0.0,0.0,0.0,0.0,0.0,1.0814,1.0636,1.0381,1.0207,1.0038,0.9519,0.9349,0.9607,0.9349,0.9174,0.9174,0.8999,0.887,0.8678,0.8678,0.8873,0.9214,0.9311,0.9401,0.9482,0.9587,0.9628,0.9628,0.9628,0.9628,0.9628,0.9628,0.9628,0.9628,0.0,0.0,0.0,0.0,0.0,0.0,0.0,0.0,0.0,0.0,0.0,0.0,0.0,0.0,0.0,0.0,0.6379,0.6403,0.6412,0.642,0.642,0.642,0.642,0.642,0.642,0.6465,0.6639,0.7023,0.7001,0.7179,0.7484,0.7484,0.7407,0.7257,0.7257,0.7026,0.6637,0.6637,0.6563,0.6412,0.6412,0.6486,0.6714,0.6795,0.6945,0.7019,0.7019,0.7019,0.7096,0.7099,0.0,0.0,0.0,0.0,0.0,0.0,0.0,0.0,0.0,0.0,0.7484,0.7484,0.7484,0.7484,0.0,0.0,0.0,0.0,0.0,0.0,0.0,0.0,0.0,0.0,0.0,0.0,0.0,0.0,0.0,0.0,0.0,0.0,0.0,0.0,0.0,0.0,0.0,1.0727,1.0636,1.0294,1.012,1.0038,0.9174,0.8915,0.9262,0.8828,0.8568,0.8568,0.8568,0.8568,0.8568,0.8568,0.871,0.8974,0.9145,0.9271,0.9364,0.9502,0.9587,0.9628,0.9628,0.9628,0.9628,0.9628,0.9628,0.9628,0.0,0.0,0.0,0.0,0.0,0.0,0.0,0.0,0.0,0.0,0.0,0.0,0.6706,0.7355,0.7551,0.6773,0.6759,0.6736,0.6416,0.642,0.642,0.642,0.642,0.0,0.642,0.6591,0.6769,0.7023,0.7127,0.7305,0.7484,0.7484,0.7484,0.7484,0.7257,0.7099,0.6865,0.6714,0.6714,0.6865,0.6637,0.6714,0.6942,0.7326,0.7484,0.7484,0.7484,0.0,0.0,0.0,0.0,0.0,0.0,0.0,0.0,0.0,0.0,0.0,0.0,0.7484,0.0,0.7484,0.0,0.0,0.0,0.0,0.0,0.0,0.0,0.0,0.0,0.0,0.0,0.0,0.0,0.0,0.0,0.0,0.0,0.0,0.0,0.0,0.0,0.0,0.0,0.0,0.0,1.1084,1.0636,1.0549,1.0381,1.0038,0.9519,0.9262,0.9262,0.8828,0.8568,0.8568,0.8568,0.8568,0.8568,0.8568,0.8576,0.8605,0.8775,0.9039,0.9356,0.9364,0.947,0.9628,0.9628,0.9628,0.9628,0.9628,0.9628,0.9628,0.0,0.0,0.0,0.0,0.0,0.0,0.0,0.0,0.0,0.0,0.0,0.0,0.0,0.7557,0.7578,0.7274,0.7288,0.7265,0.7134,0.7134,0.7134,0.7134,0.6876,0.6749,0.6749,0.6734,0.6777,0.7023,0.7135,0.7313,0.7484,0.7484,0.7484,0.7484,0.7407,0.7553,0.7851,0.7774,0.7702,0.7702,0.83,0.8376,0.8075,0.8537,0.0,0.0,0.0,0.0,0.0,0.0,0.0,0.0,0.0,0.0,0.0,0.0,0.0,0.0,0.0,0.0,0.0,0.7484,0.0,0.0,0.0,0.0,0.0,0.0,0.0,0.0,0.0,0.0,0.0,0.0,0.0,0.0,0.0,0.0,0.0,0.0,0.0,0.0,0.0,0.0,0.0,0.0,0.0,0.0,1.0632,1.0299,1.0055,0.9971,0.9219,0.8716,0.8459,0.8414,0.839,0.839,0.8511,0.8568,0.8568,0.8568,0.8568,0.8572,0.8629,0.8792,0.9023,0.9141,0.9295,0.9453,0.9453,0.9527,0.9628,0.9628,0.9628,0.9628,0.0,0.0,0.0,0.0,0.0,1.0462,1.0036,0.9625,0.9309,0.9128,0.0,0.0,0.0,0.0,0.8748,0.821,0.7842,0.7657,0.7657,0.7591,0.7591,0.7657,0.733,0.717,0.7304,0.7103,0.7155,0.7474,0.753,0.7684,0.7863,0.7791,0.7863,0.8089,0.794,0.8089,0.8537,0.8685,0.8761,0.8761,0.9432,0.9281,0.8761,0.0,0.0,0.0,0.0,0.0,0.0,0.0,0.0,0.0,0.0,0.0,0.0,0.0,0.0,0.0,0.8089,0.0,0.0,0.0,0.0,0.0,0.0,0.0,0.0,0.0,0.0,0.0,0.0,0.0,0.0,0.0,0.0,0.0,0.0,0.0,0.0,0.0,0.0,0.0,0.0,0.0,0.0,0.0,0.0,0.0,1.0638,1.0308,1.007,0.9907,0.9169,0.8591,0.818,0.8217,0.8195,0.8199,0.8385,0.8475,0.8475,0.854,0.8568,0.8568,0.8568,0.8666,0.8828,0.8954,0.9108,0.9275,0.9332,0.9429,0.9543,0.9604,0.9628,0.9628,0.0,0.0,1.2903,1.2903,1.2729,1.261,1.261,1.2231,1.184,1.1431,0.0,0.0,0.0,0.0,0.0,0.9615,0.8619,0.8052,0.8052,0.7857,0.7797,0.8062,0.7731,0.7763,0.8185,0.786,0.799,0.8475,0.8406,0.851,0.8703,0.8327,0.8551,0.9296,0.8927,0.8775,0.8851,0.9372,0.9744,0.997,0.0,0.9523,0.8851,0.0,0.0,0.0,0.9965,1.0559,0.0,0.0,0.0,0.0,0.0,0.0,0.0,0.0,0.0,0.0,0.0,0.0,0.0,0.0,0.0,0.0,0.0,0.0,0.0,0.0,0.0,0.0,0.0,0.0,0.0,0.0,0.0,0.0,0.0,0.0,0.0,0.0,0.0,0.0,0.0,0.0,0.0,0.0,0.0,1.0616,1.0616,1.0616,1.0374,0.9887,0.9471,0.9064,0.8578,0.825,0.8004,0.8008,0.8195,0.8284,0.8296,0.8479,0.8564,0.8568,0.8568,0.8662,0.8812,0.8812,0.8922,0.9104,0.9275,0.9348,0.9376,0.9555,0.9624,0.9628,0.0,1.3068,1.3013,1.2903,1.25,1.2261,1.2261,1.1865,1.1503,0.0,0.0,0.0,1.0898,1.0662,1.0142,0.9198,0.8882,0.8694,0.8694,0.8694,0.8772,0.9014,0.8692,0.8929,0.9839,0.9053,0.899,0.9674,0.9273,0.902,0.8927,0.9226,0.9448,0.9523,1.0501,1.0807,1.0657,1.0657,0.0,1.0807,1.1248,1.1391,0.0,0.0,0.0,0.0,0.0,1.3339,1.2976,0.0,1.3172,1.2597,0.0,0.0,0.0,0.0,0.0,0.0,1.0265,0.0,0.0,0.0,0.0,0.0,0.0,0.0,0.0,0.0,0.0,0.0,0.0,0.0,0.0,0.0,0.0,0.0,0.0,0.0,0.0,0.0,0.0,0.0,0.0,0.0,0.0,0.0,1.0116,1.0116,1.0116,1.0116,0.989,0.9509,0.9349,0.9111,0.8645,0.8713,0.8546,0.8302,0.8418,0.8413,0.8292,0.8345,0.8438,0.8568,0.8568,0.8597,0.8637,0.8637,0.8739,0.8901,0.895,0.9125,0.936,0.9413,0.9514,0.9628,1.3686,1.3686,1.3686,1.3573,1.327,1.3032,1.3032,1.268,1.2457,0.0,0.0,0.0,1.2266,1.1267,1.0631,1.0695,1.0451,1.038,1.0502,1.0502,1.0507,1.0747,1.0153,1.0137,1.0944,0.9882,0.9652,1.0346,0.9887,0.9809,1.0126,1.034,1.0708,1.123,1.1896,1.2204,1.2305,1.215,0.0,0.0,1.2439,0.0,0.0,1.2924,1.3353,0.0,0.0,0.0,1.4227,1.5005,1.4633,0.0,0.0,0.0,0.0,0.0,0.0,0.0,0.0,0.0,0.0,0.0,0.0,0.0,1.0932,1.0944,0.0,0.0,0.0,0.0,0.0,0.0,0.0,0.0,0.0,0.0,0.0,0.0,0.0,0.0,0.0,0.0,0.0,0.0,0.0,1.0663,1.0143,0.9922,0.9922,0.9922,0.9771,0.9544,0.9397,0.917,0.8937,0.8904,0.8732,0.8498,0.8542,0.8449,0.8317,0.8307,0.8349,0.8455,0.8532,0.8568,0.8568,0.8568,0.8625,0.8723,0.8792,0.895,0.9149,0.9299,0.9421,0.9527,0.0,1.4575,1.4575,1.4515,1.4446,1.4327,1.4327,1.4139,1.401,0.0,1.3925,1.377,1.3571,1.2476,1.2122,1.3012,1.2584,1.2387,1.2759,1.2624,1.2571,1.2766,1.1799,1.152,1.2013,1.0879,1.0498,1.0956,1.073,1.1028,1.1848,1.1533,1.2191,1.3528,1.3201,1.3215,1.363,1.3564,1.3266,1.2886,1.3462,1.3375,0.0,0.0,1.3628,0.0,1.4268,1.472,1.51,1.6245,1.5948,0.0,0.0,0.0,0.0,0.0,1.3455,0.0,0.0,0.0,0.0,0.0,0.0,0.0,1.1822,1.197,1.2271,0.0,0.0,0.0,0.0,0.0,0.0,0.0,0.0,0.0,0.0,0.0,0.0,0.0,0.0,0.0,0.0,1.1186,1.1111,1.1632,1.0738,1.0067,1.0067,1.0067,1.0067,0.9997,0.962,0.9397,0.9397,0.9084,0.8851,0.878,0.8732,0.8593,0.8471,0.8412,0.8421,0.8381,0.8549,0.8548,0.8568,0.8568,0.8568,0.858,0.8735,0.8804,0.8861,0.9177,0.9307,0.9352,1.4911,1.4921,1.4852,1.4666,1.4656,1.4606,1.4506,1.4327,1.4267,1.4267,1.4346,1.4205,1.3626,1.3638,1.3517,1.3185,1.306,1.3017,1.3094,1.3086,1.3141,1.3416,1.3209,1.3507,1.4506,1.3637,1.3452,1.4027,1.3382,1.2954,1.2945,1.3302,1.3585,1.3939,1.4178,1.433,1.4394,1.4194,0.0,1.4178,1.3528,0.0,1.4681,1.4879,1.5296,1.5948,1.6446,1.6655,1.6742,0.0,1.6821,1.6473,0.0,0.0,0.0,0.0,0.0,0.0,0.0,0.0,0.0,0.0,0.0,0.0,1.397,1.3673,1.3528,0.0,0.0,0.0,0.0,0.0,0.0,0.0,0.0,0.0,0.0,0.0,0.0,0.0,0.0,0.0,0.0,1.1558,1.1558,1.1706,1.1484,1.1335,1.1335,1.1335,1.1111,1.0663,1.0513,1.0293,0.9771,1.0212,0.9986,0.917,1.0111,1.0001,0.8867,0.9011,0.8982,0.8789,0.8495,0.843,0.8568,0.8568,0.8568,0.8572,0.8605,0.8698,0.8828,0.8901,0.9019,0.9173,1.5029,1.497,1.497,1.4843,1.4775,1.4656,1.4606,1.4506,1.4459,1.466,1.489,1.487,1.4478,1.4651,1.4775,1.4488,1.4572,1.4723,1.4891,1.4908,1.4984,1.5247,1.4882,1.4895,1.5446,1.472,1.4363,1.4601,1.4171,1.4099,1.4178,1.4474,1.4895,1.5455,1.548,1.548,1.5455,1.5188,1.5117,1.518,1.4601,0.0,1.57,1.5965,1.6385,1.6959,1.7097,1.7245,1.7314,1.7235,1.7038,0.0,0.0,1.6612,1.6403,0.0,1.5912,1.585,0.0,0.0,0.0,1.5417,0.0,0.0,0.0,1.4911,1.4625,0.0,0.0,0.0,0.0,0.0,0.0,0.0,0.0,0.0,0.0,0.0,0.0,0.0,0.0,0.0,0.0,1.2305,1.2003,1.1706,1.2003,1.2003,1.1706,1.1706,1.1558,1.126,1.126,1.1111,1.0812,1.1111,1.0812,1.0067,1.0738,1.043,0.9184,0.9428,0.9279,0.8677,0.8623,0.8512,0.8438,0.8528,0.8568,0.8568,0.8568,0.8621,0.8706,0.8787,0.8881,0.8986,1.5166,1.5147,1.5088,1.5029,1.4968,1.4887,1.4887,1.4861,1.4906,1.53,1.556,1.5752,1.5557,1.5807,1.598,1.6184,1.6355,1.656,1.6793,1.6811,1.689,1.7047,1.6376,1.607,1.607,1.5429,1.5076,1.4879,1.4879,1.51,1.5559,1.5559,1.6053,1.6968,1.6621,1.6464,1.6446,0.0,0.0,1.6114,0.0,1.5965,1.6272,1.676,1.7107,1.7235,1.7373,1.752,1.7676,1.7451,0.0,1.7038,1.7166,1.6959,0.0,0.0,0.0,0.0,0.0,0.0,0.0,0.0,0.0,1.6202,0.0,0.0,0.0,0.0,0.0,0.0,0.0,0.0,0.0,0.0,0.0,0.0,0.0,0.0,0.0,0.0,0.0,0.0,0.0,1.3258,1.2739,1.2077,1.2599,1.2666,1.2077,1.2077,1.2003,1.1855,1.1855,1.1855,1.1706,1.1855,1.1558,1.0962,1.1335,1.0962,0.9776,1.0105,0.9823,0.9025,0.9238,0.9167,0.8887,0.9087,0.917,0.917,0.874,0.8568,0.8584,0.8723,0.8771,0.8796,1.5751,1.5624,1.5498,1.5215,1.5453,1.5632,1.551,1.5813,1.6005,1.6053,1.6439,1.6779,1.6892,1.7207,0.0,1.7726,0.0,0.0,1.7569,0.0,1.751,1.747,1.7323,1.7323,1.7323,1.7176,1.7097,1.6881,1.6881,1.6821,1.6691,1.6691,1.6899,1.7166,1.7097,0.0,0.0,0.0,1.6968,0.0,1.7088,1.6811,0.0,1.7028,1.7314,1.7529,1.7998,1.8279,1.8347,0.0,1.7794,1.7579,0.0,1.7166,0.0,0.0,0.0,0.0,0.0,0.0,0.0,0.0,1.6272,0.0,0.0,0.0,0.0,0.0,0.0,0.0,0.0,0.0,0.0,0.0,0.0,0.0,0.0,0.0,0.0,0.0,0.0,0.0,0.0,0.0,1.4057,1.3346,1.3695,1.3768,1.3346,1.3273,1.3046,1.2526,1.2526,1.2224,1.1706,1.2224,1.2157,1.1632,1.2673,1.2599,1.1409,1.1645,1.1483,1.1045,1.1004,1.1002,1.1128,1.1288,1.1391,1.1133,0.934,0.8568,0.8568,0.8589,0.8597,0.8621,1.6867,1.6656,1.6608,1.6426,1.639,1.6383,1.6321,1.6498,1.658,1.658,1.6949,1.7282,0.0,0.0,0.0,0.0,0.0,1.8405,0.0,0.0,1.8269,1.8076,1.8076,1.8076,1.8076,1.8076,1.794,1.7657,1.7657,1.7529,1.7254,1.7314,1.751,1.7852,1.791,0.0,1.793,0.0,0.0,0.0,0.0,0.0,0.0,1.7588,1.7794,1.8008,1.8279,1.8482,1.8482,0.0,1.8066,0.0,0.0,0.0,0.0,0.0,0.0,0.0,0.0,0.0,0.0,0.0,0.0,0.0,0.0,0.0,1.6473,0.0,0.0,0.0,0.0,0.0,0.0,0.0,0.0,0.0,0.0,0.0,0.0,0.0,0.0,0.0,0.0,0.0,0.0,0.0,0.0,1.392,1.3492,1.3492,1.3346,1.3119,1.3119,1.2973,1.2746,1.2973,1.2826,1.2224,1.3119,1.29,1.1706,1.2144,1.1906,1.1211,1.1313,1.1329,1.1334,1.15,1.1685,1.1815,1.0794,1.0284,1.0207,1.0207,1.0207,1.013,1.843,1.7788,1.7346,1.7284,1.7186,1.7115,1.7179,1.7278,1.7292,1.7226,0.0,0.0,1.7735,1.8076,0.0,0.0,0.0,1.9131,0.0,0.0,1.8875,0.0,0.0,0.0,0.0,1.8549,1.8414,1.8144,1.8144,1.8008,1.7803,1.7862,1.8056,1.8337,0.0,1.8596,1.8674,0.0,0.0,1.8539,1.8472,1.8472,1.8529,1.8337,1.8337,1.8472,1.8674,1.8818,1.8818,1.8684,1.8539,0.0,1.8549,0.0,0.0,0.0,0.0,0.0,1.7176,0.0,0.0,0.0,0.0,0.0,0.0,0.0,0.0,0.0,0.0,0.0,0.0,0.0,0.0,0.0,0.0,0.0,0.0,0.0,0.0,0.0,0.0,0.0,0.0,0.0,0.0,0.0,0.0,0.0,1.371,1.3564,1.3492,1.3492,1.3492,1.3492,1.3492,1.3492,1.3273,1.2826,1.3273,1.3046,1.2224,1.2673,1.2452,1.18,1.1993,1.2073,1.1964,1.2219,1.2474,1.2741,1.2559,1.2425,1.2174,1.1494,1.1327,1.1327,2.0491,1.8848,1.7471,1.7336,1.7627,1.7921,1.8228,1.824,0.0,0.0,0.0,0.0,0.0,0.0,0.0,0.0,0.0,1.9977,1.9868,0.0,1.9386,0.0,0.0,1.8674,0.0,0.0,1.8482,1.8482,1.8482,1.8482,1.8482,1.8482,1.8482,1.8482,1.8674,1.8875,1.9065,1.9065,1.9407,1.9802,1.9605,1.9726,1.9966,0.0,1.8942,1.8875,1.9407,0.0,0.0,1.9208,1.9274,0.0,0.0,0.0,0.0,0.0,0.0,0.0,0.0,0.0,0.0,1.7529,0.0,0.0,0.0,0.0,1.7392,0.0,0.0,0.0,0.0,0.0,1.6908,1.6908,1.6908,0.0,0.0,0.0,0.0,0.0,0.0,0.0,0.0,0.0,0.0,0.0,0.0,0.0,1.4129,1.3702,1.3492,1.3492,1.3492,1.3492,1.3492,1.3492,1.3492,1.3492,1.3492,1.3499,1.3419,1.3492,1.3419,1.3441,1.3761,1.3906,1.3965,1.4352,1.4536,1.449,1.4622,1.4566,1.4307,1.2095,1.1327,1.1327,2.1346,2.0659,1.9857,0.0,0.0,0.0,0.0,1.8405,0.0,0.0,0.0,0.0,0.0,0.0,1.9726,0.0,0.0,2.0442,2.0388,2.0237,0.0,0.0,0.0,1.9528,0.0,0.0,0.0,1.8684,1.8931,1.8988,1.8875,1.9274,1.9407,1.9473,1.9791,2.0107,0.0,0.0,0.0,0.0,0.0,2.0537,2.0537,0.0,0.0,1.9649,1.9857,1.9911,0.0,1.9781,1.9791,1.9802,1.9726,1.9528,1.9341,1.9208,1.9065,0.0,0.0,0.0,1.8327,1.7784,0.0,0.0,0.0,0.0,0.0,0.0,0.0,0.0,0.0,0.0,1.6908,1.6908,1.6908,1.683,0.0,0.0,0.0,0.0,0.0,0.0,0.0,0.0,0.0,0.0,0.0,0.0,0.0,1.4281,1.4137,1.392,1.392,1.3783,1.3492,1.3492,1.3492,1.3492,1.3492,1.3492,1.3492,1.3492,1.3492,1.3506,1.3616,1.3784,1.4018,1.4372,1.467,1.4808,1.4961,1.4999,1.4831,1.388,1.3457,1.3372,2.2163,2.1916,0.0,0.0,0.0,0.0,0.0,0.0,0.0,0.0,1.9274,0.0,1.9605,0.0,2.0183,0.0,2.0635,2.0839,2.0839,2.07,0.0,2.0495,2.0237,0.0,0.0,0.0,0.0,0.0,0.0,1.9507,1.9462,1.9791,1.9987,1.9987,2.0313,2.0688,2.1112,0.0,2.1628,0.0,0.0,2.1479,0.0,0.0,2.073,2.042,0.0,2.0677,2.0794,2.0794,2.0858,2.0805,2.0613,2.0431,2.0183,1.9857,1.9715,1.9507,1.911,1.8988,0.0,1.8452,1.8269,0.0,1.8008,0.0,0.0,0.0,0.0,0.0,0.0,0.0,1.7116,1.7176,1.7107,1.6968,0.0,1.6621,0.0,0.0,0.0,0.0,0.0,0.0,0.0,0.0,0.0,0.0,0.0,0.0,1.4497,1.4274,1.4274,1.4137,1.3928,1.3783,1.3783,1.3928,1.3637,1.3564,1.371,1.3564,1.3492,1.3492,1.3492,1.3616,1.3843,1.4289,1.4589,1.4816,1.509,1.5173,1.5173,1.4824,1.465,1.4482,2.3015,2.247,0.0,0.0,2.0537,0.0,0.0,0.0,1.9868,0.0,1.9671,1.9671,1.9671,2.0107,2.042,2.0431,2.0892,0.0,2.1221,2.0828,0.0,0.0,2.056,2.0302,2.0635,0.0,0.0,0.0,0.0,2.0107,2.0096,2.0172,2.0161,2.0161,2.0161,0.0,2.1514,2.1514,2.1928,2.2713,2.2713,2.2652,2.2652,2.2652,2.1966,2.1101,2.1376,2.1753,2.2101,2.2101,2.2347,2.247,2.169,2.1451,2.1262,2.042,2.0172,2.0107,1.9998,1.9649,1.9375,1.9528,0.0,0.0,0.0,0.0,1.8519,0.0,0.0,0.0,0.0,0.0,0.0,1.7647,1.7442,1.7166,1.6968,0.0,0.0,0.0,0.0,0.0,0.0,0.0,0.0,0.0,0.0,0.0,0.0,0.0,1.4641,1.4641,1.4641,1.4641,1.4569,1.4274,1.4274,1.4569,1.3928,1.3783,1.4129,1.3702,1.3499,1.3499,1.3499,1.3492,1.3543,1.4179,1.4457,1.4531,1.516,1.5416,1.5347,1.4908,1.4741,1.465,2.3793,2.3378,2.3017,0.0,2.1302,2.0107,0.0,0.0,0.0,0.0,2.0313,2.0442,2.0775,2.0903,2.1019,2.1135,2.1146,0.0,0.0,0.0,0.0,2.1221,2.1135,2.1008,2.0839,2.0764,0.0,2.0291,0.0,0.0,2.0506,2.0764,2.1071,2.1439,2.1083,0.0,2.3135,2.2834,2.3327,2.4337,2.3989,2.3859,0.0,0.0,2.3301,2.3314,2.2592,2.2359,2.247,2.247,2.2531,2.247,2.1939,2.1753,2.1639,2.1083,2.0892,2.0828,2.0506,2.0313,2.0107,1.9518,1.9639,1.9846,0.0,0.0,0.0,0.0,0.0,0.0,0.0,0.0,0.0,1.7657,1.7461,1.7323,0.0,0.0,0.0,0.0,0.0,0.0,0.0,0.0,0.0,0.0,0.0,0.0,0.0,0.0,0.0,1.5062,1.5062,1.4919,1.4569,1.4489,1.4489,1.4569,1.4425,1.4353,1.4497,1.4137,1.392,1.392,1.3637,1.3492,1.3528,1.3938,1.4253,1.4509,1.4911,1.5211,1.5347,1.5082,1.4999,1.4999,2.4319,0.0,0.0,2.2823,0.0,0.0,2.1404,0.0,0.0,2.1313,2.1262,0.0,2.1463,2.1526,2.1526,2.1639,2.1336,0.0,0.0,0.0,0.0,2.1423,2.1486,2.1423,2.1233,2.1233,0.0,2.0816,0.0,0.0,2.1198,2.1221,2.1474,2.2037,2.1474,2.1889,0.0,2.3327,2.3872,2.4593,2.4593,0.0,0.0,2.4266,2.4337,2.4523,2.3859,2.3623,2.3623,2.3623,2.3623,2.3564,2.2895,2.2725,2.2604,2.2002,2.1827,2.1753,2.1565,2.1376,2.1187,2.073,2.0782,2.0846,2.0526,2.0632,2.079,0.0,0.0,0.0,0.0,0.0,0.0,0.0,0.0,0.0,0.0,0.0,0.0,0.0,0.0,0.0,0.0,0.0,0.0,0.0,0.0,0.0,0.0,0.0,0.0,1.5497,1.5426,1.5363,1.515,1.4927,1.4927,1.515,1.4784,1.4705,1.4848,1.4489,1.4346,1.4281,1.4065,1.392,1.3805,1.4059,1.4318,1.4516,1.4977,1.527,1.5431,1.5257,1.5257,1.5173,2.458,0.0,0.0,0.0,0.0,0.0,0.0,2.231,0.0,2.2433,0.0,2.2125,2.2125,2.2125,2.2113,2.2125,0.0,2.1577,2.169,2.169,2.1765,2.1925,2.1937,2.1999,2.1999,2.1999,0.0,0.0,0.0,0.0,2.1827,2.1411,2.1537,2.2123,2.1486,0.0,0.0,2.3505,2.4092,2.435,2.4878,2.5118,2.5118,2.5118,2.5118,2.5118,2.5118,2.5061,2.5005,2.5005,2.4948,2.4821,2.4047,2.38,2.3577,2.2847,2.2592,2.2592,2.2592,2.2408,2.2175,2.2334,2.2051,2.1768,2.1741,2.1655,2.1705,2.2163,2.1655,2.133,0.0,0.0,0.0,0.0,0.0,0.0,0.0,0.0,0.0,0.0,0.0,0.0,0.0,0.0,0.0,0.0,0.0,0.0,0.0,0.0,0.0,1.5867,1.5797,0.0,1.5805,0.0,1.5426,1.5797,1.5078,1.4927,1.5275,1.4848,1.4713,1.4713,1.4641,1.4425,1.4152,1.4444,1.4494,1.4609,1.5256,1.5431,1.5431,1.5431,1.5431,1.5347,0.0,0.0,0.0,0.0,0.0,2.3734,2.4905,2.3975,2.3122,2.3301,2.3242,2.3242,2.3242,2.3242,2.3301,2.3433,2.3255,0.0,0.0,0.0,0.0,2.3195,2.3327,2.3446,2.3446,2.3446,2.3088,0.0,0.0,2.1951,2.1348,2.1221,2.1463,2.1963,0.0,0.0,2.3301,2.42,0.0,2.5605,2.5729,2.5729,2.5729,2.5729,2.5729,2.5729,2.5729,2.5397,2.5005,2.5005,2.4821,2.4523,2.3975,2.3649,2.3378,2.2786,2.2592,2.2592,2.2592,2.2531,2.247,2.2237,2.2494,2.2738,2.2482,2.2738,2.3078,2.3138,2.2944,2.2555,2.2002,0.0,0.0,0.0,0.0,0.0,0.0,0.0,0.0,0.0,0.0,0.0,0.0,0.0,0.0,0.0,0.0,0.0,0.0,0.0,0.0,0.0,1.5867,0.0,0.0,0.0,1.5726,1.5805,1.5655,1.5655,1.5655,1.5284,1.5062,1.5062,1.4713,1.4569,1.4505,1.456,1.4731,1.4977,1.5739,1.5756,1.5431,1.5431,1.5431,1.5431,0.0,0.0,0.0,0.0,0.0,0.0,0.0,2.4894,0.0,2.4168,2.4008,2.3904,2.3904,2.3904,2.3975,2.4047,2.3728,2.3598,2.38,2.3728,2.3669,2.3787,2.3846,0.0,2.3917,2.3917,2.3551,2.2738,0.0,0.0,2.1788,2.1526,2.1737,2.2357,0.0,2.2702,0.0,0.0,0.0,2.5453,2.5784,2.5893,2.5893,2.5893,2.5893,2.5893,2.5893,2.5729,2.5453,2.53,2.5131,2.4948,2.4337,2.406,2.3897,2.3471,2.3352,2.3352,2.3352,2.3352,2.3292,2.3065,2.3318,2.3569,2.3318,2.3497,2.376,2.3641,2.3582,2.3198,2.2187,2.1279,0.0,0.0,0.0,0.0,0.0,0.0,0.0,0.0,0.0,0.0,0.0,0.0,0.0,0.0,0.0,0.0,0.0,0.0,0.0,0.0,0.0,0.0,0.0,0.0,0.0,1.5805,1.5805,1.5805,1.5797,1.5576,1.5505,1.5505,1.5292,1.507,1.4944,1.5104,1.5221,1.5436,1.6137,1.6245,1.6079,1.5839,1.5756,1.5763,0.0,2.4878,0.0,0.0,2.4637,0.0,2.4937,2.5425,2.5605,2.505,2.4781,2.4637,2.4637,2.4637,2.4637,2.4637,2.4253,2.4066,2.4266,2.4266,2.4266,2.4368,2.4368,2.4368,2.4368,2.4368,2.4021,0.0,0.0,0.0,2.2641,2.1894,2.1882,2.2457,2.2982,0.0,0.0,0.0,2.5075,2.523,2.5729,2.5893,2.5893,2.5893,2.5893,2.5893,2.5893,2.5893,2.5839,2.5605,2.5494,2.5439,2.4878,2.4637,2.458,2.4332,2.4216,2.4157,2.4157,2.4171,2.4054,2.3949,2.4008,2.4054,2.3949,2.4008,2.4008,2.3891,2.3891,2.3509,2.2421,2.1717,0.0,0.0,0.0,0.0,0.0,0.0,0.0,0.0,0.0,0.0,0.0,0.0,0.0,0.0,0.0,1.6682,1.6682,1.6403,0.0,0.0,0.0,1.5867,1.5867,0.0,1.5867,0.0,1.5805,1.5805,1.5805,1.5805,1.5805,1.5805,1.5805,1.5689,1.5441,1.5796,1.5952,1.6004,1.6645,1.6812,1.6656,1.6335,1.6252,1.617,0.0,0.0,0.0,0.0,0.0,0.0,0.0,2.5647,2.5592,2.5784,2.5784,2.5729,2.5729,2.5729,2.5729,2.5729,2.5715,2.566,2.5715,2.5715,2.5715,2.5715,2.5715,2.5715,2.5715,2.5715,2.5356,0.0,0.0,0.0,0.0,2.2243,2.1571,2.1426,0.0,0.0,0.0,2.5308,2.5814,2.5839,2.5893,2.5893,2.5893,2.5893,2.5893,2.5893,2.5893,2.5893,2.5839,2.5605,2.5494,2.5494,2.5439,2.5188,2.4948,2.4892,2.4708,2.4465,2.4465,2.4261,2.4112,2.4054,2.4112,2.4112,2.4054,2.4008,2.3891,2.3891,2.376,2.3437,2.2665,2.2871,2.2702,0.0,0.0,0.0,0.0,0.0,0.0,0.0,0.0,0.0,0.0,0.0,0.0,0.0,0.0,1.7028,1.6899,1.6682,1.6533,1.6533,0.0,1.6202,1.6061,1.6061,1.6,1.5805,1.5805,1.5805,1.5805,1.5805,1.5805,1.5805,1.5805,1.5985,1.6237,1.6589,1.6723,1.6735,1.7154,1.7066,1.673,1.6656,1.6656,1.6574,0.0,0.0,0.0,0.0,0.0,0.0,0.0,2.6344,2.6484,2.6975,2.6357,2.5893,2.5893,2.5893,2.5893,2.5893,2.5893,2.5893,2.5893,2.5893,2.5893,2.5893,2.5893,2.5893,2.5893,2.5893,2.555,0.0,0.0,0.0,0.0,2.3566,2.3703,0.0,0.0,2.5086,2.5287,2.5716,2.5896,2.5893,2.5893,2.5893,2.5893,2.5893,2.5893,2.5893,2.5893,2.5893,2.5893,2.5798,2.5647,2.5439,2.5257,2.5131,2.4948,2.4765,2.458,2.4452,2.4319,2.4157,2.4112,2.4112,2.4112,2.4112,2.4112,2.4067,2.4008,2.4008,2.3878,2.37,2.3437,2.3065,2.2628,0.0,0.0,0.0,0.0,0.0,0.0,0.0,0.0,0.0,0.0,0.0,0.0,0.0,0.0,0.0,1.7107,1.6899,1.6751,1.6603,0.0,1.6272,1.6202,1.6202,1.6211,1.607,1.607,1.607,1.6,1.6,1.5929,1.5805,1.5805,1.6002,1.6362,1.6756,1.7056,1.7265,1.7645,1.7635,1.7465,1.7229,1.7147,1.7066,2.5967,0.0,2.6203,0.0,2.6203,2.6399,2.6974,2.7088,2.7256,2.772,2.7003,2.6455,2.6455,2.6455,2.6455,2.6455,2.6455,2.6455,2.6455,2.6455,2.6455,2.6455,2.6455,0.0,2.6455,2.6455,2.6217,2.5821,2.5821,0.0,0.0,0.0,0.0,0.0,2.5923,2.5925,2.5893,2.5893,2.5893,2.5893,2.5893,2.5893,2.5893,2.5893,2.5893,2.5893,2.5893,2.5893,2.5893,2.5893,2.5743,2.5592,2.5355,2.5286,2.5216,2.4978,2.4865,2.4765,2.4563,2.4461,2.4332,2.4216,2.4216,2.4216,2.4112,2.4112,2.4112,2.4112,2.4008,2.3949,2.3949,2.3318,2.275,2.2543,0.0,0.0,0.0,0.0,0.0,0.0,0.0,1.8875,1.8674,0.0,0.0,0.0,0.0,0.0,0.0,1.7107,0.0,0.0,0.0,0.0,0.0,1.6412,1.6342,1.6272,1.6272,1.6272,1.6132,1.6132,1.6,1.5867,1.5797,1.6071,1.6524,1.6807,1.7201,1.7663,1.7937,1.804,1.7959,1.7716,1.7554,1.7473,2.6793,2.7312,2.7748,2.7748,2.7748,2.7762,2.7762,2.7762,2.7762,2.7776,2.7762,2.7762,2.7762,2.7762,2.7762,2.7762,2.7762,2.7762,2.7762,2.7762,2.7762,0.0,0.0,2.7762,2.7762,2.7762,2.7748,2.7762,0.0,0.0,2.7734,0.0,2.5898,2.5895,2.5895,2.5897,2.5893,2.5893,2.5893,2.5893,2.5893,2.5893,2.5893,2.5893,2.5893,2.5893,2.5893,2.5893,2.5893,2.5893,2.5893,2.5893,2.5893,2.5893,2.5893,2.5893,2.5702,2.5494,2.5494,2.5257,2.4878,2.458,2.4523,2.4408,2.4157,2.4112,2.4112,2.4112,2.4112,2.4112,2.4112,2.4008,2.3628,2.2895,0.0,0.0,0.0,0.0,0.0,0.0,1.8741,1.8674,1.9065,0.0,0.0,0.0,0.0,0.0,0.0,0.0,0.0,1.7166,1.7166,0.0,1.6603,1.6603,1.6473,1.6272,1.6272,1.6272,1.6272,1.6132,1.6132,1.6061,1.5867,1.6225,1.691,1.6918,1.7355,1.7951,1.804,1.804,1.804,1.7951,1.7951,1.7959,2.7582,2.7636,2.7776,2.7776,2.7776,2.7917,2.8338,2.8394,2.8549,2.897,2.9026,2.9026,2.9026,2.8282,2.7776,0.0,2.7776,2.7776,0.0,2.7776,2.7776,2.7776,2.7776,2.7776,2.7776,2.7776,2.7776,2.7776,0.0,0.0,0.0,2.7262,2.671,2.5939,2.6828,2.7213,2.7186,2.7186,2.7186,2.7186,2.7186,2.7186,2.713,2.6694,2.6512,2.6469,2.6048,2.5893,2.5893,2.5893,2.5893,2.5893,2.5893,2.5893,2.5839,2.5702,2.555,2.5439,2.5244,2.4878,2.4637,2.4523,2.4363,2.4216,2.4112,2.4112,2.4112,2.4112,2.4112,2.4112,2.4112,2.4008,2.3819,2.3556,2.2494,0.0,0.0,0.0,0.0,0.0,0.0,1.8942,0.0,1.8808,0.0,0.0,0.0,0.0,0.0,0.0,0.0,0.0,1.7392,0.0,1.7019,1.7028,1.689,1.67,1.67,1.6621,1.6473,1.6342,1.6272,1.6219,1.6492,1.6823,1.7154,1.7431,1.7673,1.804,1.804,1.804,1.804,1.804,1.804,1.7959,2.8568,2.8592,2.8689,2.8524,2.8464,2.8591,2.897,2.904,2.9167,2.956,2.9602,2.9602,2.9602,2.8928,0.0,2.8464,2.8464,2.8464,2.8464,2.8464,2.8524,2.857,2.857,2.857,2.8644,0.0,0.0,2.857,2.8524,2.8334,2.8075,2.8334,2.8064,2.7353,2.8113,2.8477,2.848,2.8135,2.7963,2.7776,2.7776,2.7776,2.7734,2.7326,2.7172,2.713,2.6736,2.6441,2.6245,2.6245,2.609,2.5893,2.5893,2.5893,2.5839,2.5702,2.5647,2.5592,2.5397,2.5118,2.4821,2.4694,2.4478,2.4216,2.4112,2.4112,2.4112,2.4112,2.4112,2.4112,2.4112,2.4008,2.4008,2.4008,2.2992,2.2175,2.199,0.0,0.0,0.0,0.0,0.0,0.0,1.8942,0.0,0.0,0.0,0.0,0.0,0.0,0.0,1.7588,1.7588,0.0,1.7314,1.7245,1.7166,1.7038,1.6908,1.683,1.6682,1.6473,1.6403,1.643,1.683,1.7149,1.7313,1.7784,1.8013,1.8112,1.8112,1.8121,1.804,1.804,1.804,1.804,2.9609,2.9968,0.0,0.0,2.9727,0.0,2.9665,2.9665,2.9665,2.9602,2.9602,2.9602,2.9602,2.9602,2.9602,2.9602,0.0,0.0,0.0,2.9602,2.9665,2.9747,2.9808,2.9884,3.005,3.0111,2.9974,2.9808,2.9651,2.9602,2.9602,2.9602,2.9633,2.9608,2.9608,2.9571,2.9521,2.8767,2.8262,2.7902,2.7902,2.7902,2.7902,2.786,2.7832,2.7832,2.7804,2.7397,2.6877,2.6877,2.6497,2.602,2.602,2.5992,2.595,2.5907,2.5893,2.5893,2.5893,2.5688,2.5439,2.5131,2.4765,2.4408,2.4157,2.4112,2.4112,2.4112,2.4112,2.4112,2.4112,2.4112,2.4112,2.4112,2.3399,2.2713,2.2224,0.0,0.0,0.0,0.0,0.0,0.0,1.9075,1.9008,0.0,0.0,0.0,0.0,0.0,1.7706,1.7706,1.7706,1.7647,1.7539,1.7314,1.7235,1.7166,1.6968,1.6908,1.6908,1.6682,1.6621,1.6675,1.6947,1.7267,1.7592,1.7973,1.8267,1.8442,1.8442,1.8282,1.804,1.804,1.804,1.804,0.0,0.0,3.0792,3.0673,3.0673,3.0553,3.0205,3.0144,3.0007,2.9761,2.9761,2.9837,2.9988,2.9988,2.9913,2.9761,2.9651,2.9602,2.9602,2.9602,2.9602,2.9665,2.9761,2.9822,2.9884,2.9884,2.9837,2.9665,2.9851,2.9927,2.9803,2.9662,2.9624,2.9614,2.961,2.9596,2.9586,2.9388,2.9285,2.9167,2.9167,2.9167,2.9125,2.8647,2.8478,2.8422,2.7945,2.7678,2.7551,2.7551,2.7453,2.7326,2.7326,2.6989,2.6512,2.6034,2.5893,2.5893,2.5893,2.5688,2.5494,2.5383,2.4948,2.4452,2.4408,2.4274,2.4112,2.4112,2.4112,2.4112,2.4112,2.4112,2.4112,2.4112,2.3628,2.3198,2.3138,2.2075,0.0,0.0,1.9977,1.9473,1.9131,1.9075,1.9008,0.0,0.0,0.0,0.0,1.8269,1.8066,1.793,1.793,1.7862,1.7647,1.752,1.7254,1.6968,1.6899,1.6908,1.6908,1.6839,1.6994,1.7305,1.7651,1.7986,1.8231,1.8617,1.8683,1.8612,1.8442,1.8362,1.8282,1.8121,1.804,1.804,3.1823,3.1637,3.1407,3.1233,3.1073,3.0911,3.0673,3.0613,3.0553,3.0358,3.0358,3.0418,3.0658,3.0507,3.0326,3.0343,2.9931,2.9651,2.9602,2.9602,2.9602,2.9713,2.9761,2.9822,2.996,2.996,2.9837,2.9713,2.9789,2.9803,2.9741,2.9747,2.9794,2.9946,3.0031,3.0031,2.9898,2.9851,2.9803,2.9803,2.9803,2.9803,2.9761,2.9346,2.9205,2.9163,2.8792,2.8436,2.8197,2.8197,2.8015,2.7776,2.7776,2.7537,2.7186,2.6849,2.6343,2.5893,2.5893,2.5688,2.5439,2.5313,2.5005,2.4708,2.4708,2.4478,2.4261,2.4261,2.4157,2.4112,2.4112,2.4112,2.4112,2.4112,2.3878,2.3641,2.3463,2.2775,0.0,2.125,2.0549,1.9977,1.9396,1.9208,1.9065,1.8942,1.8875,0.0,1.8607,1.8472,1.8337,1.8144,1.8076,1.794,1.7852,1.7657,1.7382,1.7038,1.7038,1.6968,1.6908,1.7092,1.7293,1.7523,1.8137,1.8446,1.8597,1.8988,1.9002,1.8851,1.8683,1.8603,1.8362,1.8282,1.8121,1.804,3.2602,3.2422,3.213,3.1721,3.1465,3.1306,3.1248,3.119,3.1131,3.1131,3.1087,3.1131,3.1377,3.1058,3.0911,3.1102,3.051,2.9993,2.9679,2.9665,2.9727,2.9822,2.987,2.996,3.0111,3.0111,2.9974,2.9761,2.9727,2.9665,2.9665,2.9812,2.9992,3.0283,3.0492,3.0391,3.0086,2.9925,2.9868,2.9825,2.9825,2.9825,2.9825,2.96,2.9539,2.9539,2.9445,2.9059,2.8609,2.8609,2.8271,2.7804,2.7888,2.7846,2.7804,2.7888,2.7102,2.616,2.6062,2.5813,2.5481,2.5188,2.5118,2.5075,2.5075,2.4765,2.4509,2.4509,2.4261,2.4112,2.4112,2.4112,2.4112,2.4112,2.4112,2.3936,2.3582,0.0,2.2957,2.1753,2.125,2.0613,1.9791,1.9396,1.9142,1.9075,1.8942,1.8875,1.8875,1.8684,1.8482,1.8405,1.8134,1.8008,1.794,1.7784,1.7579,1.7235,1.7235,1.7176,1.6987,1.7392,1.7604,1.7705,1.846,1.8742,1.8825,1.9164,1.9231,1.9073,1.9002,1.8754,1.8523,1.8442,1.8282,1.8121,3.2508,3.278,3.3027,3.2703,3.2812,3.278,3.2422,3.2089,3.1849,3.1622,3.1379,3.1321,3.148,3.1595,3.1637,3.1622,3.1705,3.1246,3.0111,2.9988,3.005,3.0036,3.0144,3.0205,3.0111,3.0111,2.9927,2.9665,2.9913,2.9913,2.9747,2.987,2.9931,2.9993,3.0401,2.9981,2.8933,2.8926,2.877,2.8497,2.8497,2.8497,2.8497,2.8439,2.8425,2.8425,2.8439,2.828,2.8092,2.8092,2.7977,2.7874,2.8394,2.8197,2.7874,2.8394,2.8043,2.7369,2.6821,2.6245,2.5853,2.5784,2.5578,2.5439,2.5439,2.4935,2.4509,2.4509,2.4261,2.4112,2.4112,2.4112,2.4112,2.4112,2.4112,2.4054,2.3995,0.0,2.3198,2.2652,2.1865,2.0996,2.0268,1.9781,1.9407,1.9142,1.9075,1.9065,1.9065,1.8875,1.8741,1.8741,1.8405,1.8066,1.7774,1.7706,1.7647,1.747,1.747,1.747,1.7411,1.7816,1.8122,1.8258,1.8731,1.9053,1.9219,1.9274,1.9301,1.9222,1.9082,1.8922,1.8922,1.8692,1.862,1.8531,3.3958,3.4195,3.4376,3.4266,3.436,3.4344,3.4148,3.3982,3.3855,3.3686,3.3589,3.345,3.3301,3.3089,3.2807,3.2327,3.2296,3.1905,3.1131,3.1058,3.1058,3.1058,3.0822,3.0319,2.9597,2.9254,2.9023,2.8845,2.9023,2.9009,2.895,2.9323,2.954,2.9614,2.9932,2.9903,2.9525,2.9559,2.9258,2.8828,2.8944,2.8742,2.844,2.8326,2.8254,2.8197,2.8111,2.8009,2.7893,2.7893,2.7834,2.7832,2.8113,2.8001,2.7832,2.8113,2.8001,2.7706,2.7411,2.6863,2.6385,2.6385,2.6036,2.5702,2.5702,2.5355,2.5061,2.5061,2.4791,2.4563,2.4563,2.4434,2.4319,2.4319,2.4216,0.0,0.0,2.3936,2.3628,2.3173,2.2543,2.1791,2.0985,2.0549,2.0042,1.9407,1.9341,1.9274,1.9131,1.9008,1.8942,1.8808,1.8472,1.8134,1.7852,1.7862,1.7794,1.7588,1.7588,1.7712,1.7811,1.8218,1.8561,1.8911,1.9324,1.945,1.9478,1.9478,1.939,1.9301,1.9231,1.9073,1.9002,1.8931,1.8772,1.87,3.5307,3.549,3.5562,3.549,3.553,3.5641,3.5641,3.5514,3.5498,3.5498,3.5459,3.5253,3.4946,3.458,3.4125,3.3536,3.3412,3.3208,3.2956,3.294,3.2675,3.2018,3.1377,3.0588,2.9577,2.8941,2.864,2.864,2.864,2.864,2.8654,2.914,2.9428,2.9561,2.9697,2.99,3.0096,3.0069,2.9723,2.9232,2.9349,2.9116,2.8681,2.8553,2.8383,2.8197,2.8111,2.8009,2.7806,2.7666,2.7609,2.7551,2.7551,2.7551,2.7579,2.7734,2.7776,2.7804,2.7945,2.7523,2.7031,2.7031,2.6568,2.6104,2.6104,2.58,2.5494,2.5494,2.5244,2.5005,2.5005,2.4765,2.4637,2.4637,0.0,0.0,0.0,2.4171,2.3995,2.3641,2.3173,2.2604,2.1815,2.1302,2.0741,1.9987,1.9791,1.9605,1.9208,1.9208,1.9075,1.8808,1.8472,1.8212,1.8076,1.8008,1.794,1.7784,1.788,1.8033,1.8237,1.8743,1.9088,1.9431,1.9839,1.9872,1.9645,1.9645,1.9478,1.939,1.9301,1.9222,1.9073,1.9073,1.9002,1.8851,3.5459,3.5838,3.6126,3.5828,3.6039,3.6249,3.6249,3.5969,3.5774,3.5774,3.5554,3.5387,3.5379,3.5529,3.5623,3.5559,3.5824,3.598,3.598,3.598,3.4908,3.2444,3.1637,3.1145,3.1042,3.0332,2.9983,2.9983,2.9983,2.9983,2.9983,3.0025,3.004,3.004,3.017,2.9986,2.9492,2.9406,2.9143,2.8753,2.8753,2.8724,2.8681,2.8681,2.8553,2.8383,2.8383,2.8226,2.7866,2.7258,2.699,2.6877,2.6877,2.6877,2.7003,2.7607,2.7776,2.7902,2.8464,2.8169,2.7706,2.7706,2.7228,2.6736,2.6736,2.6106,2.5494,2.5494,2.5244,2.5005,2.5005,2.5005,2.4948,2.4948,0.0,0.0,2.4465,2.4261,2.4112,2.4054,2.3641,2.3185,2.2761,2.1865,2.1187,2.0858,2.0355,1.9911,1.9605,1.9539,1.9341,1.8808,1.8472,1.8269,1.8269,1.8076,1.8008,1.8018,1.8329,1.8533,1.8592,1.9418,1.9742,1.9573,2.0082,2.0108,1.9863,1.9715,1.9557,1.9557,1.939,1.9301,1.9301,1.9301,1.9301,1.9231,3.6685,3.6988,3.7271,3.7142,3.7399,3.7598,3.7598,3.7471,3.7399,3.7399,3.7343,3.707,3.6621,3.6683,3.649,3.586,3.6109,3.6233,3.5969,3.6179,3.5706,3.4297,3.3535,3.3023,3.2627,3.2019,3.1426,3.0964,3.0567,3.0218,2.9793,2.9798,2.981,2.9824,3.0127,3.017,2.9952,2.9941,2.9609,2.9146,2.9204,2.9029,2.8681,2.8681,2.8624,2.844,2.844,2.8269,2.7938,2.7697,2.7512,2.7411,2.7411,2.713,2.6863,2.7102,2.7172,2.7312,2.7959,2.7945,2.7874,2.824,2.7874,2.7411,2.7411,2.6805,2.6315,2.6315,2.5883,2.5564,2.5564,2.5411,2.5313,2.5313,0.0,2.4509,2.4509,2.4261,2.4112,2.4112,2.3936,2.3628,2.3245,2.2823,2.2384,2.1667,2.1175,2.0741,2.042,1.9922,1.9407,1.9008,1.8741,1.8539,1.8414,1.8279,1.834,1.8527,1.8564,1.8916,1.9443,1.9766,1.9992,2.0255,2.042,2.0333,2.0108,2.0029,1.9951,1.9794,1.9557,1.9478,1.9469,1.9381,1.9301,1.9301,3.7711,3.7902,3.8075,3.8075,3.8262,3.8391,3.8391,3.8391,3.8391,3.8391,3.8391,3.8213,3.7711,3.7663,3.7397,3.666,3.6825,3.6841,3.6612,3.6825,3.6577,3.5728,3.5038,3.4534,3.4088,3.3525,3.2934,3.2454,3.2013,3.1561,3.1152,3.1153,3.113,3.1145,3.1247,3.1316,3.127,3.1101,3.0733,3.0404,3.0464,3.0381,3.0206,2.9988,2.9915,3.0002,3.0002,2.9827,2.9549,2.9566,2.9377,2.9074,2.867,2.7954,2.7159,2.7159,2.7018,2.6947,2.7607,2.7636,2.7664,2.8493,2.824,2.7832,2.8015,2.7579,2.7116,2.7116,2.661,2.6174,2.6174,2.5883,2.5647,2.5647,2.5174,2.4765,2.4694,2.4421,2.4216,2.4112,2.4112,2.3995,2.3641,2.3463,2.3138,2.2555,2.2063,2.1616,2.129,2.0355,1.979,1.973,1.9349,1.9219,1.9489,1.8889,1.8834,1.9183,1.9189,1.9502,1.9997,2.0134,2.037,2.0566,2.0566,2.0489,2.042,2.0342,2.0186,2.002,1.9794,1.9715,1.9715,1.9548,1.946,1.939,3.8391,3.8391,3.8391,3.8391,3.8391,3.8391,3.8391,3.8391,3.8391,3.8391,3.8391,3.8391,3.8391,3.8391,3.8391,3.8391,3.8391,3.8391,3.8391,3.8391,3.7776,3.6384,3.5712,3.5419,3.5419,3.482,3.4515,3.45,3.45,3.45,3.45,3.45,3.45,3.45,3.3789,3.3501,3.344,3.2815,3.2513,3.2513,3.2513,3.2926,3.3455,3.2752,3.2771,3.3181,3.3181,3.3134,3.3045,3.3089,3.2649,3.181,3.063,2.9217,2.8039,2.8024,2.747,2.6961,2.7607,2.7298,2.7116,2.8366,2.8226,2.7945,2.8549,2.8212,2.7776,2.779,2.727,2.6821,2.6821,2.6315,2.5907,2.5907,2.5702,2.5369,2.5061,2.4694,2.4408,2.4112,2.4112,2.4112,2.4112,2.37,2.3403,2.3403,2.2932,2.2482,2.2113,2.0974,2.0565,2.0996,2.0228,2.0392,2.1607,1.9986,1.9435,1.9929,2.0414,2.0466,2.0222,2.0698,2.0819,2.0566,2.0566,2.0566,2.0566,2.0411,2.0264,2.0264,2.0029,1.9863,1.9863,1.9863,1.9784,1.9566,3.8391,3.8391,3.8391,3.8391,3.8391,3.8391,3.8391,3.8391,3.8391,3.8391,3.8391,3.8391,3.8391,3.8391,3.8391,3.8391,3.8391,3.8391,3.8391,3.8391,3.8213,3.7792,3.7592,3.752,3.752,3.7335,3.6965,3.6454,3.6026,3.5603,3.509,3.4674,3.45,3.45,3.4324,3.4206,3.4206,3.3969,3.3909,3.3909,3.3909,3.4028,3.4206,3.3969,3.4013,3.4117,3.4117,3.3998,3.3833,3.3872,3.3658,3.3252,3.2482,3.1962,3.1345,3.0223,2.9457,2.8856,2.844,2.757,2.7003,2.7846,2.7902,2.7945,2.8549,2.8212,2.7902,2.8324,2.7931,2.7481,2.7481,2.6961,2.654,2.654,2.5925,2.5369,2.5061,2.4694,2.4408,2.4112,2.4112,2.4112,2.4112,2.3995,2.3878,2.3878,2.3437,2.3045,2.273,2.236,2.2262,2.2419,2.2173,2.2355,2.2946,2.0949,2.0401,2.1333,2.0851,2.0712,2.0928,2.0924,2.0906,2.0819,2.0654,2.0566,2.0566,2.0566,2.0489,2.0489,2.0264,2.0186,2.0186,1.9942,1.9863,1.9794,3.8391,3.8391,3.8391,3.8391,3.8391,3.8391,3.8391,3.8391,3.8391,3.8391,3.8391,3.8391,3.8391,3.8391,3.8391,3.8391,3.8391,3.8391,3.8391,3.8391,3.8391,3.8391,3.8391,3.8391,3.8391,3.8391,3.8181,3.7744,3.7375,3.6981,3.6582,3.6194,3.6022,3.6022,3.579,3.5673,3.5599,3.5347,3.5228,3.5228,3.5228,3.5422,3.5599,3.5347,3.5422,3.5673,3.5673,3.5599,3.5525,3.5759,3.5439,3.4849,3.4182,3.3794,3.3337,3.2273,3.1492,3.0789,2.9797,2.8828,2.8139,2.8068,2.7753,2.7551,2.8183,2.8043,2.7945,2.8577,2.8197,2.7846,2.8099,2.7621,2.72,2.72,2.672,2.6313,2.5942,2.5625,2.5194,2.4701,2.4708,2.47,2.4478,2.4661,2.4792,2.4792,2.449,2.4251,2.4129,2.3823,2.3721,2.3886,2.3573,2.3708,2.4307,2.2666,2.2042,2.2418,2.2114,2.1892,2.1787,2.1634,2.1482,2.1328,2.0886,2.0654,2.0566,2.0566,2.0566,2.0566,2.0498,2.042,2.042,2.0255,2.0098,2.0048,3.8448,3.8448,3.8448,3.8408,3.8391,3.8391,3.8391,3.8391,3.8391,3.8391,3.8391,3.8391,3.8391,3.8391,3.8391,3.8391,3.8391,3.8391,3.8391,3.8391,3.8391,3.8391,3.8391,3.8391,3.8391,3.8391,3.8391,3.8391,3.8391,3.8391,3.8391,3.8391,3.8359,3.8311,3.769,3.735,3.7227,3.6642,3.6383,3.6383,3.6383,3.6779,3.7227,3.6642,3.6779,3.7286,3.7286,3.7286,3.7419,3.8028,3.7391,3.6267,3.5728,3.5039,3.437,3.406,3.3441,3.2645,3.1604,3.085,3.01,2.9,2.7897,2.723,2.7708,2.7734,2.786,2.8478,2.8169,2.7945,2.8507,2.8155,2.7776,2.7776,2.7776,2.7703,2.7367,2.701,2.6519,2.5754,2.5744,2.5677,2.5153,2.5511,2.5824,2.5824,2.5824,2.5837,2.5903,2.5154,2.4993,2.5398,2.4679,2.4783,2.5697,2.4992,2.4131,2.3213,2.3841,2.3672,2.2798,2.2798,2.2574,2.2103,2.1405,2.1041,2.0867,2.0867,2.0789,2.0722,2.0722,2.0644,2.0566,2.0566,2.0489,2.041,3.8914,3.8876,3.8766,3.8448,3.8391,3.8391,3.8391,3.8391,3.8391,3.8391,3.8391,3.8391,3.8391,3.8391,3.8391,3.8391,3.8391,3.8391,3.8391,3.8391,3.8391,3.8391,3.8391,3.8391,3.8391,3.8391,3.8391,3.8391,3.8391,3.8391,3.8391,3.8391,3.81,3.7549,3.7383,3.7021,3.6522,3.6396,3.6341,3.6341,3.6341,3.6396,3.6522,3.6396,3.6396,3.6522,3.6522,3.6522,3.6577,3.6702,3.6535,3.6345,3.6478,3.6349,3.6105,3.5615,3.5076,3.4455,3.3457,3.2437,3.1486,3.0719,3.0015,2.9159,2.808,2.7383,2.72,2.7846,2.7874,2.7818,2.7945,2.7874,2.7776,2.7776,2.7776,2.7703,2.7367,2.7248,2.7028,2.6633,2.6363,2.6131,2.6012,2.587,2.5824,2.5824,2.5824,2.602,2.6465,2.6349,2.6413,2.6835,2.6659,2.6587,2.6726,2.6508,2.5873,2.4802,2.4337,2.3963,2.3818,2.3599,2.3526,2.3368,2.3084,2.2787,2.2638,2.2638,2.2199,2.1538,2.1538,2.1165,2.0566,2.0566,2.0566,2.0596,3.9312,3.9259,3.9206,3.9007,3.8952,3.8914,3.8711,3.8711,3.8616,3.8464,3.8391,3.8391,3.8391,3.8391,3.8391,3.8391,3.8391,3.8391,3.8391,3.8391,3.8391,3.8391,3.8391,3.8391,3.8391,3.8391,3.8391,3.8391,3.8391,3.8391,3.8391,3.8391,3.8197,3.7825,3.7825,3.763,3.7307,3.7307,3.7307,3.7307,3.7307,3.7307,3.7258,3.6918,3.6788,3.6756,3.6416,3.6303,3.6303,3.6303,3.6303,3.6314,3.649,3.6587,3.6477,3.6014,3.5933,3.5779,3.4849,3.4222,3.3727,3.2809,3.1972,3.0934,2.8942,2.7768,2.737,2.8254,2.7869,2.7468,2.7996,2.7951,2.7776,2.7776,2.7776,2.7816,2.7963,2.7825,2.7704,2.7522,2.7474,2.7337,2.7147,2.7019,2.6841,2.6634,2.6634,2.6765,2.7066,2.7079,2.7157,2.739,2.7403,2.7335,2.7146,2.7146,2.6794,2.6094,2.5569,2.5134,2.4636,2.4564,2.448,2.4337,2.3891,2.3514,2.3368,2.3368,2.3073,2.2563,2.2499,2.2188,2.1821,2.1756,2.1737,2.183,3.9714,3.9714,3.9714,3.9594,3.9711,3.9707,3.9367,3.9412,3.9402,3.9014,3.8918,3.8861,3.8861,3.8707,3.8586,3.8586,3.8472,3.8391,3.8391,3.8391,3.8391,3.8391,3.8391,3.8391,3.8391,3.8391,3.8391,3.8391,3.8391,3.8391,3.8391,3.8391,3.8327,3.8213,3.8213,3.8149,3.8035,3.8035,3.8035,3.8035,3.8035,3.8035,3.797,3.7371,3.7145,3.708,3.6513,3.6303,3.6287,3.6157,3.6108,3.6108,3.6055,3.6002,3.5964,3.579,3.6095,3.6358,3.5593,3.5561,3.5552,3.4537,3.3793,3.2722,3.0638,2.9013,2.8184,2.8954,2.8033,2.73,2.8181,2.7997,2.7723,2.7723,2.7764,2.7945,2.8464,2.8293,2.8158,2.813,2.8373,2.8373,2.805,2.8143,2.8,2.7603,2.759,2.7603,2.7523,2.7523,2.7523,2.7523,2.7523,2.7469,2.7335,2.7335,2.7214,2.7011,2.6863,2.6358,2.5523,2.5523,2.5453,2.5229,2.4552,2.4181,2.3963,2.3963,2.3891,2.3661,2.3514,2.3368,2.3231,2.3034,2.3006,2.3002,4.0288,4.0188,4.007,3.9662,4.0163,4.0598,4.0545,4.108,4.1481,4.141,4.1038,4.0828,4.0828,3.996,3.9331,3.9331,3.8764,3.8391,3.8391,3.8391,3.8391,3.8391,3.8391,3.8391,3.8391,3.8391,3.8391,3.8391,3.8391,3.8391,3.8391,3.8391,3.8068,3.7469,3.7469,3.7145,3.6594,3.6594,3.6594,3.6594,3.6594,3.6594,3.6578,3.6481,3.6448,3.6432,3.6335,3.6303,3.6206,3.5542,3.5331,3.5279,3.5016,3.4894,3.4968,3.53,3.5442,3.5489,3.5338,3.5329,3.532,3.4925,3.4945,3.4877,3.4296,3.1868,2.9729,2.9271,2.8542,2.8062,2.8204,2.781,2.748,2.748,2.7626,2.7804,2.7888,2.7902,2.7844,2.783,2.8074,2.8126,2.7723,2.8211,2.8406,2.8013,2.8013,2.7868,2.7523,2.7523,2.7523,2.7523,2.7523,2.7456,2.7469,2.7469,2.7403,2.7268,2.7201,2.6998,2.6508,2.6508,2.644,2.6314,2.6164,2.6037,2.5828,2.5828,2.5312,2.4564,2.4492,2.4036,2.3423,2.2938,2.2785,2.2864,4.195,4.1917,4.185,4.1665,4.1887,4.2057,4.1779,4.1996,4.2146,4.193,4.171,4.1616,4.1616,4.0901,4.0451,4.0451,3.9926,3.9557,3.9557,3.9557,3.9412,3.9023,3.9007,3.8812,3.8408,3.8391,3.8391,3.8391,3.8391,3.8391,3.8391,3.8391,3.823,3.7922,3.7922,3.776,3.7469,3.7469,3.7469,3.7469,3.7469,3.7469,3.7436,3.7031,3.6869,3.6821,3.6432,3.6303,3.6254,3.5914,3.5801,3.5801,3.5642,3.5589,3.5573,3.53,3.5518,3.5758,3.5342,3.5409,3.553,3.5419,3.5363,3.5156,3.4482,3.3573,3.2558,3.1503,3.0213,2.9277,2.9122,2.8724,2.8265,2.7915,2.7705,2.7612,2.7556,2.74,2.7369,2.7734,2.7897,2.7811,2.742,2.7653,2.7645,2.7143,2.708,2.6966,2.6569,2.6582,2.6582,2.6582,2.6582,2.6582,2.6582,2.6582,2.6518,2.6453,2.6453,2.6515,2.6714,2.6714,2.6658,2.6533,2.6533,2.6465,2.6396,2.6396,2.6107,2.5664,2.5606,2.5421,2.5236,2.5111,2.4818,2.4416]}]]